<?xml version="1.0" encoding="UTF-8" standalone="no" ?>
<gpx xmlns="http://www.topografix.com/GPX/1/1" xmlns:xsi="http://www.w3.org/2001/XMLSchema-instance" xsi:schemaLocation="http://www.topografix.com/GPX/1/1 http://www.topografix.com/GPX/1/1/gpx.xsd" version="1.1" creator="VisuGPX - https://www.visugpx.com">
  <metadata>
    <name>Circuit La Trappe-Pitelet 38 km (II)</name>
    <desc><![CDATA[Circuit au départ de La Trappe ou de Pitelet Option II par la maison de Darraud et le Puy de Snidre.]]></desc>
  </metadata>
  <trk>
    <name><![CDATA[Tracé 23 févr. 2017 12:58:10]]></name>
    <trkseg>
      <trkpt lat="45.93887" lon="3.63145">
        <ele>716.15548</ele>
        <time>2017-02-23T11:58:10Z</time>
      </trkpt>
      <trkpt lat="45.93892" lon="3.63155">
        <ele>718.95566666667</ele>
        <time>2017-02-23T11:58:25Z</time>
      </trkpt>
      <trkpt lat="45.93909" lon="3.63173">
        <ele>718.75635333333</ele>
        <time>2017-02-23T11:58:30Z</time>
      </trkpt>
      <trkpt lat="45.93917" lon="3.63187">
        <ele>719.15666</ele>
        <time>2017-02-23T11:58:35Z</time>
      </trkpt>
      <trkpt lat="45.93925" lon="3.63203">
        <ele>719.85698666667</ele>
        <time>2017-02-23T11:58:36Z</time>
      </trkpt>
      <trkpt lat="45.93929" lon="3.63214">
        <ele>720.15715333333</ele>
        <time>2017-02-23T11:58:41Z</time>
      </trkpt>
      <trkpt lat="45.93943" lon="3.63246">
        <ele>720.45770666667</ele>
        <time>2017-02-23T11:58:44Z</time>
      </trkpt>
      <trkpt lat="45.93953" lon="3.63267">
        <ele>720.85812666667</ele>
        <time>2017-02-23T11:58:48Z</time>
      </trkpt>
      <trkpt lat="45.9396" lon="3.63282">
        <ele>720.85841333333</ele>
        <time>2017-02-23T11:58:51Z</time>
      </trkpt>
      <trkpt lat="45.93975" lon="3.63302">
        <ele>721.55898</ele>
        <time>2017-02-23T11:58:55Z</time>
      </trkpt>
      <trkpt lat="45.93983" lon="3.6331">
        <ele>721.9593</ele>
        <time>2017-02-23T11:59:00Z</time>
      </trkpt>
      <trkpt lat="45.93999" lon="3.63317">
        <ele>722.55997333333</ele>
        <time>2017-02-23T11:59:01Z</time>
      </trkpt>
      <trkpt lat="45.9401" lon="3.63317">
        <ele>722.86041333333</ele>
        <time>2017-02-23T11:59:07Z</time>
      </trkpt>
      <trkpt lat="45.9404" lon="3.63301">
        <ele>724.36161333333</ele>
        <time>2017-02-23T11:59:11Z</time>
      </trkpt>
      <trkpt lat="45.94055" lon="3.63287">
        <ele>724.9622</ele>
        <time>2017-02-23T11:59:14Z</time>
      </trkpt>
      <trkpt lat="45.94067" lon="3.6328">
        <ele>725.46268666667</ele>
        <time>2017-02-23T11:59:18Z</time>
      </trkpt>
      <trkpt lat="45.94088" lon="3.63263">
        <ele>725.5635</ele>
        <time>2017-02-23T11:59:23Z</time>
      </trkpt>
      <trkpt lat="45.94102" lon="3.63258">
        <ele>726.16407333333</ele>
        <time>2017-02-23T11:59:26Z</time>
      </trkpt>
      <trkpt lat="45.94117" lon="3.63251">
        <ele>726.26466666667</ele>
        <time>2017-02-23T11:59:30Z</time>
      </trkpt>
      <trkpt lat="45.94139" lon="3.63239">
        <ele>726.36556</ele>
        <time>2017-02-23T11:59:35Z</time>
      </trkpt>
      <trkpt lat="45.94161" lon="3.63235">
        <ele>728.06643333333</ele>
        <time>2017-02-23T11:59:40Z</time>
      </trkpt>
      <trkpt lat="45.94174" lon="3.63236">
        <ele>730.26696</ele>
        <time>2017-02-23T11:59:42Z</time>
      </trkpt>
      <trkpt lat="45.94178" lon="3.63236">
        <ele>731.26711333333</ele>
        <time>2017-02-23T11:59:57Z</time>
      </trkpt>
      <trkpt lat="45.94203" lon="3.63241">
        <ele>738.5681</ele>
        <time>2017-02-23T12:00:00Z</time>
      </trkpt>
      <trkpt lat="45.94209" lon="3.63242">
        <ele>740.96834</ele>
        <time>2017-02-23T12:00:06Z</time>
      </trkpt>
      <trkpt lat="45.94216" lon="3.63244">
        <ele>743.66864</ele>
        <time>2017-02-23T12:00:11Z</time>
      </trkpt>
      <trkpt lat="45.94225" lon="3.63248">
        <ele>745.76898</ele>
        <time>2017-02-23T12:00:16Z</time>
      </trkpt>
      <trkpt lat="45.94236" lon="3.63251">
        <ele>748.56943333333</ele>
        <time>2017-02-23T12:00:24Z</time>
      </trkpt>
      <trkpt lat="45.94244" lon="3.63252">
        <ele>750.66974</ele>
        <time>2017-02-23T12:00:29Z</time>
      </trkpt>
      <trkpt lat="45.94251" lon="3.63254">
        <ele>750.87004</ele>
        <time>2017-02-23T12:00:33Z</time>
      </trkpt>
      <trkpt lat="45.94259" lon="3.63259">
        <ele>751.77034</ele>
        <time>2017-02-23T12:00:40Z</time>
      </trkpt>
      <trkpt lat="45.94265" lon="3.63262">
        <ele>752.17061333333</ele>
        <time>2017-02-23T12:00:42Z</time>
      </trkpt>
      <trkpt lat="45.94284" lon="3.63271">
        <ele>754.07135333333</ele>
        <time>2017-02-23T12:00:51Z</time>
      </trkpt>
      <trkpt lat="45.94289" lon="3.63276">
        <ele>754.77155333333</ele>
        <time>2017-02-23T12:00:55Z</time>
      </trkpt>
      <trkpt lat="45.94296" lon="3.63284">
        <ele>755.47182666667</ele>
        <time>2017-02-23T12:01:06Z</time>
      </trkpt>
      <trkpt lat="45.94304" lon="3.63289">
        <ele>755.97216666667</ele>
        <time>2017-02-23T12:01:06Z</time>
      </trkpt>
      <trkpt lat="45.94308" lon="3.63293">
        <ele>755.97230666667</ele>
        <time>2017-02-23T12:01:11Z</time>
      </trkpt>
      <trkpt lat="45.94317" lon="3.633">
        <ele>756.37268</ele>
        <time>2017-02-23T12:01:15Z</time>
      </trkpt>
      <trkpt lat="45.94321" lon="3.63309">
        <ele>755.67282</ele>
        <time>2017-02-23T12:01:21Z</time>
      </trkpt>
      <trkpt lat="45.94327" lon="3.63318">
        <ele>755.27306666667</ele>
        <time>2017-02-23T12:01:24Z</time>
      </trkpt>
      <trkpt lat="45.9433" lon="3.63327">
        <ele>754.4732</ele>
        <time>2017-02-23T12:01:30Z</time>
      </trkpt>
      <trkpt lat="45.94334" lon="3.63349">
        <ele>753.47334666667</ele>
        <time>2017-02-23T12:01:41Z</time>
      </trkpt>
      <trkpt lat="45.94334" lon="3.63356">
        <ele>753.07336666667</ele>
        <time>2017-02-23T12:01:53Z</time>
      </trkpt>
      <trkpt lat="45.94329" lon="3.63376">
        <ele>752.67316</ele>
        <time>2017-02-23T12:01:53Z</time>
      </trkpt>
      <trkpt lat="45.94327" lon="3.63379">
        <ele>752.67308</ele>
        <time>2017-02-23T12:02:00Z</time>
      </trkpt>
      <trkpt lat="45.94316" lon="3.63396">
        <ele>752.07265333333</ele>
        <time>2017-02-23T12:02:04Z</time>
      </trkpt>
      <trkpt lat="45.94313" lon="3.63406">
        <ele>751.37251333333</ele>
        <time>2017-02-23T12:02:11Z</time>
      </trkpt>
      <trkpt lat="45.94312" lon="3.63417">
        <ele>751.47248666667</ele>
        <time>2017-02-23T12:02:14Z</time>
      </trkpt>
      <trkpt lat="45.94305" lon="3.63449">
        <ele>750.17220666667</ele>
        <time>2017-02-23T12:02:27Z</time>
      </trkpt>
      <trkpt lat="45.943" lon="3.63491">
        <ele>749.27198</ele>
        <time>2017-02-23T12:02:40Z</time>
      </trkpt>
      <trkpt lat="45.94297" lon="3.63543">
        <ele>750.57187333333</ele>
        <time>2017-02-23T12:02:42Z</time>
      </trkpt>
      <trkpt lat="45.94294" lon="3.6356">
        <ele>750.17176666667</ele>
        <time>2017-02-23T12:02:46Z</time>
      </trkpt>
      <trkpt lat="45.94293" lon="3.63574">
        <ele>749.97172</ele>
        <time>2017-02-23T12:02:49Z</time>
      </trkpt>
      <trkpt lat="45.94297" lon="3.63616">
        <ele>750.47187333333</ele>
        <time>2017-02-23T12:03:00Z</time>
      </trkpt>
      <trkpt lat="45.94298" lon="3.63637">
        <ele>750.6719</ele>
        <time>2017-02-23T12:03:05Z</time>
      </trkpt>
      <trkpt lat="45.943" lon="3.63652">
        <ele>751.072</ele>
        <time>2017-02-23T12:03:09Z</time>
      </trkpt>
      <trkpt lat="45.94305" lon="3.63666">
        <ele>750.97220666667</ele>
        <time>2017-02-23T12:03:12Z</time>
      </trkpt>
      <trkpt lat="45.9432" lon="3.63683">
        <ele>751.67280666667</ele>
        <time>2017-02-23T12:03:18Z</time>
      </trkpt>
      <trkpt lat="45.94324" lon="3.63697">
        <ele>752.87297333333</ele>
        <time>2017-02-23T12:03:23Z</time>
      </trkpt>
      <trkpt lat="45.9433" lon="3.63708">
        <ele>753.67318</ele>
        <time>2017-02-23T12:03:27Z</time>
      </trkpt>
      <trkpt lat="45.94331" lon="3.63709">
        <ele>753.77323333333</ele>
        <time>2017-02-23T12:03:33Z</time>
      </trkpt>
      <trkpt lat="45.94341" lon="3.63729">
        <ele>754.17362666667</ele>
        <time>2017-02-23T12:03:38Z</time>
      </trkpt>
      <trkpt lat="45.94347" lon="3.63738">
        <ele>754.67388</ele>
        <time>2017-02-23T12:03:42Z</time>
      </trkpt>
      <trkpt lat="45.94347" lon="3.63739">
        <ele>755.07388666667</ele>
        <time>2017-02-23T12:03:56Z</time>
      </trkpt>
      <trkpt lat="45.94369" lon="3.63774">
        <ele>758.47474666667</ele>
        <time>2017-02-23T12:04:00Z</time>
      </trkpt>
      <trkpt lat="45.94371" lon="3.63784">
        <ele>758.97484666667</ele>
        <time>2017-02-23T12:04:04Z</time>
      </trkpt>
      <trkpt lat="45.94376" lon="3.63793">
        <ele>759.37502666667</ele>
        <time>2017-02-23T12:04:11Z</time>
      </trkpt>
      <trkpt lat="45.94378" lon="3.63801">
        <ele>759.57512666667</ele>
        <time>2017-02-23T12:04:13Z</time>
      </trkpt>
      <trkpt lat="45.94381" lon="3.63807">
        <ele>759.67522666667</ele>
        <time>2017-02-23T12:04:17Z</time>
      </trkpt>
      <trkpt lat="45.94382" lon="3.6385">
        <ele>758.27529333333</ele>
        <time>2017-02-23T12:04:30Z</time>
      </trkpt>
      <trkpt lat="45.94376" lon="3.6386">
        <ele>758.07505333333</ele>
        <time>2017-02-23T12:04:34Z</time>
      </trkpt>
      <trkpt lat="45.94368" lon="3.63868">
        <ele>757.67470666667</ele>
        <time>2017-02-23T12:04:38Z</time>
      </trkpt>
      <trkpt lat="45.9436" lon="3.63875">
        <ele>756.7744</ele>
        <time>2017-02-23T12:04:42Z</time>
      </trkpt>
      <trkpt lat="45.94354" lon="3.63878">
        <ele>756.17416</ele>
        <time>2017-02-23T12:04:45Z</time>
      </trkpt>
      <trkpt lat="45.94345" lon="3.63884">
        <ele>755.27378666667</ele>
        <time>2017-02-23T12:04:49Z</time>
      </trkpt>
      <trkpt lat="45.94333" lon="3.63909">
        <ele>755.67332666667</ele>
        <time>2017-02-23T12:04:59Z</time>
      </trkpt>
      <trkpt lat="45.9433" lon="3.63915">
        <ele>755.77319333333</ele>
        <time>2017-02-23T12:05:00Z</time>
      </trkpt>
      <trkpt lat="45.94319" lon="3.63928">
        <ele>754.97274</ele>
        <time>2017-02-23T12:05:05Z</time>
      </trkpt>
      <trkpt lat="45.94313" lon="3.63934">
        <ele>754.67251333333</ele>
        <time>2017-02-23T12:05:08Z</time>
      </trkpt>
      <trkpt lat="45.94302" lon="3.63943">
        <ele>754.17206666667</ele>
        <time>2017-02-23T12:05:13Z</time>
      </trkpt>
      <trkpt lat="45.94295" lon="3.63948">
        <ele>754.27178</ele>
        <time>2017-02-23T12:05:17Z</time>
      </trkpt>
      <trkpt lat="45.9429" lon="3.63957">
        <ele>754.6716</ele>
        <time>2017-02-23T12:05:21Z</time>
      </trkpt>
      <trkpt lat="45.94288" lon="3.63966">
        <ele>755.17152666667</ele>
        <time>2017-02-23T12:05:24Z</time>
      </trkpt>
      <trkpt lat="45.94284" lon="3.63987">
        <ele>757.47135333333</ele>
        <time>2017-02-23T12:05:33Z</time>
      </trkpt>
      <trkpt lat="45.94285" lon="3.63996">
        <ele>758.57140666667</ele>
        <time>2017-02-23T12:05:37Z</time>
      </trkpt>
      <trkpt lat="45.94285" lon="3.64008">
        <ele>758.97138666667</ele>
        <time>2017-02-23T12:05:42Z</time>
      </trkpt>
      <trkpt lat="45.94283" lon="3.64015">
        <ele>759.37130666667</ele>
        <time>2017-02-23T12:05:47Z</time>
      </trkpt>
      <trkpt lat="45.94282" lon="3.64026">
        <ele>760.27128666667</ele>
        <time>2017-02-23T12:05:51Z</time>
      </trkpt>
      <trkpt lat="45.94282" lon="3.64038">
        <ele>761.07128</ele>
        <time>2017-02-23T12:06:00Z</time>
      </trkpt>
      <trkpt lat="45.94279" lon="3.6405">
        <ele>761.97116</ele>
        <time>2017-02-23T12:06:08Z</time>
      </trkpt>
      <trkpt lat="45.94275" lon="3.6405">
        <ele>762.47098</ele>
        <time>2017-02-23T12:06:24Z</time>
      </trkpt>
      <trkpt lat="45.94261" lon="3.64044">
        <ele>762.87045333333</ele>
        <time>2017-02-23T12:06:28Z</time>
      </trkpt>
      <trkpt lat="45.94258" lon="3.64042">
        <ele>763.17032</ele>
        <time>2017-02-23T12:06:31Z</time>
      </trkpt>
      <trkpt lat="45.94246" lon="3.64036">
        <ele>763.16984666667</ele>
        <time>2017-02-23T12:06:41Z</time>
      </trkpt>
      <trkpt lat="45.94238" lon="3.64038">
        <ele>763.46952</ele>
        <time>2017-02-23T12:06:59Z</time>
      </trkpt>
      <trkpt lat="45.94227" lon="3.64048">
        <ele>765.86908</ele>
        <time>2017-02-23T12:07:03Z</time>
      </trkpt>
      <trkpt lat="45.9422" lon="3.64052">
        <ele>766.36881333333</ele>
        <time>2017-02-23T12:07:11Z</time>
      </trkpt>
      <trkpt lat="45.94217" lon="3.64056">
        <ele>766.36866666667</ele>
        <time>2017-02-23T12:07:14Z</time>
      </trkpt>
      <trkpt lat="45.94198" lon="3.64063">
        <ele>767.26793333333</ele>
        <time>2017-02-23T12:07:29Z</time>
      </trkpt>
      <trkpt lat="45.9419" lon="3.64066">
        <ele>768.0676</ele>
        <time>2017-02-23T12:07:35Z</time>
      </trkpt>
      <trkpt lat="45.94182" lon="3.6407">
        <ele>768.86729333333</ele>
        <time>2017-02-23T12:07:42Z</time>
      </trkpt>
      <trkpt lat="45.94175" lon="3.64072">
        <ele>769.26698666667</ele>
        <time>2017-02-23T12:07:54Z</time>
      </trkpt>
      <trkpt lat="45.94167" lon="3.64075">
        <ele>769.66668</ele>
        <time>2017-02-23T12:07:54Z</time>
      </trkpt>
      <trkpt lat="45.94162" lon="3.6408">
        <ele>770.36647333333</ele>
        <time>2017-02-23T12:07:59Z</time>
      </trkpt>
      <trkpt lat="45.94153" lon="3.64086">
        <ele>771.26612666667</ele>
        <time>2017-02-23T12:08:04Z</time>
      </trkpt>
      <trkpt lat="45.9415" lon="3.64086">
        <ele>771.46601333333</ele>
        <time>2017-02-23T12:08:11Z</time>
      </trkpt>
      <trkpt lat="45.94138" lon="3.64096">
        <ele>772.36552</ele>
        <time>2017-02-23T12:08:14Z</time>
      </trkpt>
      <trkpt lat="45.94131" lon="3.64102">
        <ele>772.26524</ele>
        <time>2017-02-23T12:08:19Z</time>
      </trkpt>
      <trkpt lat="45.94121" lon="3.64107">
        <ele>771.96482</ele>
        <time>2017-02-23T12:08:24Z</time>
      </trkpt>
      <trkpt lat="45.94105" lon="3.64121">
        <ele>771.96418666667</ele>
        <time>2017-02-23T12:08:34Z</time>
      </trkpt>
      <trkpt lat="45.94094" lon="3.64116">
        <ele>771.76376</ele>
        <time>2017-02-23T12:08:38Z</time>
      </trkpt>
      <trkpt lat="45.94072" lon="3.64127">
        <ele>771.36286666667</ele>
        <time>2017-02-23T12:08:42Z</time>
      </trkpt>
      <trkpt lat="45.94067" lon="3.64133">
        <ele>771.06267333333</ele>
        <time>2017-02-23T12:08:52Z</time>
      </trkpt>
      <trkpt lat="45.94056" lon="3.64175">
        <ele>770.36224</ele>
        <time>2017-02-23T12:08:56Z</time>
      </trkpt>
      <trkpt lat="45.94056" lon="3.64189">
        <ele>769.86223333333</ele>
        <time>2017-02-23T12:09:00Z</time>
      </trkpt>
      <trkpt lat="45.94056" lon="3.64194">
        <ele>770.16225333333</ele>
        <time>2017-02-23T12:09:08Z</time>
      </trkpt>
      <trkpt lat="45.94058" lon="3.6422">
        <ele>771.06232666667</ele>
        <time>2017-02-23T12:09:12Z</time>
      </trkpt>
      <trkpt lat="45.94057" lon="3.64227">
        <ele>771.36228</ele>
        <time>2017-02-23T12:09:28Z</time>
      </trkpt>
      <trkpt lat="45.9405" lon="3.64258">
        <ele>770.76200666667</ele>
        <time>2017-02-23T12:09:28Z</time>
      </trkpt>
      <trkpt lat="45.9405" lon="3.64264">
        <ele>770.46198666667</ele>
        <time>2017-02-23T12:09:41Z</time>
      </trkpt>
      <trkpt lat="45.94046" lon="3.64322">
        <ele>767.76182666667</ele>
        <time>2017-02-23T12:09:45Z</time>
      </trkpt>
      <trkpt lat="45.94043" lon="3.64335">
        <ele>766.9617</ele>
        <time>2017-02-23T12:09:49Z</time>
      </trkpt>
      <trkpt lat="45.94035" lon="3.64353">
        <ele>765.86139333333</ele>
        <time>2017-02-23T12:09:58Z</time>
      </trkpt>
      <trkpt lat="45.9403" lon="3.6436">
        <ele>765.26121333333</ele>
        <time>2017-02-23T12:10:01Z</time>
      </trkpt>
      <trkpt lat="45.94025" lon="3.64371">
        <ele>764.661</ele>
        <time>2017-02-23T12:10:06Z</time>
      </trkpt>
      <trkpt lat="45.94019" lon="3.6438">
        <ele>764.06076666667</ele>
        <time>2017-02-23T12:10:11Z</time>
      </trkpt>
      <trkpt lat="45.94015" lon="3.64384">
        <ele>763.76059333333</ele>
        <time>2017-02-23T12:10:13Z</time>
      </trkpt>
      <trkpt lat="45.93992" lon="3.64392">
        <ele>761.65967333333</ele>
        <time>2017-02-23T12:10:26Z</time>
      </trkpt>
      <trkpt lat="45.93979" lon="3.64398">
        <ele>761.25914666667</ele>
        <time>2017-02-23T12:10:31Z</time>
      </trkpt>
      <trkpt lat="45.9397" lon="3.64401">
        <ele>760.6588</ele>
        <time>2017-02-23T12:10:35Z</time>
      </trkpt>
      <trkpt lat="45.93959" lon="3.64406">
        <ele>760.15836666667</ele>
        <time>2017-02-23T12:10:40Z</time>
      </trkpt>
      <trkpt lat="45.93951" lon="3.64412">
        <ele>760.05805333333</ele>
        <time>2017-02-23T12:10:44Z</time>
      </trkpt>
      <trkpt lat="45.9394" lon="3.6442">
        <ele>758.75759333333</ele>
        <time>2017-02-23T12:10:49Z</time>
      </trkpt>
      <trkpt lat="45.9393" lon="3.64429">
        <ele>758.35721333333</ele>
        <time>2017-02-23T12:10:54Z</time>
      </trkpt>
      <trkpt lat="45.93921" lon="3.6444">
        <ele>758.15684666667</ele>
        <time>2017-02-23T12:11:00Z</time>
      </trkpt>
      <trkpt lat="45.93887" lon="3.64533">
        <ele>769.85547333333</ele>
        <time>2017-02-23T12:11:05Z</time>
      </trkpt>
      <trkpt lat="45.93892" lon="3.64535">
        <ele>770.95568666667</ele>
        <time>2017-02-23T12:11:07Z</time>
      </trkpt>
      <trkpt lat="45.93879" lon="3.64579">
        <ele>777.25516666667</ele>
        <time>2017-02-23T12:11:11Z</time>
      </trkpt>
      <trkpt lat="45.9388" lon="3.64579">
        <ele>780.35518666667</ele>
        <time>2017-02-23T12:11:17Z</time>
      </trkpt>
      <trkpt lat="45.93872" lon="3.64623">
        <ele>791.35486</ele>
        <time>2017-02-23T12:11:27Z</time>
      </trkpt>
      <trkpt lat="45.93864" lon="3.64625">
        <ele>801.65454666667</ele>
        <time>2017-02-23T12:11:43Z</time>
      </trkpt>
      <trkpt lat="45.93856" lon="3.64635">
        <ele>805.95422666667</ele>
        <time>2017-02-23T12:11:53Z</time>
      </trkpt>
      <trkpt lat="45.93855" lon="3.64647">
        <ele>807.05418666667</ele>
        <time>2017-02-23T12:12:09Z</time>
      </trkpt>
      <trkpt lat="45.93856" lon="3.64658">
        <ele>806.75424666667</ele>
        <time>2017-02-23T12:12:16Z</time>
      </trkpt>
      <trkpt lat="45.9386" lon="3.64669">
        <ele>807.9544</ele>
        <time>2017-02-23T12:12:24Z</time>
      </trkpt>
      <trkpt lat="45.93862" lon="3.64673">
        <ele>808.05448666667</ele>
        <time>2017-02-23T12:12:28Z</time>
      </trkpt>
      <trkpt lat="45.93865" lon="3.64691">
        <ele>811.05461333333</ele>
        <time>2017-02-23T12:12:41Z</time>
      </trkpt>
      <trkpt lat="45.93864" lon="3.64702">
        <ele>813.35456666667</ele>
        <time>2017-02-23T12:12:47Z</time>
      </trkpt>
      <trkpt lat="45.93866" lon="3.64709">
        <ele>814.75464</ele>
        <time>2017-02-23T12:12:57Z</time>
      </trkpt>
      <trkpt lat="45.93869" lon="3.64722">
        <ele>817.05476</ele>
        <time>2017-02-23T12:13:02Z</time>
      </trkpt>
      <trkpt lat="45.93867" lon="3.64732">
        <ele>818.85468666667</ele>
        <time>2017-02-23T12:13:11Z</time>
      </trkpt>
      <trkpt lat="45.93863" lon="3.6474">
        <ele>820.55450666667</ele>
        <time>2017-02-23T12:13:20Z</time>
      </trkpt>
      <trkpt lat="45.93855" lon="3.64742">
        <ele>822.05418666667</ele>
        <time>2017-02-23T12:13:27Z</time>
      </trkpt>
      <trkpt lat="45.93847" lon="3.64745">
        <ele>823.35388</ele>
        <time>2017-02-23T12:13:32Z</time>
      </trkpt>
      <trkpt lat="45.93839" lon="3.64743">
        <ele>825.45354</ele>
        <time>2017-02-23T12:13:41Z</time>
      </trkpt>
      <trkpt lat="45.93836" lon="3.64744">
        <ele>826.15342666667</ele>
        <time>2017-02-23T12:13:54Z</time>
      </trkpt>
      <trkpt lat="45.93816" lon="3.64749">
        <ele>830.05262</ele>
        <time>2017-02-23T12:13:59Z</time>
      </trkpt>
      <trkpt lat="45.93807" lon="3.6475">
        <ele>831.65229333333</ele>
        <time>2017-02-23T12:14:04Z</time>
      </trkpt>
      <trkpt lat="45.93801" lon="3.64743">
        <ele>833.05202666667</ele>
        <time>2017-02-23T12:14:11Z</time>
      </trkpt>
      <trkpt lat="45.93795" lon="3.64733">
        <ele>833.55180666667</ele>
        <time>2017-02-23T12:14:15Z</time>
      </trkpt>
      <trkpt lat="45.93788" lon="3.64727">
        <ele>833.85152666667</ele>
        <time>2017-02-23T12:14:19Z</time>
      </trkpt>
      <trkpt lat="45.93781" lon="3.6472">
        <ele>834.25124666667</ele>
        <time>2017-02-23T12:14:24Z</time>
      </trkpt>
      <trkpt lat="45.93775" lon="3.64715">
        <ele>834.65098666667</ele>
        <time>2017-02-23T12:14:27Z</time>
      </trkpt>
      <trkpt lat="45.93766" lon="3.64707">
        <ele>835.15064666667</ele>
        <time>2017-02-23T12:14:32Z</time>
      </trkpt>
      <trkpt lat="45.93762" lon="3.64702">
        <ele>835.65046666667</ele>
        <time>2017-02-23T12:14:36Z</time>
      </trkpt>
      <trkpt lat="45.93748" lon="3.64695">
        <ele>835.54992666667</ele>
        <time>2017-02-23T12:14:41Z</time>
      </trkpt>
      <trkpt lat="45.9374" lon="3.64696">
        <ele>835.64960666667</ele>
        <time>2017-02-23T12:14:44Z</time>
      </trkpt>
      <trkpt lat="45.93739" lon="3.64699">
        <ele>835.54955333333</ele>
        <time>2017-02-23T12:14:53Z</time>
      </trkpt>
      <trkpt lat="45.93733" lon="3.64723">
        <ele>836.54933333333</ele>
        <time>2017-02-23T12:14:53Z</time>
      </trkpt>
      <trkpt lat="45.93733" lon="3.64726">
        <ele>836.44932666667</ele>
        <time>2017-02-23T12:15:00Z</time>
      </trkpt>
      <trkpt lat="45.93736" lon="3.64739">
        <ele>836.24942</ele>
        <time>2017-02-23T12:15:00Z</time>
      </trkpt>
      <trkpt lat="45.93738" lon="3.64749">
        <ele>836.34952666667</ele>
        <time>2017-02-23T12:15:05Z</time>
      </trkpt>
      <trkpt lat="45.93744" lon="3.64766">
        <ele>835.94976</ele>
        <time>2017-02-23T12:15:11Z</time>
      </trkpt>
      <trkpt lat="45.93752" lon="3.64795">
        <ele>834.75006</ele>
        <time>2017-02-23T12:15:14Z</time>
      </trkpt>
      <trkpt lat="45.93752" lon="3.64804">
        <ele>834.75009333333</ele>
        <time>2017-02-23T12:15:26Z</time>
      </trkpt>
      <trkpt lat="45.93757" lon="3.64876">
        <ele>836.85028666667</ele>
        <time>2017-02-23T12:15:31Z</time>
      </trkpt>
      <trkpt lat="45.93757" lon="3.6489">
        <ele>836.75028666667</ele>
        <time>2017-02-23T12:15:35Z</time>
      </trkpt>
      <trkpt lat="45.93753" lon="3.64905">
        <ele>836.75012</ele>
        <time>2017-02-23T12:15:38Z</time>
      </trkpt>
      <trkpt lat="45.93748" lon="3.64925">
        <ele>836.74993333333</ele>
        <time>2017-02-23T12:15:42Z</time>
      </trkpt>
      <trkpt lat="45.93744" lon="3.64943">
        <ele>836.84974666667</ele>
        <time>2017-02-23T12:15:47Z</time>
      </trkpt>
      <trkpt lat="45.93741" lon="3.64959">
        <ele>836.74963333333</ele>
        <time>2017-02-23T12:15:50Z</time>
      </trkpt>
      <trkpt lat="45.93737" lon="3.64978">
        <ele>836.84949333333</ele>
        <time>2017-02-23T12:15:54Z</time>
      </trkpt>
      <trkpt lat="45.93733" lon="3.65009">
        <ele>838.14930666667</ele>
        <time>2017-02-23T12:15:59Z</time>
      </trkpt>
      <trkpt lat="45.93731" lon="3.65035">
        <ele>838.64924666667</ele>
        <time>2017-02-23T12:16:03Z</time>
      </trkpt>
      <trkpt lat="45.93739" lon="3.65061">
        <ele>839.54957333333</ele>
        <time>2017-02-23T12:16:08Z</time>
      </trkpt>
      <trkpt lat="45.93751" lon="3.65081">
        <ele>840.75004</ele>
        <time>2017-02-23T12:16:12Z</time>
      </trkpt>
      <trkpt lat="45.93765" lon="3.65095">
        <ele>841.25058</ele>
        <time>2017-02-23T12:16:16Z</time>
      </trkpt>
      <trkpt lat="45.9378" lon="3.65114">
        <ele>841.25119333333</ele>
        <time>2017-02-23T12:16:24Z</time>
      </trkpt>
      <trkpt lat="45.93798" lon="3.65129">
        <ele>841.15190666667</ele>
        <time>2017-02-23T12:16:29Z</time>
      </trkpt>
      <trkpt lat="45.93807" lon="3.65136">
        <ele>841.35226666667</ele>
        <time>2017-02-23T12:16:33Z</time>
      </trkpt>
      <trkpt lat="45.93829" lon="3.65143">
        <ele>841.15317333333</ele>
        <time>2017-02-23T12:16:38Z</time>
      </trkpt>
      <trkpt lat="45.93845" lon="3.65146">
        <ele>840.25381333333</ele>
        <time>2017-02-23T12:16:42Z</time>
      </trkpt>
      <trkpt lat="45.93858" lon="3.65149">
        <ele>839.35431333333</ele>
        <time>2017-02-23T12:16:46Z</time>
      </trkpt>
      <trkpt lat="45.93861" lon="3.6515">
        <ele>839.25443333333</ele>
        <time>2017-02-23T12:16:52Z</time>
      </trkpt>
      <trkpt lat="45.93892" lon="3.65163">
        <ele>840.55566</ele>
        <time>2017-02-23T12:16:55Z</time>
      </trkpt>
      <trkpt lat="45.93905" lon="3.65166">
        <ele>841.05619333333</ele>
        <time>2017-02-23T12:16:58Z</time>
      </trkpt>
      <trkpt lat="45.93913" lon="3.65168">
        <ele>841.25651333333</ele>
        <time>2017-02-23T12:17:00Z</time>
      </trkpt>
      <trkpt lat="45.93925" lon="3.65167">
        <ele>840.95701333333</ele>
        <time>2017-02-23T12:17:04Z</time>
      </trkpt>
      <trkpt lat="45.93952" lon="3.65167">
        <ele>838.45807333333</ele>
        <time>2017-02-23T12:17:12Z</time>
      </trkpt>
      <trkpt lat="45.9397" lon="3.65165">
        <ele>840.05878</ele>
        <time>2017-02-23T12:17:16Z</time>
      </trkpt>
      <trkpt lat="45.93986" lon="3.65163">
        <ele>840.95944666667</ele>
        <time>2017-02-23T12:17:20Z</time>
      </trkpt>
      <trkpt lat="45.93995" lon="3.65162">
        <ele>841.15978666667</ele>
        <time>2017-02-23T12:17:26Z</time>
      </trkpt>
      <trkpt lat="45.94013" lon="3.65159">
        <ele>844.56050666667</ele>
        <time>2017-02-23T12:17:26Z</time>
      </trkpt>
      <trkpt lat="45.94023" lon="3.65156">
        <ele>845.36092666667</ele>
        <time>2017-02-23T12:17:39Z</time>
      </trkpt>
      <trkpt lat="45.94074" lon="3.65156">
        <ele>846.36296666667</ele>
        <time>2017-02-23T12:17:43Z</time>
      </trkpt>
      <trkpt lat="45.94087" lon="3.65151">
        <ele>847.26348666667</ele>
        <time>2017-02-23T12:17:47Z</time>
      </trkpt>
      <trkpt lat="45.94114" lon="3.65142">
        <ele>848.36457333333</ele>
        <time>2017-02-23T12:17:55Z</time>
      </trkpt>
      <trkpt lat="45.94129" lon="3.65136">
        <ele>847.66515333333</ele>
        <time>2017-02-23T12:18:00Z</time>
      </trkpt>
      <trkpt lat="45.94144" lon="3.65122">
        <ele>845.36575333333</ele>
        <time>2017-02-23T12:18:07Z</time>
      </trkpt>
      <trkpt lat="45.94165" lon="3.65098">
        <ele>846.26658666667</ele>
        <time>2017-02-23T12:18:07Z</time>
      </trkpt>
      <trkpt lat="45.94179" lon="3.65091">
        <ele>846.66715333333</ele>
        <time>2017-02-23T12:18:12Z</time>
      </trkpt>
      <trkpt lat="45.94191" lon="3.6508">
        <ele>845.76764666667</ele>
        <time>2017-02-23T12:18:16Z</time>
      </trkpt>
      <trkpt lat="45.94225" lon="3.65082">
        <ele>841.16901333333</ele>
        <time>2017-02-23T12:18:29Z</time>
      </trkpt>
      <trkpt lat="45.94234" lon="3.65084">
        <ele>841.16937333333</ele>
        <time>2017-02-23T12:18:42Z</time>
      </trkpt>
      <trkpt lat="45.9427" lon="3.65089">
        <ele>837.67080666667</ele>
        <time>2017-02-23T12:18:44Z</time>
      </trkpt>
      <trkpt lat="45.94294" lon="3.65087">
        <ele>835.17174666667</ele>
        <time>2017-02-23T12:18:51Z</time>
      </trkpt>
      <trkpt lat="45.94302" lon="3.65087">
        <ele>834.67208</ele>
        <time>2017-02-23T12:19:00Z</time>
      </trkpt>
      <trkpt lat="45.94347" lon="3.65074">
        <ele>829.37388</ele>
        <time>2017-02-23T12:19:04Z</time>
      </trkpt>
      <trkpt lat="45.9436" lon="3.65065">
        <ele>829.17440666667</ele>
        <time>2017-02-23T12:19:07Z</time>
      </trkpt>
      <trkpt lat="45.94375" lon="3.65052">
        <ele>828.07501333333</ele>
        <time>2017-02-23T12:19:12Z</time>
      </trkpt>
      <trkpt lat="45.94388" lon="3.65046">
        <ele>827.57552666667</ele>
        <time>2017-02-23T12:19:15Z</time>
      </trkpt>
      <trkpt lat="45.94391" lon="3.65044">
        <ele>827.37562666667</ele>
        <time>2017-02-23T12:19:28Z</time>
      </trkpt>
      <trkpt lat="45.94438" lon="3.64998">
        <ele>821.6775</ele>
        <time>2017-02-23T12:19:33Z</time>
      </trkpt>
      <trkpt lat="45.94442" lon="3.64991">
        <ele>820.87766</ele>
        <time>2017-02-23T12:19:40Z</time>
      </trkpt>
      <trkpt lat="45.94466" lon="3.64986">
        <ele>818.67862</ele>
        <time>2017-02-23T12:19:44Z</time>
      </trkpt>
      <trkpt lat="45.94473" lon="3.64981">
        <ele>816.07892666667</ele>
        <time>2017-02-23T12:20:00Z</time>
      </trkpt>
      <trkpt lat="45.94487" lon="3.64981">
        <ele>811.67949333333</ele>
        <time>2017-02-23T12:20:04Z</time>
      </trkpt>
      <trkpt lat="45.94491" lon="3.64983">
        <ele>810.87962</ele>
        <time>2017-02-23T12:20:06Z</time>
      </trkpt>
      <trkpt lat="45.94497" lon="3.64984">
        <ele>809.67988</ele>
        <time>2017-02-23T12:20:11Z</time>
      </trkpt>
      <trkpt lat="45.94504" lon="3.64987">
        <ele>808.08015333333</ele>
        <time>2017-02-23T12:20:15Z</time>
      </trkpt>
      <trkpt lat="45.9451" lon="3.64989">
        <ele>806.48041333333</ele>
        <time>2017-02-23T12:20:26Z</time>
      </trkpt>
      <trkpt lat="45.9453" lon="3.64996">
        <ele>802.28120666667</ele>
        <time>2017-02-23T12:20:30Z</time>
      </trkpt>
      <trkpt lat="45.94539" lon="3.64999">
        <ele>800.28154666667</ele>
        <time>2017-02-23T12:20:35Z</time>
      </trkpt>
      <trkpt lat="45.94546" lon="3.65001">
        <ele>798.38182666667</ele>
        <time>2017-02-23T12:20:42Z</time>
      </trkpt>
      <trkpt lat="45.94562" lon="3.65007">
        <ele>795.88248</ele>
        <time>2017-02-23T12:20:46Z</time>
      </trkpt>
      <trkpt lat="45.9458" lon="3.65013">
        <ele>794.48319333333</ele>
        <time>2017-02-23T12:20:59Z</time>
      </trkpt>
      <trkpt lat="45.9461" lon="3.65022">
        <ele>789.28438</ele>
        <time>2017-02-23T12:21:03Z</time>
      </trkpt>
      <trkpt lat="45.94618" lon="3.65029">
        <ele>788.68472</ele>
        <time>2017-02-23T12:21:09Z</time>
      </trkpt>
      <trkpt lat="45.94655" lon="3.65022">
        <ele>786.4862</ele>
        <time>2017-02-23T12:21:12Z</time>
      </trkpt>
      <trkpt lat="45.94667" lon="3.6502">
        <ele>785.58668666667</ele>
        <time>2017-02-23T12:21:15Z</time>
      </trkpt>
      <trkpt lat="45.94675" lon="3.6502">
        <ele>785.18698666667</ele>
        <time>2017-02-23T12:21:17Z</time>
      </trkpt>
      <trkpt lat="45.94696" lon="3.65006">
        <ele>784.38782666667</ele>
        <time>2017-02-23T12:21:26Z</time>
      </trkpt>
      <trkpt lat="45.94717" lon="3.64997">
        <ele>784.68869333333</ele>
        <time>2017-02-23T12:21:31Z</time>
      </trkpt>
      <trkpt lat="45.94719" lon="3.64989">
        <ele>783.88874</ele>
        <time>2017-02-23T12:21:34Z</time>
      </trkpt>
      <trkpt lat="45.94723" lon="3.64979">
        <ele>781.88890666667</ele>
        <time>2017-02-23T12:21:42Z</time>
      </trkpt>
      <trkpt lat="45.94722" lon="3.64968">
        <ele>780.88886666667</ele>
        <time>2017-02-23T12:21:46Z</time>
      </trkpt>
      <trkpt lat="45.94719" lon="3.64956">
        <ele>779.68877333333</ele>
        <time>2017-02-23T12:21:53Z</time>
      </trkpt>
      <trkpt lat="45.94716" lon="3.64949">
        <ele>779.48864666667</ele>
        <time>2017-02-23T12:21:57Z</time>
      </trkpt>
      <trkpt lat="45.94714" lon="3.64944">
        <ele>779.28856666667</ele>
        <time>2017-02-23T12:22:00Z</time>
      </trkpt>
      <trkpt lat="45.94701" lon="3.64917">
        <ele>778.78802</ele>
        <time>2017-02-23T12:22:09Z</time>
      </trkpt>
      <trkpt lat="45.94698" lon="3.64906">
        <ele>778.28791333333</ele>
        <time>2017-02-23T12:22:14Z</time>
      </trkpt>
      <trkpt lat="45.94695" lon="3.64898">
        <ele>777.98781333333</ele>
        <time>2017-02-23T12:22:18Z</time>
      </trkpt>
      <trkpt lat="45.94691" lon="3.64887">
        <ele>778.38763333333</ele>
        <time>2017-02-23T12:22:26Z</time>
      </trkpt>
      <trkpt lat="45.94687" lon="3.64875">
        <ele>778.48749333333</ele>
        <time>2017-02-23T12:22:33Z</time>
      </trkpt>
      <trkpt lat="45.94686" lon="3.64868">
        <ele>778.48745333333</ele>
        <time>2017-02-23T12:22:42Z</time>
      </trkpt>
      <trkpt lat="45.94684" lon="3.64859">
        <ele>778.08736</ele>
        <time>2017-02-23T12:22:47Z</time>
      </trkpt>
      <trkpt lat="45.94684" lon="3.64847">
        <ele>777.98734666667</ele>
        <time>2017-02-23T12:22:52Z</time>
      </trkpt>
      <trkpt lat="45.94685" lon="3.64836">
        <ele>778.18740666667</ele>
        <time>2017-02-23T12:22:58Z</time>
      </trkpt>
      <trkpt lat="45.94686" lon="3.64825">
        <ele>777.98742</ele>
        <time>2017-02-23T12:23:03Z</time>
      </trkpt>
      <trkpt lat="45.94688" lon="3.64821">
        <ele>778.48751333333</ele>
        <time>2017-02-23T12:23:29Z</time>
      </trkpt>
      <trkpt lat="45.94688" lon="3.64793">
        <ele>781.48752</ele>
        <time>2017-02-23T12:23:34Z</time>
      </trkpt>
      <trkpt lat="45.94692" lon="3.64782">
        <ele>782.18768</ele>
        <time>2017-02-23T12:23:43Z</time>
      </trkpt>
      <trkpt lat="45.94693" lon="3.64775">
        <ele>782.38772666667</ele>
        <time>2017-02-23T12:23:47Z</time>
      </trkpt>
      <trkpt lat="45.94696" lon="3.64764">
        <ele>782.18782</ele>
        <time>2017-02-23T12:24:00Z</time>
      </trkpt>
      <trkpt lat="45.94697" lon="3.64757">
        <ele>782.18786</ele>
        <time>2017-02-23T12:24:00Z</time>
      </trkpt>
      <trkpt lat="45.94698" lon="3.64743">
        <ele>781.98790666667</ele>
        <time>2017-02-23T12:24:09Z</time>
      </trkpt>
      <trkpt lat="45.947" lon="3.64731">
        <ele>781.68799333333</ele>
        <time>2017-02-23T12:24:18Z</time>
      </trkpt>
      <trkpt lat="45.94699" lon="3.6473">
        <ele>781.78795333333</ele>
        <time>2017-02-23T12:24:31Z</time>
      </trkpt>
      <trkpt lat="45.94693" lon="3.6472">
        <ele>782.08773333333</ele>
        <time>2017-02-23T12:24:31Z</time>
      </trkpt>
      <trkpt lat="45.94695" lon="3.64718">
        <ele>782.28778</ele>
        <time>2017-02-23T12:24:42Z</time>
      </trkpt>
      <trkpt lat="45.94706" lon="3.64595">
        <ele>787.58822666667</ele>
        <time>2017-02-23T12:24:46Z</time>
      </trkpt>
      <trkpt lat="45.94711" lon="3.64579">
        <ele>788.58844666667</ele>
        <time>2017-02-23T12:24:48Z</time>
      </trkpt>
      <trkpt lat="45.94715" lon="3.64573">
        <ele>788.88858</ele>
        <time>2017-02-23T12:25:00Z</time>
      </trkpt>
      <trkpt lat="45.94775" lon="3.6449">
        <ele>793.69100666667</ele>
        <time>2017-02-23T12:25:04Z</time>
      </trkpt>
      <trkpt lat="45.94791" lon="3.64498">
        <ele>794.89162</ele>
        <time>2017-02-23T12:25:09Z</time>
      </trkpt>
      <trkpt lat="45.94795" lon="3.64507">
        <ele>795.59178</ele>
        <time>2017-02-23T12:25:21Z</time>
      </trkpt>
      <trkpt lat="45.94776" lon="3.64415">
        <ele>792.49102666667</ele>
        <time>2017-02-23T12:25:25Z</time>
      </trkpt>
      <trkpt lat="45.94778" lon="3.64417">
        <ele>792.79111333333</ele>
        <time>2017-02-23T12:25:27Z</time>
      </trkpt>
      <trkpt lat="45.94795" lon="3.64448">
        <ele>793.09180666667</ele>
        <time>2017-02-23T12:25:40Z</time>
      </trkpt>
      <trkpt lat="45.94802" lon="3.64456">
        <ele>794.59206</ele>
        <time>2017-02-23T12:25:45Z</time>
      </trkpt>
      <trkpt lat="45.94807" lon="3.64465">
        <ele>796.19228</ele>
        <time>2017-02-23T12:25:50Z</time>
      </trkpt>
      <trkpt lat="45.94813" lon="3.64473">
        <ele>797.09252</ele>
        <time>2017-02-23T12:25:55Z</time>
      </trkpt>
      <trkpt lat="45.9482" lon="3.64481">
        <ele>797.4928</ele>
        <time>2017-02-23T12:26:00Z</time>
      </trkpt>
      <trkpt lat="45.94822" lon="3.64483">
        <ele>797.69288</ele>
        <time>2017-02-23T12:26:02Z</time>
      </trkpt>
      <trkpt lat="45.94828" lon="3.64491">
        <ele>797.79311333333</ele>
        <time>2017-02-23T12:26:06Z</time>
      </trkpt>
      <trkpt lat="45.94834" lon="3.645">
        <ele>798.49334</ele>
        <time>2017-02-23T12:26:12Z</time>
      </trkpt>
      <trkpt lat="45.94842" lon="3.64506">
        <ele>799.79368</ele>
        <time>2017-02-23T12:26:17Z</time>
      </trkpt>
      <trkpt lat="45.94846" lon="3.64511">
        <ele>799.89382666667</ele>
        <time>2017-02-23T12:26:22Z</time>
      </trkpt>
      <trkpt lat="45.94851" lon="3.64516">
        <ele>800.59404666667</ele>
        <time>2017-02-23T12:26:24Z</time>
      </trkpt>
      <trkpt lat="45.94854" lon="3.6452">
        <ele>800.79414</ele>
        <time>2017-02-23T12:26:27Z</time>
      </trkpt>
      <trkpt lat="45.94872" lon="3.64542">
        <ele>802.99486</ele>
        <time>2017-02-23T12:26:40Z</time>
      </trkpt>
      <trkpt lat="45.94878" lon="3.64551">
        <ele>804.29513333333</ele>
        <time>2017-02-23T12:26:44Z</time>
      </trkpt>
      <trkpt lat="45.94886" lon="3.64558">
        <ele>804.79544666667</ele>
        <time>2017-02-23T12:26:49Z</time>
      </trkpt>
      <trkpt lat="45.9489" lon="3.64562">
        <ele>804.8956</ele>
        <time>2017-02-23T12:27:00Z</time>
      </trkpt>
      <trkpt lat="45.94907" lon="3.64584">
        <ele>807.49626</ele>
        <time>2017-02-23T12:27:04Z</time>
      </trkpt>
      <trkpt lat="45.94909" lon="3.64587">
        <ele>807.69634</ele>
        <time>2017-02-23T12:27:12Z</time>
      </trkpt>
      <trkpt lat="45.94929" lon="3.64604">
        <ele>809.49716666667</ele>
        <time>2017-02-23T12:27:16Z</time>
      </trkpt>
      <trkpt lat="45.94946" lon="3.64615">
        <ele>810.79784</ele>
        <time>2017-02-23T12:27:22Z</time>
      </trkpt>
      <trkpt lat="45.94951" lon="3.64619">
        <ele>810.99802</ele>
        <time>2017-02-23T12:27:35Z</time>
      </trkpt>
      <trkpt lat="45.94969" lon="3.64636">
        <ele>811.89876666667</ele>
        <time>2017-02-23T12:27:35Z</time>
      </trkpt>
      <trkpt lat="45.94975" lon="3.6464">
        <ele>811.79899333333</ele>
        <time>2017-02-23T12:27:42Z</time>
      </trkpt>
      <trkpt lat="45.94998" lon="3.64653">
        <ele>812.69993333333</ele>
        <time>2017-02-23T12:27:47Z</time>
      </trkpt>
      <trkpt lat="45.95005" lon="3.64655">
        <ele>812.70018666667</ele>
        <time>2017-02-23T12:27:50Z</time>
      </trkpt>
      <trkpt lat="45.95039" lon="3.64661">
        <ele>813.50154666667</ele>
        <time>2017-02-23T12:28:00Z</time>
      </trkpt>
      <trkpt lat="45.95046" lon="3.64659">
        <ele>813.30182666667</ele>
        <time>2017-02-23T12:28:03Z</time>
      </trkpt>
      <trkpt lat="45.95048" lon="3.64659">
        <ele>813.10190666667</ele>
        <time>2017-02-23T12:28:08Z</time>
      </trkpt>
      <trkpt lat="45.95072" lon="3.64664">
        <ele>812.10289333333</ele>
        <time>2017-02-23T12:28:12Z</time>
      </trkpt>
      <trkpt lat="45.95081" lon="3.64666">
        <ele>810.40323333333</ele>
        <time>2017-02-23T12:28:23Z</time>
      </trkpt>
      <trkpt lat="45.95109" lon="3.64666">
        <ele>810.80435333333</ele>
        <time>2017-02-23T12:28:23Z</time>
      </trkpt>
      <trkpt lat="45.95114" lon="3.64667">
        <ele>810.10454666667</ele>
        <time>2017-02-23T12:28:36Z</time>
      </trkpt>
      <trkpt lat="45.9515" lon="3.64665">
        <ele>808.206</ele>
        <time>2017-02-23T12:28:36Z</time>
      </trkpt>
      <trkpt lat="45.95173" lon="3.64661">
        <ele>809.40692666667</ele>
        <time>2017-02-23T12:28:42Z</time>
      </trkpt>
      <trkpt lat="45.95189" lon="3.64659">
        <ele>809.40755333333</ele>
        <time>2017-02-23T12:28:45Z</time>
      </trkpt>
      <trkpt lat="45.95199" lon="3.64663">
        <ele>811.60794</ele>
        <time>2017-02-23T12:28:49Z</time>
      </trkpt>
      <trkpt lat="45.95208" lon="3.64668">
        <ele>812.40833333333</ele>
        <time>2017-02-23T12:28:51Z</time>
      </trkpt>
      <trkpt lat="45.95213" lon="3.64669">
        <ele>812.70852</ele>
        <time>2017-02-23T12:28:54Z</time>
      </trkpt>
      <trkpt lat="45.95222" lon="3.64667">
        <ele>813.30887333333</ele>
        <time>2017-02-23T12:29:00Z</time>
      </trkpt>
      <trkpt lat="45.95245" lon="3.64672">
        <ele>819.3098</ele>
        <time>2017-02-23T12:29:04Z</time>
      </trkpt>
      <trkpt lat="45.95251" lon="3.64675">
        <ele>819.81005333333</ele>
        <time>2017-02-23T12:29:09Z</time>
      </trkpt>
      <trkpt lat="45.95271" lon="3.64677">
        <ele>820.11082666667</ele>
        <time>2017-02-23T12:29:13Z</time>
      </trkpt>
      <trkpt lat="45.95284" lon="3.64677">
        <ele>820.51134</ele>
        <time>2017-02-23T12:29:18Z</time>
      </trkpt>
      <trkpt lat="45.95292" lon="3.64679">
        <ele>820.71167333333</ele>
        <time>2017-02-23T12:29:24Z</time>
      </trkpt>
      <trkpt lat="45.95296" lon="3.64685">
        <ele>821.91185333333</ele>
        <time>2017-02-23T12:29:29Z</time>
      </trkpt>
      <trkpt lat="45.95304" lon="3.64691">
        <ele>823.51216666667</ele>
        <time>2017-02-23T12:29:34Z</time>
      </trkpt>
      <trkpt lat="45.9531" lon="3.64695">
        <ele>824.61240666667</ele>
        <time>2017-02-23T12:29:39Z</time>
      </trkpt>
      <trkpt lat="45.95317" lon="3.64702">
        <ele>826.41266</ele>
        <time>2017-02-23T12:29:44Z</time>
      </trkpt>
      <trkpt lat="45.95323" lon="3.64709">
        <ele>827.61292</ele>
        <time>2017-02-23T12:29:51Z</time>
      </trkpt>
      <trkpt lat="45.95331" lon="3.64716">
        <ele>828.31322666667</ele>
        <time>2017-02-23T12:29:57Z</time>
      </trkpt>
      <trkpt lat="45.95338" lon="3.6472">
        <ele>828.81352</ele>
        <time>2017-02-23T12:30:03Z</time>
      </trkpt>
      <trkpt lat="45.95346" lon="3.64725">
        <ele>829.41382</ele>
        <time>2017-02-23T12:30:12Z</time>
      </trkpt>
      <trkpt lat="45.95357" lon="3.64732">
        <ele>829.81427333333</ele>
        <time>2017-02-23T12:30:14Z</time>
      </trkpt>
      <trkpt lat="45.95359" lon="3.64734">
        <ele>829.91436666667</ele>
        <time>2017-02-23T12:30:21Z</time>
      </trkpt>
      <trkpt lat="45.95365" lon="3.64737">
        <ele>830.5146</ele>
        <time>2017-02-23T12:30:21Z</time>
      </trkpt>
      <trkpt lat="45.95379" lon="3.64748">
        <ele>832.31516</ele>
        <time>2017-02-23T12:30:34Z</time>
      </trkpt>
      <trkpt lat="45.95391" lon="3.64754">
        <ele>834.81564666667</ele>
        <time>2017-02-23T12:30:42Z</time>
      </trkpt>
      <trkpt lat="45.95399" lon="3.64759">
        <ele>836.21596</ele>
        <time>2017-02-23T12:30:49Z</time>
      </trkpt>
      <trkpt lat="45.95403" lon="3.64761">
        <ele>836.91611333333</ele>
        <time>2017-02-23T12:30:59Z</time>
      </trkpt>
      <trkpt lat="45.95411" lon="3.64767">
        <ele>837.51643333333</ele>
        <time>2017-02-23T12:30:59Z</time>
      </trkpt>
      <trkpt lat="45.95414" lon="3.6477">
        <ele>838.31656</ele>
        <time>2017-02-23T12:31:12Z</time>
      </trkpt>
      <trkpt lat="45.95428" lon="3.64784">
        <ele>841.61713333333</ele>
        <time>2017-02-23T12:31:14Z</time>
      </trkpt>
      <trkpt lat="45.9543" lon="3.64785">
        <ele>841.71718666667</ele>
        <time>2017-02-23T12:31:21Z</time>
      </trkpt>
      <trkpt lat="45.95436" lon="3.64794">
        <ele>842.61745333333</ele>
        <time>2017-02-23T12:31:21Z</time>
      </trkpt>
      <trkpt lat="45.95437" lon="3.64795">
        <ele>842.71746666667</ele>
        <time>2017-02-23T12:31:34Z</time>
      </trkpt>
      <trkpt lat="45.95445" lon="3.64806">
        <ele>844.11778</ele>
        <time>2017-02-23T12:31:34Z</time>
      </trkpt>
      <trkpt lat="45.95451" lon="3.64812">
        <ele>845.21804666667</ele>
        <time>2017-02-23T12:31:44Z</time>
      </trkpt>
      <trkpt lat="45.95458" lon="3.64817">
        <ele>845.81832666667</ele>
        <time>2017-02-23T12:31:50Z</time>
      </trkpt>
      <trkpt lat="45.95466" lon="3.6482">
        <ele>846.81865333333</ele>
        <time>2017-02-23T12:31:55Z</time>
      </trkpt>
      <trkpt lat="45.95474" lon="3.64825">
        <ele>848.21894</ele>
        <time>2017-02-23T12:32:09Z</time>
      </trkpt>
      <trkpt lat="45.95478" lon="3.64831">
        <ele>849.01912666667</ele>
        <time>2017-02-23T12:32:13Z</time>
      </trkpt>
      <trkpt lat="45.95481" lon="3.64835">
        <ele>849.31923333333</ele>
        <time>2017-02-23T12:32:18Z</time>
      </trkpt>
      <trkpt lat="45.95499" lon="3.64851">
        <ele>851.61994</ele>
        <time>2017-02-23T12:32:31Z</time>
      </trkpt>
      <trkpt lat="45.95516" lon="3.64863">
        <ele>855.22064666667</ele>
        <time>2017-02-23T12:32:44Z</time>
      </trkpt>
      <trkpt lat="45.95523" lon="3.64865">
        <ele>856.42093333333</ele>
        <time>2017-02-23T12:32:50Z</time>
      </trkpt>
      <trkpt lat="45.95531" lon="3.64869">
        <ele>857.62122</ele>
        <time>2017-02-23T12:32:55Z</time>
      </trkpt>
      <trkpt lat="45.95537" lon="3.64876">
        <ele>858.62148666667</ele>
        <time>2017-02-23T12:33:03Z</time>
      </trkpt>
      <trkpt lat="45.95544" lon="3.64883">
        <ele>859.62177333333</ele>
        <time>2017-02-23T12:33:08Z</time>
      </trkpt>
      <trkpt lat="45.95551" lon="3.64889">
        <ele>860.52202666667</ele>
        <time>2017-02-23T12:33:13Z</time>
      </trkpt>
      <trkpt lat="45.95557" lon="3.64896">
        <ele>861.82226</ele>
        <time>2017-02-23T12:33:20Z</time>
      </trkpt>
      <trkpt lat="45.95565" lon="3.64901">
        <ele>862.62258</ele>
        <time>2017-02-23T12:33:26Z</time>
      </trkpt>
      <trkpt lat="45.95571" lon="3.64908">
        <ele>862.82283333333</ele>
        <time>2017-02-23T12:33:31Z</time>
      </trkpt>
      <trkpt lat="45.95575" lon="3.64913">
        <ele>863.22299333333</ele>
        <time>2017-02-23T12:33:35Z</time>
      </trkpt>
      <trkpt lat="45.95579" lon="3.64915">
        <ele>863.52316666667</ele>
        <time>2017-02-23T12:33:37Z</time>
      </trkpt>
      <trkpt lat="45.95586" lon="3.64919">
        <ele>864.42344666667</ele>
        <time>2017-02-23T12:33:43Z</time>
      </trkpt>
      <trkpt lat="45.95595" lon="3.64924">
        <ele>865.02381333333</ele>
        <time>2017-02-23T12:33:46Z</time>
      </trkpt>
      <trkpt lat="45.95602" lon="3.64928">
        <ele>865.62409333333</ele>
        <time>2017-02-23T12:33:53Z</time>
      </trkpt>
      <trkpt lat="45.95609" lon="3.64934">
        <ele>866.12435333333</ele>
        <time>2017-02-23T12:33:58Z</time>
      </trkpt>
      <trkpt lat="45.95613" lon="3.64937">
        <ele>866.4245</ele>
        <time>2017-02-23T12:34:04Z</time>
      </trkpt>
      <trkpt lat="45.9562" lon="3.6494">
        <ele>866.82478</ele>
        <time>2017-02-23T12:34:04Z</time>
      </trkpt>
      <trkpt lat="45.95623" lon="3.64944">
        <ele>866.92490666667</ele>
        <time>2017-02-23T12:34:13Z</time>
      </trkpt>
      <trkpt lat="45.95631" lon="3.64961">
        <ele>867.92524</ele>
        <time>2017-02-23T12:34:17Z</time>
      </trkpt>
      <trkpt lat="45.95637" lon="3.64968">
        <ele>868.52548666667</ele>
        <time>2017-02-23T12:34:21Z</time>
      </trkpt>
      <trkpt lat="45.95641" lon="3.64976">
        <ele>869.22562666667</ele>
        <time>2017-02-23T12:34:27Z</time>
      </trkpt>
      <trkpt lat="45.95648" lon="3.64981">
        <ele>870.02592</ele>
        <time>2017-02-23T12:34:33Z</time>
      </trkpt>
      <trkpt lat="45.95655" lon="3.64987">
        <ele>870.72620666667</ele>
        <time>2017-02-23T12:34:40Z</time>
      </trkpt>
      <trkpt lat="45.95664" lon="3.64993">
        <ele>871.42656</ele>
        <time>2017-02-23T12:34:48Z</time>
      </trkpt>
      <trkpt lat="45.95669" lon="3.65002">
        <ele>872.02677333333</ele>
        <time>2017-02-23T12:34:54Z</time>
      </trkpt>
      <trkpt lat="45.95675" lon="3.65006">
        <ele>872.52698666667</ele>
        <time>2017-02-23T12:34:59Z</time>
      </trkpt>
      <trkpt lat="45.95683" lon="3.6501">
        <ele>872.82732</ele>
        <time>2017-02-23T12:35:05Z</time>
      </trkpt>
      <trkpt lat="45.9569" lon="3.65014">
        <ele>872.92758666667</ele>
        <time>2017-02-23T12:35:09Z</time>
      </trkpt>
      <trkpt lat="45.95703" lon="3.65018">
        <ele>873.02811333333</ele>
        <time>2017-02-23T12:35:13Z</time>
      </trkpt>
      <trkpt lat="45.95719" lon="3.65026">
        <ele>872.82876666667</ele>
        <time>2017-02-23T12:35:17Z</time>
      </trkpt>
      <trkpt lat="45.95739" lon="3.65034">
        <ele>873.62954</ele>
        <time>2017-02-23T12:35:21Z</time>
      </trkpt>
      <trkpt lat="45.95752" lon="3.6504">
        <ele>873.83006</ele>
        <time>2017-02-23T12:35:25Z</time>
      </trkpt>
      <trkpt lat="45.95762" lon="3.65047">
        <ele>873.93047333333</ele>
        <time>2017-02-23T12:35:29Z</time>
      </trkpt>
      <trkpt lat="45.95769" lon="3.65046">
        <ele>874.13074</ele>
        <time>2017-02-23T12:35:33Z</time>
      </trkpt>
      <trkpt lat="45.95778" lon="3.65046">
        <ele>874.53111333333</ele>
        <time>2017-02-23T12:35:37Z</time>
      </trkpt>
      <trkpt lat="45.9579" lon="3.6505">
        <ele>874.73158</ele>
        <time>2017-02-23T12:35:42Z</time>
      </trkpt>
      <trkpt lat="45.95803" lon="3.65054">
        <ele>875.03212666667</ele>
        <time>2017-02-23T12:35:46Z</time>
      </trkpt>
      <trkpt lat="45.9581" lon="3.65061">
        <ele>876.03239333333</ele>
        <time>2017-02-23T12:35:51Z</time>
      </trkpt>
      <trkpt lat="45.95815" lon="3.65064">
        <ele>876.43260666667</ele>
        <time>2017-02-23T12:35:54Z</time>
      </trkpt>
      <trkpt lat="45.95824" lon="3.65071">
        <ele>876.93297333333</ele>
        <time>2017-02-23T12:36:00Z</time>
      </trkpt>
      <trkpt lat="45.95832" lon="3.65078">
        <ele>877.73326666667</ele>
        <time>2017-02-23T12:36:08Z</time>
      </trkpt>
      <trkpt lat="45.95833" lon="3.65082">
        <ele>878.03330666667</ele>
        <time>2017-02-23T12:36:18Z</time>
      </trkpt>
      <trkpt lat="45.9584" lon="3.65095">
        <ele>879.03360666667</ele>
        <time>2017-02-23T12:36:22Z</time>
      </trkpt>
      <trkpt lat="45.95846" lon="3.651">
        <ele>879.73383333333</ele>
        <time>2017-02-23T12:36:28Z</time>
      </trkpt>
      <trkpt lat="45.95851" lon="3.65109">
        <ele>879.83404</ele>
        <time>2017-02-23T12:36:34Z</time>
      </trkpt>
      <trkpt lat="45.95854" lon="3.65117">
        <ele>880.03416666667</ele>
        <time>2017-02-23T12:36:39Z</time>
      </trkpt>
      <trkpt lat="45.95862" lon="3.65135">
        <ele>880.63448</ele>
        <time>2017-02-23T12:36:50Z</time>
      </trkpt>
      <trkpt lat="45.95863" lon="3.65138">
        <ele>880.7345</ele>
        <time>2017-02-23T12:36:52Z</time>
      </trkpt>
      <trkpt lat="45.95869" lon="3.65147">
        <ele>880.93476666667</ele>
        <time>2017-02-23T12:36:59Z</time>
      </trkpt>
      <trkpt lat="45.95883" lon="3.65164">
        <ele>881.13531333333</ele>
        <time>2017-02-23T12:37:12Z</time>
      </trkpt>
      <trkpt lat="45.95901" lon="3.65176">
        <ele>881.63604666667</ele>
        <time>2017-02-23T12:37:25Z</time>
      </trkpt>
      <trkpt lat="45.95912" lon="3.65187">
        <ele>882.33648</ele>
        <time>2017-02-23T12:37:38Z</time>
      </trkpt>
      <trkpt lat="45.9592" lon="3.65193">
        <ele>882.63678</ele>
        <time>2017-02-23T12:37:43Z</time>
      </trkpt>
      <trkpt lat="45.9592" lon="3.65196">
        <ele>882.63681333333</ele>
        <time>2017-02-23T12:37:45Z</time>
      </trkpt>
      <trkpt lat="45.95931" lon="3.65206">
        <ele>882.83724666667</ele>
        <time>2017-02-23T12:37:55Z</time>
      </trkpt>
      <trkpt lat="45.95938" lon="3.6521">
        <ele>882.93752666667</ele>
        <time>2017-02-23T12:38:00Z</time>
      </trkpt>
      <trkpt lat="45.95949" lon="3.65219">
        <ele>883.43796666667</ele>
        <time>2017-02-23T12:38:08Z</time>
      </trkpt>
      <trkpt lat="45.95955" lon="3.65223">
        <ele>884.13818</ele>
        <time>2017-02-23T12:38:14Z</time>
      </trkpt>
      <trkpt lat="45.95963" lon="3.65227">
        <ele>884.93851333333</ele>
        <time>2017-02-23T12:38:17Z</time>
      </trkpt>
      <trkpt lat="45.95974" lon="3.65232">
        <ele>886.23896</ele>
        <time>2017-02-23T12:38:28Z</time>
      </trkpt>
      <trkpt lat="45.95991" lon="3.65235">
        <ele>889.23963333333</ele>
        <time>2017-02-23T12:38:38Z</time>
      </trkpt>
      <trkpt lat="45.95999" lon="3.65238">
        <ele>890.73995333333</ele>
        <time>2017-02-23T12:38:51Z</time>
      </trkpt>
      <trkpt lat="45.95999" lon="3.65248">
        <ele>893.23995333333</ele>
        <time>2017-02-23T12:39:00Z</time>
      </trkpt>
      <trkpt lat="45.96006" lon="3.65254">
        <ele>895.64024666667</ele>
        <time>2017-02-23T12:39:10Z</time>
      </trkpt>
      <trkpt lat="45.96027" lon="3.65258">
        <ele>901.04106666667</ele>
        <time>2017-02-23T12:39:23Z</time>
      </trkpt>
      <trkpt lat="45.96048" lon="3.65269">
        <ele>904.44193333333</ele>
        <time>2017-02-23T12:39:36Z</time>
      </trkpt>
      <trkpt lat="45.96056" lon="3.65275">
        <ele>905.44222666667</ele>
        <time>2017-02-23T12:39:43Z</time>
      </trkpt>
      <trkpt lat="45.96062" lon="3.65279">
        <ele>906.04248666667</ele>
        <time>2017-02-23T12:39:51Z</time>
      </trkpt>
      <trkpt lat="45.96069" lon="3.65282">
        <ele>906.54276666667</ele>
        <time>2017-02-23T12:39:55Z</time>
      </trkpt>
      <trkpt lat="45.96076" lon="3.65286">
        <ele>906.74302666667</ele>
        <time>2017-02-23T12:40:01Z</time>
      </trkpt>
      <trkpt lat="45.96085" lon="3.6529">
        <ele>906.8434</ele>
        <time>2017-02-23T12:40:05Z</time>
      </trkpt>
      <trkpt lat="45.96093" lon="3.65297">
        <ele>907.2437</ele>
        <time>2017-02-23T12:40:11Z</time>
      </trkpt>
      <trkpt lat="45.96098" lon="3.653">
        <ele>907.24392</ele>
        <time>2017-02-23T12:40:27Z</time>
      </trkpt>
      <trkpt lat="45.96111" lon="3.65309">
        <ele>907.84443333333</ele>
        <time>2017-02-23T12:40:27Z</time>
      </trkpt>
      <trkpt lat="45.96112" lon="3.65312">
        <ele>908.04447333333</ele>
        <time>2017-02-23T12:40:40Z</time>
      </trkpt>
      <trkpt lat="45.96117" lon="3.65325">
        <ele>908.84467333333</ele>
        <time>2017-02-23T12:40:40Z</time>
      </trkpt>
      <trkpt lat="45.96124" lon="3.65332">
        <ele>909.44494666667</ele>
        <time>2017-02-23T12:40:49Z</time>
      </trkpt>
      <trkpt lat="45.96119" lon="3.65341">
        <ele>909.34476666667</ele>
        <time>2017-02-23T12:41:00Z</time>
      </trkpt>
      <trkpt lat="45.96113" lon="3.65348">
        <ele>909.24450666667</ele>
        <time>2017-02-23T12:41:07Z</time>
      </trkpt>
      <trkpt lat="45.96108" lon="3.65357">
        <ele>909.34433333333</ele>
        <time>2017-02-23T12:41:29Z</time>
      </trkpt>
      <trkpt lat="45.961" lon="3.65384">
        <ele>909.64400666667</ele>
        <time>2017-02-23T12:41:29Z</time>
      </trkpt>
      <trkpt lat="45.96099" lon="3.65386">
        <ele>909.74396666667</ele>
        <time>2017-02-23T12:41:39Z</time>
      </trkpt>
      <trkpt lat="45.96092" lon="3.65408">
        <ele>910.14366666667</ele>
        <time>2017-02-23T12:41:41Z</time>
      </trkpt>
      <trkpt lat="45.96091" lon="3.65409">
        <ele>910.14365333333</ele>
        <time>2017-02-23T12:41:52Z</time>
      </trkpt>
      <trkpt lat="45.96086" lon="3.6543">
        <ele>910.44342666667</ele>
        <time>2017-02-23T12:41:52Z</time>
      </trkpt>
      <trkpt lat="45.96085" lon="3.65432">
        <ele>910.54340666667</ele>
        <time>2017-02-23T12:42:00Z</time>
      </trkpt>
      <trkpt lat="45.96078" lon="3.65452">
        <ele>911.04312</ele>
        <time>2017-02-23T12:42:04Z</time>
      </trkpt>
      <trkpt lat="45.96075" lon="3.65463">
        <ele>911.543</ele>
        <time>2017-02-23T12:42:09Z</time>
      </trkpt>
      <trkpt lat="45.96071" lon="3.65474">
        <ele>912.04284</ele>
        <time>2017-02-23T12:42:12Z</time>
      </trkpt>
      <trkpt lat="45.96066" lon="3.65484">
        <ele>912.74262</ele>
        <time>2017-02-23T12:42:19Z</time>
      </trkpt>
      <trkpt lat="45.96063" lon="3.65486">
        <ele>912.9425</ele>
        <time>2017-02-23T12:42:32Z</time>
      </trkpt>
      <trkpt lat="45.96053" lon="3.65497">
        <ele>914.54212</ele>
        <time>2017-02-23T12:42:36Z</time>
      </trkpt>
      <trkpt lat="45.96054" lon="3.65508">
        <ele>917.64214666667</ele>
        <time>2017-02-23T12:42:52Z</time>
      </trkpt>
      <trkpt lat="45.96052" lon="3.65515">
        <ele>920.14207333333</ele>
        <time>2017-02-23T12:43:00Z</time>
      </trkpt>
      <trkpt lat="45.96043" lon="3.6552">
        <ele>921.14173333333</ele>
        <time>2017-02-23T12:43:05Z</time>
      </trkpt>
      <trkpt lat="45.96036" lon="3.65518">
        <ele>921.94144</ele>
        <time>2017-02-23T12:43:09Z</time>
      </trkpt>
      <trkpt lat="45.96032" lon="3.65512">
        <ele>922.64128666667</ele>
        <time>2017-02-23T12:43:13Z</time>
      </trkpt>
      <trkpt lat="45.96025" lon="3.65511">
        <ele>923.94101333333</ele>
        <time>2017-02-23T12:43:20Z</time>
      </trkpt>
      <trkpt lat="45.96013" lon="3.6551">
        <ele>925.34051333333</ele>
        <time>2017-02-23T12:43:25Z</time>
      </trkpt>
      <trkpt lat="45.96006" lon="3.65511">
        <ele>925.84024</ele>
        <time>2017-02-23T12:43:31Z</time>
      </trkpt>
      <trkpt lat="45.95999" lon="3.65516">
        <ele>927.13994666667</ele>
        <time>2017-02-23T12:43:39Z</time>
      </trkpt>
      <trkpt lat="45.9599" lon="3.65519">
        <ele>927.6396</ele>
        <time>2017-02-23T12:43:45Z</time>
      </trkpt>
      <trkpt lat="45.95984" lon="3.65521">
        <ele>927.93936</ele>
        <time>2017-02-23T12:43:56Z</time>
      </trkpt>
      <trkpt lat="45.95966" lon="3.6552">
        <ele>929.53862</ele>
        <time>2017-02-23T12:44:01Z</time>
      </trkpt>
      <trkpt lat="45.95958" lon="3.65519">
        <ele>930.73832666667</ele>
        <time>2017-02-23T12:44:07Z</time>
      </trkpt>
      <trkpt lat="45.95953" lon="3.65522">
        <ele>931.43811333333</ele>
        <time>2017-02-23T12:44:10Z</time>
      </trkpt>
      <trkpt lat="45.95944" lon="3.65524">
        <ele>932.33777333333</ele>
        <time>2017-02-23T12:44:20Z</time>
      </trkpt>
      <trkpt lat="45.95937" lon="3.65527">
        <ele>933.33748666667</ele>
        <time>2017-02-23T12:44:23Z</time>
      </trkpt>
      <trkpt lat="45.95931" lon="3.65531">
        <ele>935.03724</ele>
        <time>2017-02-23T12:44:29Z</time>
      </trkpt>
      <trkpt lat="45.95926" lon="3.65538">
        <ele>937.23702666667</ele>
        <time>2017-02-23T12:44:34Z</time>
      </trkpt>
      <trkpt lat="45.95922" lon="3.65542">
        <ele>937.93688666667</ele>
        <time>2017-02-23T12:44:39Z</time>
      </trkpt>
      <trkpt lat="45.95912" lon="3.65556">
        <ele>939.23646</ele>
        <time>2017-02-23T12:44:44Z</time>
      </trkpt>
      <trkpt lat="45.9591" lon="3.65558">
        <ele>939.33639333333</ele>
        <time>2017-02-23T12:44:53Z</time>
      </trkpt>
      <trkpt lat="45.95897" lon="3.65572">
        <ele>942.03587333333</ele>
        <time>2017-02-23T12:44:54Z</time>
      </trkpt>
      <trkpt lat="45.95888" lon="3.65582">
        <ele>943.53550666667</ele>
        <time>2017-02-23T12:45:00Z</time>
      </trkpt>
      <trkpt lat="45.95881" lon="3.6559">
        <ele>945.03524666667</ele>
        <time>2017-02-23T12:45:04Z</time>
      </trkpt>
      <trkpt lat="45.95877" lon="3.65597">
        <ele>945.93506</ele>
        <time>2017-02-23T12:45:07Z</time>
      </trkpt>
      <trkpt lat="45.9587" lon="3.65602">
        <ele>947.53478</ele>
        <time>2017-02-23T12:45:13Z</time>
      </trkpt>
      <trkpt lat="45.95866" lon="3.65608">
        <ele>948.43462666667</ele>
        <time>2017-02-23T12:45:15Z</time>
      </trkpt>
      <trkpt lat="45.95859" lon="3.65613">
        <ele>949.13436666667</ele>
        <time>2017-02-23T12:45:23Z</time>
      </trkpt>
      <trkpt lat="45.95852" lon="3.65616">
        <ele>950.53409333333</ele>
        <time>2017-02-23T12:45:23Z</time>
      </trkpt>
      <trkpt lat="45.95827" lon="3.6563">
        <ele>953.83309333333</ele>
        <time>2017-02-23T12:45:36Z</time>
      </trkpt>
      <trkpt lat="45.95819" lon="3.6563">
        <ele>954.83274666667</ele>
        <time>2017-02-23T12:45:41Z</time>
      </trkpt>
      <trkpt lat="45.95811" lon="3.65629">
        <ele>955.83242</ele>
        <time>2017-02-23T12:45:46Z</time>
      </trkpt>
      <trkpt lat="45.95804" lon="3.65634">
        <ele>957.03214666667</ele>
        <time>2017-02-23T12:45:49Z</time>
      </trkpt>
      <trkpt lat="45.95799" lon="3.65635">
        <ele>957.83195333333</ele>
        <time>2017-02-23T12:46:00Z</time>
      </trkpt>
      <trkpt lat="45.95786" lon="3.65644">
        <ele>960.23145333333</ele>
        <time>2017-02-23T12:46:00Z</time>
      </trkpt>
      <trkpt lat="45.9578" lon="3.65648">
        <ele>961.83120666667</ele>
        <time>2017-02-23T12:46:06Z</time>
      </trkpt>
      <trkpt lat="45.95775" lon="3.65656">
        <ele>963.33098666667</ele>
        <time>2017-02-23T12:46:11Z</time>
      </trkpt>
      <trkpt lat="45.95768" lon="3.65661">
        <ele>964.33070666667</ele>
        <time>2017-02-23T12:46:15Z</time>
      </trkpt>
      <trkpt lat="45.95763" lon="3.65665">
        <ele>964.63051333333</ele>
        <time>2017-02-23T12:46:21Z</time>
      </trkpt>
      <trkpt lat="45.95754" lon="3.65669">
        <ele>966.03016666667</ele>
        <time>2017-02-23T12:46:25Z</time>
      </trkpt>
      <trkpt lat="45.95745" lon="3.65668">
        <ele>968.12978</ele>
        <time>2017-02-23T12:46:30Z</time>
      </trkpt>
      <trkpt lat="45.95738" lon="3.65673">
        <ele>969.92951333333</ele>
        <time>2017-02-23T12:46:35Z</time>
      </trkpt>
      <trkpt lat="45.95732" lon="3.65676">
        <ele>971.52929333333</ele>
        <time>2017-02-23T12:46:39Z</time>
      </trkpt>
      <trkpt lat="45.95725" lon="3.65682">
        <ele>973.62901333333</ele>
        <time>2017-02-23T12:46:45Z</time>
      </trkpt>
      <trkpt lat="45.95724" lon="3.65682">
        <ele>974.02896</ele>
        <time>2017-02-23T12:46:45Z</time>
      </trkpt>
      <trkpt lat="45.95716" lon="3.65688">
        <ele>975.72863333333</ele>
        <time>2017-02-23T12:46:51Z</time>
      </trkpt>
      <trkpt lat="45.95709" lon="3.65696">
        <ele>978.22835333333</ele>
        <time>2017-02-23T12:46:59Z</time>
      </trkpt>
      <trkpt lat="45.95704" lon="3.657">
        <ele>979.12816666667</ele>
        <time>2017-02-23T12:47:03Z</time>
      </trkpt>
      <trkpt lat="45.95698" lon="3.65705">
        <ele>980.82790666667</ele>
        <time>2017-02-23T12:47:07Z</time>
      </trkpt>
      <trkpt lat="45.95692" lon="3.65712">
        <ele>982.92766</ele>
        <time>2017-02-23T12:47:12Z</time>
      </trkpt>
      <trkpt lat="45.95687" lon="3.65718">
        <ele>983.72746666667</ele>
        <time>2017-02-23T12:47:17Z</time>
      </trkpt>
      <trkpt lat="45.95673" lon="3.65729">
        <ele>986.42690666667</ele>
        <time>2017-02-23T12:47:21Z</time>
      </trkpt>
      <trkpt lat="45.95667" lon="3.65734">
        <ele>987.02667333333</ele>
        <time>2017-02-23T12:47:24Z</time>
      </trkpt>
      <trkpt lat="45.95658" lon="3.65748">
        <ele>988.22630666667</ele>
        <time>2017-02-23T12:47:28Z</time>
      </trkpt>
      <trkpt lat="45.95651" lon="3.65757">
        <ele>988.82603333333</ele>
        <time>2017-02-23T12:47:33Z</time>
      </trkpt>
      <trkpt lat="45.95643" lon="3.65767">
        <ele>989.52572</ele>
        <time>2017-02-23T12:47:36Z</time>
      </trkpt>
      <trkpt lat="45.95637" lon="3.65778">
        <ele>990.12547333333</ele>
        <time>2017-02-23T12:47:40Z</time>
      </trkpt>
      <trkpt lat="45.95635" lon="3.65786">
        <ele>990.62540666667</ele>
        <time>2017-02-23T12:47:45Z</time>
      </trkpt>
      <trkpt lat="45.95633" lon="3.65795">
        <ele>991.32530666667</ele>
        <time>2017-02-23T12:47:49Z</time>
      </trkpt>
      <trkpt lat="45.95629" lon="3.65809">
        <ele>992.22515333333</ele>
        <time>2017-02-23T12:47:53Z</time>
      </trkpt>
      <trkpt lat="45.95628" lon="3.6582">
        <ele>993.82512</ele>
        <time>2017-02-23T12:47:59Z</time>
      </trkpt>
      <trkpt lat="45.95626" lon="3.65829">
        <ele>994.42505333333</ele>
        <time>2017-02-23T12:48:03Z</time>
      </trkpt>
      <trkpt lat="45.95619" lon="3.65844">
        <ele>995.62476</ele>
        <time>2017-02-23T12:48:06Z</time>
      </trkpt>
      <trkpt lat="45.95617" lon="3.6586">
        <ele>996.72466</ele>
        <time>2017-02-23T12:48:10Z</time>
      </trkpt>
      <trkpt lat="45.95614" lon="3.65876">
        <ele>997.42456666667</ele>
        <time>2017-02-23T12:48:14Z</time>
      </trkpt>
      <trkpt lat="45.95614" lon="3.65884">
        <ele>997.52454666667</ele>
        <time>2017-02-23T12:48:16Z</time>
      </trkpt>
      <trkpt lat="45.95604" lon="3.65958">
        <ele>999.52416666667</ele>
        <time>2017-02-23T12:48:31Z</time>
      </trkpt>
      <trkpt lat="45.95615" lon="3.66">
        <ele>1000.7245866667</ele>
        <time>2017-02-23T12:48:39Z</time>
      </trkpt>
      <trkpt lat="45.95611" lon="3.66024">
        <ele>1001.8244533333</ele>
        <time>2017-02-23T12:48:44Z</time>
      </trkpt>
      <trkpt lat="45.95606" lon="3.66049">
        <ele>1002.5242533333</ele>
        <time>2017-02-23T12:48:49Z</time>
      </trkpt>
      <trkpt lat="45.95607" lon="3.66061">
        <ele>1003.5242933333</ele>
        <time>2017-02-23T12:48:52Z</time>
      </trkpt>
      <trkpt lat="45.95614" lon="3.66086">
        <ele>1005.3245466667</ele>
        <time>2017-02-23T12:49:00Z</time>
      </trkpt>
      <trkpt lat="45.95615" lon="3.66102">
        <ele>1006.1245933333</ele>
        <time>2017-02-23T12:49:04Z</time>
      </trkpt>
      <trkpt lat="45.95615" lon="3.66107">
        <ele>1006.32458</ele>
        <time>2017-02-23T12:49:09Z</time>
      </trkpt>
      <trkpt lat="45.95611" lon="3.66147">
        <ele>1006.1244266667</ele>
        <time>2017-02-23T12:49:12Z</time>
      </trkpt>
      <trkpt lat="45.9561" lon="3.66162">
        <ele>1006.8244066667</ele>
        <time>2017-02-23T12:49:15Z</time>
      </trkpt>
      <trkpt lat="45.95611" lon="3.66179">
        <ele>1006.52444</ele>
        <time>2017-02-23T12:49:18Z</time>
      </trkpt>
      <trkpt lat="45.95611" lon="3.6619">
        <ele>1006.3244533333</ele>
        <time>2017-02-23T12:49:20Z</time>
      </trkpt>
      <trkpt lat="45.95612" lon="3.66199">
        <ele>1006.82446</ele>
        <time>2017-02-23T12:49:28Z</time>
      </trkpt>
      <trkpt lat="45.95617" lon="3.66217">
        <ele>1007.2246733333</ele>
        <time>2017-02-23T12:49:28Z</time>
      </trkpt>
      <trkpt lat="45.95617" lon="3.66237">
        <ele>1007.1246933333</ele>
        <time>2017-02-23T12:49:39Z</time>
      </trkpt>
      <trkpt lat="45.95629" lon="3.66255">
        <ele>1006.1251733333</ele>
        <time>2017-02-23T12:49:44Z</time>
      </trkpt>
      <trkpt lat="45.95642" lon="3.66261">
        <ele>1005.02568</ele>
        <time>2017-02-23T12:49:49Z</time>
      </trkpt>
      <trkpt lat="45.95651" lon="3.66264">
        <ele>1004.8260466667</ele>
        <time>2017-02-23T12:49:52Z</time>
      </trkpt>
      <trkpt lat="45.95663" lon="3.66267">
        <ele>1005.5265</ele>
        <time>2017-02-23T12:49:56Z</time>
      </trkpt>
      <trkpt lat="45.95673" lon="3.66271">
        <ele>1005.7269133333</ele>
        <time>2017-02-23T12:50:00Z</time>
      </trkpt>
      <trkpt lat="45.95701" lon="3.66292">
        <ele>1005.2280266667</ele>
        <time>2017-02-23T12:50:09Z</time>
      </trkpt>
      <trkpt lat="45.95709" lon="3.66313">
        <ele>1005.22834</ele>
        <time>2017-02-23T12:50:14Z</time>
      </trkpt>
      <trkpt lat="45.95712" lon="3.66316">
        <ele>1005.1284933333</ele>
        <time>2017-02-23T12:50:15Z</time>
      </trkpt>
      <trkpt lat="45.95716" lon="3.66333">
        <ele>1005.62864</ele>
        <time>2017-02-23T12:50:19Z</time>
      </trkpt>
      <trkpt lat="45.95719" lon="3.66349">
        <ele>1006.4287466667</ele>
        <time>2017-02-23T12:50:23Z</time>
      </trkpt>
      <trkpt lat="45.95721" lon="3.66357">
        <ele>1006.52882</ele>
        <time>2017-02-23T12:50:25Z</time>
      </trkpt>
      <trkpt lat="45.95725" lon="3.66398">
        <ele>1005.8290066667</ele>
        <time>2017-02-23T12:50:35Z</time>
      </trkpt>
      <trkpt lat="45.9573" lon="3.6641">
        <ele>1005.8291933333</ele>
        <time>2017-02-23T12:50:40Z</time>
      </trkpt>
      <trkpt lat="45.95726" lon="3.66426">
        <ele>1006.0290466667</ele>
        <time>2017-02-23T12:50:44Z</time>
      </trkpt>
      <trkpt lat="45.95723" lon="3.66442">
        <ele>1006.5289</ele>
        <time>2017-02-23T12:50:48Z</time>
      </trkpt>
      <trkpt lat="45.95721" lon="3.66459">
        <ele>1006.3288466667</ele>
        <time>2017-02-23T12:50:52Z</time>
      </trkpt>
      <trkpt lat="45.95717" lon="3.66488">
        <ele>1005.62866</ele>
        <time>2017-02-23T12:51:01Z</time>
      </trkpt>
      <trkpt lat="45.95712" lon="3.66512">
        <ele>1004.92846</ele>
        <time>2017-02-23T12:51:06Z</time>
      </trkpt>
      <trkpt lat="45.95714" lon="3.66526">
        <ele>1004.6285533333</ele>
        <time>2017-02-23T12:51:10Z</time>
      </trkpt>
      <trkpt lat="45.95712" lon="3.66532">
        <ele>1004.1284866667</ele>
        <time>2017-02-23T12:51:21Z</time>
      </trkpt>
      <trkpt lat="45.9571" lon="3.6656">
        <ele>1005.1283866667</ele>
        <time>2017-02-23T12:51:21Z</time>
      </trkpt>
      <trkpt lat="45.95714" lon="3.66601">
        <ele>1007.72856</ele>
        <time>2017-02-23T12:51:34Z</time>
      </trkpt>
      <trkpt lat="45.95724" lon="3.66603">
        <ele>1007.5289733333</ele>
        <time>2017-02-23T12:51:39Z</time>
      </trkpt>
      <trkpt lat="45.95727" lon="3.666">
        <ele>1007.2290666667</ele>
        <time>2017-02-23T12:51:41Z</time>
      </trkpt>
      <trkpt lat="45.9575" lon="3.66597">
        <ele>1004.4299866667</ele>
        <time>2017-02-23T12:51:55Z</time>
      </trkpt>
      <trkpt lat="45.95755" lon="3.66595">
        <ele>1004.73018</ele>
        <time>2017-02-23T12:52:00Z</time>
      </trkpt>
      <trkpt lat="45.95762" lon="3.66596">
        <ele>1004.73046</ele>
        <time>2017-02-23T12:52:04Z</time>
      </trkpt>
      <trkpt lat="45.95769" lon="3.66599">
        <ele>1005.3307666667</ele>
        <time>2017-02-23T12:52:09Z</time>
      </trkpt>
      <trkpt lat="45.9578" lon="3.666">
        <ele>1006.0311866667</ele>
        <time>2017-02-23T12:52:14Z</time>
      </trkpt>
      <trkpt lat="45.95781" lon="3.666">
        <ele>1005.9312466667</ele>
        <time>2017-02-23T12:52:19Z</time>
      </trkpt>
      <trkpt lat="45.95797" lon="3.66603">
        <ele>1005.3318933333</ele>
        <time>2017-02-23T12:52:23Z</time>
      </trkpt>
      <trkpt lat="45.95806" lon="3.66602">
        <ele>1005.13222</ele>
        <time>2017-02-23T12:52:28Z</time>
      </trkpt>
      <trkpt lat="45.95811" lon="3.66603">
        <ele>1004.8324266667</ele>
        <time>2017-02-23T12:52:31Z</time>
      </trkpt>
      <trkpt lat="45.9582" lon="3.66599">
        <ele>1004.8328</ele>
        <time>2017-02-23T12:52:34Z</time>
      </trkpt>
      <trkpt lat="45.95832" lon="3.66598">
        <ele>1004.5332666667</ele>
        <time>2017-02-23T12:52:39Z</time>
      </trkpt>
      <trkpt lat="45.95841" lon="3.66595">
        <ele>1005.2336533333</ele>
        <time>2017-02-23T12:52:44Z</time>
      </trkpt>
      <trkpt lat="45.95849" lon="3.66597">
        <ele>1005.83396</ele>
        <time>2017-02-23T12:52:49Z</time>
      </trkpt>
      <trkpt lat="45.95859" lon="3.666">
        <ele>1006.43436</ele>
        <time>2017-02-23T12:52:58Z</time>
      </trkpt>
      <trkpt lat="45.95864" lon="3.66603">
        <ele>1006.4345666667</ele>
        <time>2017-02-23T12:53:00Z</time>
      </trkpt>
      <trkpt lat="45.95888" lon="3.66605">
        <ele>1008.3355266667</ele>
        <time>2017-02-23T12:53:09Z</time>
      </trkpt>
      <trkpt lat="45.95894" lon="3.66605">
        <ele>1008.83574</ele>
        <time>2017-02-23T12:53:11Z</time>
      </trkpt>
      <trkpt lat="45.95902" lon="3.66608">
        <ele>1009.8360733333</ele>
        <time>2017-02-23T12:53:16Z</time>
      </trkpt>
      <trkpt lat="45.95913" lon="3.66609">
        <ele>1010.7365</ele>
        <time>2017-02-23T12:53:21Z</time>
      </trkpt>
      <trkpt lat="45.95924" lon="3.66609">
        <ele>1011.6369733333</ele>
        <time>2017-02-23T12:53:25Z</time>
      </trkpt>
      <trkpt lat="45.95944" lon="3.66613">
        <ele>1012.73774</ele>
        <time>2017-02-23T12:53:34Z</time>
      </trkpt>
      <trkpt lat="45.95952" lon="3.66616">
        <ele>1014.2380733333</ele>
        <time>2017-02-23T12:53:41Z</time>
      </trkpt>
      <trkpt lat="45.95958" lon="3.6662">
        <ele>1015.03832</ele>
        <time>2017-02-23T12:53:50Z</time>
      </trkpt>
      <trkpt lat="45.95968" lon="3.66628">
        <ele>1016.7387</ele>
        <time>2017-02-23T12:53:53Z</time>
      </trkpt>
      <trkpt lat="45.95973" lon="3.66634">
        <ele>1017.7389333333</ele>
        <time>2017-02-23T12:53:57Z</time>
      </trkpt>
      <trkpt lat="45.95976" lon="3.66645">
        <ele>1018.7390333333</ele>
        <time>2017-02-23T12:54:05Z</time>
      </trkpt>
      <trkpt lat="45.9598" lon="3.66654">
        <ele>1019.3392</ele>
        <time>2017-02-23T12:54:09Z</time>
      </trkpt>
      <trkpt lat="45.95983" lon="3.66656">
        <ele>1019.53932</ele>
        <time>2017-02-23T12:54:12Z</time>
      </trkpt>
      <trkpt lat="45.95997" lon="3.66666">
        <ele>1020.5398933333</ele>
        <time>2017-02-23T12:54:20Z</time>
      </trkpt>
      <trkpt lat="45.96009" lon="3.66667">
        <ele>1021.2403466667</ele>
        <time>2017-02-23T12:54:25Z</time>
      </trkpt>
      <trkpt lat="45.96019" lon="3.66665">
        <ele>1021.7407666667</ele>
        <time>2017-02-23T12:54:29Z</time>
      </trkpt>
      <trkpt lat="45.96038" lon="3.6666">
        <ele>1024.0415066667</ele>
        <time>2017-02-23T12:54:39Z</time>
      </trkpt>
      <trkpt lat="45.96041" lon="3.66661">
        <ele>1024.04164</ele>
        <time>2017-02-23T12:54:43Z</time>
      </trkpt>
      <trkpt lat="45.96049" lon="3.6666">
        <ele>1024.1419666667</ele>
        <time>2017-02-23T12:54:47Z</time>
      </trkpt>
      <trkpt lat="45.96056" lon="3.66667">
        <ele>1024.3422533333</ele>
        <time>2017-02-23T12:54:51Z</time>
      </trkpt>
      <trkpt lat="45.96062" lon="3.66668">
        <ele>1024.9424933333</ele>
        <time>2017-02-23T12:55:00Z</time>
      </trkpt>
      <trkpt lat="45.96097" lon="3.66672">
        <ele>1027.7438866667</ele>
        <time>2017-02-23T12:55:03Z</time>
      </trkpt>
      <trkpt lat="45.96112" lon="3.66677">
        <ele>1029.54448</ele>
        <time>2017-02-23T12:55:09Z</time>
      </trkpt>
      <trkpt lat="45.9612" lon="3.66679">
        <ele>1030.84478</ele>
        <time>2017-02-23T12:55:12Z</time>
      </trkpt>
      <trkpt lat="45.9614" lon="3.66697">
        <ele>1030.9456</ele>
        <time>2017-02-23T12:55:25Z</time>
      </trkpt>
      <trkpt lat="45.96142" lon="3.66708">
        <ele>1031.7456666667</ele>
        <time>2017-02-23T12:55:33Z</time>
      </trkpt>
      <trkpt lat="45.96138" lon="3.66718">
        <ele>1032.5455133333</ele>
        <time>2017-02-23T12:55:41Z</time>
      </trkpt>
      <trkpt lat="45.96133" lon="3.66725">
        <ele>1034.4453133333</ele>
        <time>2017-02-23T12:55:49Z</time>
      </trkpt>
      <trkpt lat="45.96126" lon="3.66732">
        <ele>1036.5450266667</ele>
        <time>2017-02-23T12:56:00Z</time>
      </trkpt>
      <trkpt lat="45.96118" lon="3.66739">
        <ele>1039.4447266667</ele>
        <time>2017-02-23T12:56:03Z</time>
      </trkpt>
      <trkpt lat="45.96113" lon="3.66745">
        <ele>1040.0445</ele>
        <time>2017-02-23T12:56:08Z</time>
      </trkpt>
      <trkpt lat="45.96105" lon="3.66754">
        <ele>1040.8441866667</ele>
        <time>2017-02-23T12:56:13Z</time>
      </trkpt>
      <trkpt lat="45.961" lon="3.66758">
        <ele>1041.54398</ele>
        <time>2017-02-23T12:56:20Z</time>
      </trkpt>
      <trkpt lat="45.96092" lon="3.66761">
        <ele>1041.6436866667</ele>
        <time>2017-02-23T12:56:23Z</time>
      </trkpt>
      <trkpt lat="45.96085" lon="3.66765">
        <ele>1042.74338</ele>
        <time>2017-02-23T12:56:31Z</time>
      </trkpt>
      <trkpt lat="45.96078" lon="3.66772">
        <ele>1042.8431266667</ele>
        <time>2017-02-23T12:56:35Z</time>
      </trkpt>
      <trkpt lat="45.96072" lon="3.6678">
        <ele>1043.24286</ele>
        <time>2017-02-23T12:56:43Z</time>
      </trkpt>
      <trkpt lat="45.96064" lon="3.66787">
        <ele>1043.6425733333</ele>
        <time>2017-02-23T12:56:51Z</time>
      </trkpt>
      <trkpt lat="45.96056" lon="3.66799">
        <ele>1043.44224</ele>
        <time>2017-02-23T12:56:55Z</time>
      </trkpt>
      <trkpt lat="45.96051" lon="3.66806">
        <ele>1043.84202</ele>
        <time>2017-02-23T12:57:00Z</time>
      </trkpt>
      <trkpt lat="45.96045" lon="3.66816">
        <ele>1044.2418133333</ele>
        <time>2017-02-23T12:57:06Z</time>
      </trkpt>
      <trkpt lat="45.96036" lon="3.66834">
        <ele>1044.6414533333</ele>
        <time>2017-02-23T12:57:10Z</time>
      </trkpt>
      <trkpt lat="45.96034" lon="3.66844">
        <ele>1045.24134</ele>
        <time>2017-02-23T12:57:15Z</time>
      </trkpt>
      <trkpt lat="45.9603" lon="3.66872">
        <ele>1047.6411933333</ele>
        <time>2017-02-23T12:57:28Z</time>
      </trkpt>
      <trkpt lat="45.96034" lon="3.66894">
        <ele>1050.64134</ele>
        <time>2017-02-23T12:57:39Z</time>
      </trkpt>
      <trkpt lat="45.96034" lon="3.66898">
        <ele>1051.0413466667</ele>
        <time>2017-02-23T12:57:41Z</time>
      </trkpt>
      <trkpt lat="45.9603" lon="3.66917">
        <ele>1052.3412133333</ele>
        <time>2017-02-23T12:57:51Z</time>
      </trkpt>
      <trkpt lat="45.96023" lon="3.66943">
        <ele>1053.6409333333</ele>
        <time>2017-02-23T12:57:56Z</time>
      </trkpt>
      <trkpt lat="45.96022" lon="3.66954">
        <ele>1054.54086</ele>
        <time>2017-02-23T12:58:02Z</time>
      </trkpt>
      <trkpt lat="45.96022" lon="3.66958">
        <ele>1054.9408733333</ele>
        <time>2017-02-23T12:58:09Z</time>
      </trkpt>
      <trkpt lat="45.9602" lon="3.66981">
        <ele>1057.0407866667</ele>
        <time>2017-02-23T12:58:13Z</time>
      </trkpt>
      <trkpt lat="45.96024" lon="3.66989">
        <ele>1058.34094</ele>
        <time>2017-02-23T12:58:19Z</time>
      </trkpt>
      <trkpt lat="45.96025" lon="3.66995">
        <ele>1058.9410133333</ele>
        <time>2017-02-23T12:58:22Z</time>
      </trkpt>
      <trkpt lat="45.96033" lon="3.67008">
        <ele>1062.44132</ele>
        <time>2017-02-23T12:58:31Z</time>
      </trkpt>
      <trkpt lat="45.96033" lon="3.67025">
        <ele>1064.54132</ele>
        <time>2017-02-23T12:58:39Z</time>
      </trkpt>
      <trkpt lat="45.96035" lon="3.67027">
        <ele>1065.0413866667</ele>
        <time>2017-02-23T12:58:41Z</time>
      </trkpt>
      <trkpt lat="45.96033" lon="3.67051">
        <ele>1066.7413</ele>
        <time>2017-02-23T12:58:54Z</time>
      </trkpt>
      <trkpt lat="45.96032" lon="3.6706">
        <ele>1067.2412666667</ele>
        <time>2017-02-23T12:59:00Z</time>
      </trkpt>
      <trkpt lat="45.96018" lon="3.67076">
        <ele>1068.0407333333</ele>
        <time>2017-02-23T12:59:07Z</time>
      </trkpt>
      <trkpt lat="45.96014" lon="3.67069">
        <ele>1068.7405733333</ele>
        <time>2017-02-23T12:59:15Z</time>
      </trkpt>
      <trkpt lat="45.96006" lon="3.67041">
        <ele>1069.34022</ele>
        <time>2017-02-23T12:59:19Z</time>
      </trkpt>
      <trkpt lat="45.95998" lon="3.67029">
        <ele>1069.73992</ele>
        <time>2017-02-23T12:59:23Z</time>
      </trkpt>
      <trkpt lat="45.95995" lon="3.67024">
        <ele>1069.33978</ele>
        <time>2017-02-23T12:59:33Z</time>
      </trkpt>
      <trkpt lat="45.95999" lon="3.67013">
        <ele>1069.1399466667</ele>
        <time>2017-02-23T12:59:46Z</time>
      </trkpt>
      <trkpt lat="45.96014" lon="3.6699">
        <ele>1067.0405666667</ele>
        <time>2017-02-23T12:59:59Z</time>
      </trkpt>
      <trkpt lat="45.96015" lon="3.66979">
        <ele>1066.1405933333</ele>
        <time>2017-02-23T13:00:08Z</time>
      </trkpt>
      <trkpt lat="45.96024" lon="3.66996">
        <ele>1065.74094</ele>
        <time>2017-02-23T13:00:21Z</time>
      </trkpt>
      <trkpt lat="45.96025" lon="3.67006">
        <ele>1065.8409933333</ele>
        <time>2017-02-23T13:00:28Z</time>
      </trkpt>
      <trkpt lat="45.96028" lon="3.67013">
        <ele>1066.1411266667</ele>
        <time>2017-02-23T13:00:42Z</time>
      </trkpt>
      <trkpt lat="45.96032" lon="3.67026">
        <ele>1067.3412866667</ele>
        <time>2017-02-23T13:00:42Z</time>
      </trkpt>
      <trkpt lat="45.96028" lon="3.6706">
        <ele>1066.9411066667</ele>
        <time>2017-02-23T13:00:55Z</time>
      </trkpt>
      <trkpt lat="45.96024" lon="3.67069">
        <ele>1066.9409533333</ele>
        <time>2017-02-23T13:01:00Z</time>
      </trkpt>
      <trkpt lat="45.96022" lon="3.67073">
        <ele>1066.84086</ele>
        <time>2017-02-23T13:01:04Z</time>
      </trkpt>
      <trkpt lat="45.96015" lon="3.67084">
        <ele>1067.0406066667</ele>
        <time>2017-02-23T13:01:08Z</time>
      </trkpt>
      <trkpt lat="45.96014" lon="3.67087">
        <ele>1067.34056</ele>
        <time>2017-02-23T13:01:11Z</time>
      </trkpt>
      <trkpt lat="45.96012" lon="3.67098">
        <ele>1067.4404733333</ele>
        <time>2017-02-23T13:01:17Z</time>
      </trkpt>
      <trkpt lat="45.96009" lon="3.67117">
        <ele>1067.84034</ele>
        <time>2017-02-23T13:01:21Z</time>
      </trkpt>
      <trkpt lat="45.9601" lon="3.67129">
        <ele>1067.6404066667</ele>
        <time>2017-02-23T13:01:31Z</time>
      </trkpt>
      <trkpt lat="45.9601" lon="3.67162">
        <ele>1067.1403866667</ele>
        <time>2017-02-23T13:01:44Z</time>
      </trkpt>
      <trkpt lat="45.9601" lon="3.67173">
        <ele>1067.2403933333</ele>
        <time>2017-02-23T13:01:48Z</time>
      </trkpt>
      <trkpt lat="45.96008" lon="3.67182">
        <ele>1067.24032</ele>
        <time>2017-02-23T13:02:00Z</time>
      </trkpt>
      <trkpt lat="45.96003" lon="3.67202">
        <ele>1067.6401266667</ele>
        <time>2017-02-23T13:02:05Z</time>
      </trkpt>
      <trkpt lat="45.95994" lon="3.67232">
        <ele>1070.2397733333</ele>
        <time>2017-02-23T13:02:18Z</time>
      </trkpt>
      <trkpt lat="45.95996" lon="3.67238">
        <ele>1070.4398333333</ele>
        <time>2017-02-23T13:02:22Z</time>
      </trkpt>
      <trkpt lat="45.95994" lon="3.67245">
        <ele>1070.8397733333</ele>
        <time>2017-02-23T13:02:26Z</time>
      </trkpt>
      <trkpt lat="45.95988" lon="3.67257">
        <ele>1071.3395333333</ele>
        <time>2017-02-23T13:02:28Z</time>
      </trkpt>
      <trkpt lat="45.95981" lon="3.67276">
        <ele>1073.0392266667</ele>
        <time>2017-02-23T13:02:38Z</time>
      </trkpt>
      <trkpt lat="45.95977" lon="3.67286">
        <ele>1072.93906</ele>
        <time>2017-02-23T13:02:43Z</time>
      </trkpt>
      <trkpt lat="45.95972" lon="3.67293">
        <ele>1073.4388666667</ele>
        <time>2017-02-23T13:02:46Z</time>
      </trkpt>
      <trkpt lat="45.95966" lon="3.67301">
        <ele>1073.6386333333</ele>
        <time>2017-02-23T13:02:51Z</time>
      </trkpt>
      <trkpt lat="45.95965" lon="3.67312">
        <ele>1073.9385866667</ele>
        <time>2017-02-23T13:02:57Z</time>
      </trkpt>
      <trkpt lat="45.95958" lon="3.6732">
        <ele>1074.7383266667</ele>
        <time>2017-02-23T13:03:07Z</time>
      </trkpt>
      <trkpt lat="45.95936" lon="3.67343">
        <ele>1075.93742</ele>
        <time>2017-02-23T13:03:19Z</time>
      </trkpt>
      <trkpt lat="45.95928" lon="3.6735">
        <ele>1076.5371333333</ele>
        <time>2017-02-23T13:03:25Z</time>
      </trkpt>
      <trkpt lat="45.95924" lon="3.67358">
        <ele>1076.7369533333</ele>
        <time>2017-02-23T13:03:29Z</time>
      </trkpt>
      <trkpt lat="45.95921" lon="3.67364">
        <ele>1076.63682</ele>
        <time>2017-02-23T13:03:35Z</time>
      </trkpt>
      <trkpt lat="45.95908" lon="3.67385">
        <ele>1078.1363133333</ele>
        <time>2017-02-23T13:03:39Z</time>
      </trkpt>
      <trkpt lat="45.95903" lon="3.67398">
        <ele>1079.1361133333</ele>
        <time>2017-02-23T13:03:47Z</time>
      </trkpt>
      <trkpt lat="45.95901" lon="3.67403">
        <ele>1079.4360266667</ele>
        <time>2017-02-23T13:03:48Z</time>
      </trkpt>
      <trkpt lat="45.95895" lon="3.67413">
        <ele>1079.6358066667</ele>
        <time>2017-02-23T13:03:56Z</time>
      </trkpt>
      <trkpt lat="45.95895" lon="3.67414">
        <ele>1079.9358066667</ele>
        <time>2017-02-23T13:04:00Z</time>
      </trkpt>
      <trkpt lat="45.95883" lon="3.67429">
        <ele>1080.6353333333</ele>
        <time>2017-02-23T13:04:05Z</time>
      </trkpt>
      <trkpt lat="45.95877" lon="3.67436">
        <ele>1080.23506</ele>
        <time>2017-02-23T13:04:11Z</time>
      </trkpt>
      <trkpt lat="45.95871" lon="3.67445">
        <ele>1081.0348266667</ele>
        <time>2017-02-23T13:04:18Z</time>
      </trkpt>
      <trkpt lat="45.95864" lon="3.67452">
        <ele>1081.7345666667</ele>
        <time>2017-02-23T13:04:28Z</time>
      </trkpt>
      <trkpt lat="45.95853" lon="3.67461">
        <ele>1082.6341066667</ele>
        <time>2017-02-23T13:04:33Z</time>
      </trkpt>
      <trkpt lat="45.95846" lon="3.67468">
        <ele>1083.23382</ele>
        <time>2017-02-23T13:04:37Z</time>
      </trkpt>
      <trkpt lat="45.95838" lon="3.67475">
        <ele>1083.43352</ele>
        <time>2017-02-23T13:04:43Z</time>
      </trkpt>
      <trkpt lat="45.95834" lon="3.67478">
        <ele>1083.5333466667</ele>
        <time>2017-02-23T13:04:48Z</time>
      </trkpt>
      <trkpt lat="45.95828" lon="3.67486">
        <ele>1083.7331133333</ele>
        <time>2017-02-23T13:04:52Z</time>
      </trkpt>
      <trkpt lat="45.95823" lon="3.67494">
        <ele>1084.7329</ele>
        <time>2017-02-23T13:05:00Z</time>
      </trkpt>
      <trkpt lat="45.95817" lon="3.67508">
        <ele>1086.3326733333</ele>
        <time>2017-02-23T13:05:04Z</time>
      </trkpt>
      <trkpt lat="45.95813" lon="3.67519">
        <ele>1088.03252</ele>
        <time>2017-02-23T13:05:18Z</time>
      </trkpt>
      <trkpt lat="45.95805" lon="3.67534">
        <ele>1089.4321866667</ele>
        <time>2017-02-23T13:05:23Z</time>
      </trkpt>
      <trkpt lat="45.95799" lon="3.67543">
        <ele>1089.9319533333</ele>
        <time>2017-02-23T13:05:27Z</time>
      </trkpt>
      <trkpt lat="45.95796" lon="3.67548">
        <ele>1090.2318333333</ele>
        <time>2017-02-23T13:05:40Z</time>
      </trkpt>
      <trkpt lat="45.95782" lon="3.67558">
        <ele>1092.4312666667</ele>
        <time>2017-02-23T13:05:40Z</time>
      </trkpt>
      <trkpt lat="45.9578" lon="3.6756">
        <ele>1092.5311933333</ele>
        <time>2017-02-23T13:05:48Z</time>
      </trkpt>
      <trkpt lat="45.95766" lon="3.67577">
        <ele>1094.03064</ele>
        <time>2017-02-23T13:05:50Z</time>
      </trkpt>
      <trkpt lat="45.9576" lon="3.67584">
        <ele>1095.03038</ele>
        <time>2017-02-23T13:05:55Z</time>
      </trkpt>
      <trkpt lat="45.95752" lon="3.6759">
        <ele>1095.6300933333</ele>
        <time>2017-02-23T13:06:03Z</time>
      </trkpt>
      <trkpt lat="45.95742" lon="3.67598">
        <ele>1095.7296666667</ele>
        <time>2017-02-23T13:06:06Z</time>
      </trkpt>
      <trkpt lat="45.95734" lon="3.67606">
        <ele>1096.4293666667</ele>
        <time>2017-02-23T13:06:11Z</time>
      </trkpt>
      <trkpt lat="45.9573" lon="3.6761">
        <ele>1096.5291933333</ele>
        <time>2017-02-23T13:06:14Z</time>
      </trkpt>
      <trkpt lat="45.95721" lon="3.67626">
        <ele>1097.32882</ele>
        <time>2017-02-23T13:06:18Z</time>
      </trkpt>
      <trkpt lat="45.95714" lon="3.67635">
        <ele>1097.82856</ele>
        <time>2017-02-23T13:06:25Z</time>
      </trkpt>
      <trkpt lat="45.95705" lon="3.67649">
        <ele>1098.42818</ele>
        <time>2017-02-23T13:06:27Z</time>
      </trkpt>
      <trkpt lat="45.95698" lon="3.67656">
        <ele>1098.2279333333</ele>
        <time>2017-02-23T13:06:32Z</time>
      </trkpt>
      <trkpt lat="45.95693" lon="3.6766">
        <ele>1098.2277133333</ele>
        <time>2017-02-23T13:06:37Z</time>
      </trkpt>
      <trkpt lat="45.95686" lon="3.67663">
        <ele>1098.0274466667</ele>
        <time>2017-02-23T13:06:41Z</time>
      </trkpt>
      <trkpt lat="45.95679" lon="3.67666">
        <ele>1098.02714</ele>
        <time>2017-02-23T13:06:47Z</time>
      </trkpt>
      <trkpt lat="45.9567" lon="3.67667">
        <ele>1097.8268066667</ele>
        <time>2017-02-23T13:06:51Z</time>
      </trkpt>
      <trkpt lat="45.95664" lon="3.67672">
        <ele>1097.3265733333</ele>
        <time>2017-02-23T13:06:54Z</time>
      </trkpt>
      <trkpt lat="45.95653" lon="3.67681">
        <ele>1096.7261</ele>
        <time>2017-02-23T13:07:00Z</time>
      </trkpt>
      <trkpt lat="45.95645" lon="3.67685">
        <ele>1096.4257933333</ele>
        <time>2017-02-23T13:07:03Z</time>
      </trkpt>
      <trkpt lat="45.95638" lon="3.67685">
        <ele>1096.0255066667</ele>
        <time>2017-02-23T13:07:08Z</time>
      </trkpt>
      <trkpt lat="45.95628" lon="3.67688">
        <ele>1094.8251133333</ele>
        <time>2017-02-23T13:07:13Z</time>
      </trkpt>
      <trkpt lat="45.95622" lon="3.67689">
        <ele>1094.32488</ele>
        <time>2017-02-23T13:07:17Z</time>
      </trkpt>
      <trkpt lat="45.95617" lon="3.67693">
        <ele>1093.3246666667</ele>
        <time>2017-02-23T13:07:18Z</time>
      </trkpt>
      <trkpt lat="45.95614" lon="3.67695">
        <ele>1093.1245466667</ele>
        <time>2017-02-23T13:07:22Z</time>
      </trkpt>
      <trkpt lat="45.95593" lon="3.67698">
        <ele>1090.72372</ele>
        <time>2017-02-23T13:07:35Z</time>
      </trkpt>
      <trkpt lat="45.95587" lon="3.67704">
        <ele>1089.62348</ele>
        <time>2017-02-23T13:07:43Z</time>
      </trkpt>
      <trkpt lat="45.95576" lon="3.67707">
        <ele>1089.2230533333</ele>
        <time>2017-02-23T13:07:47Z</time>
      </trkpt>
      <trkpt lat="45.9557" lon="3.67714">
        <ele>1088.9227933333</ele>
        <time>2017-02-23T13:07:58Z</time>
      </trkpt>
      <trkpt lat="45.95562" lon="3.67718">
        <ele>1089.1224933333</ele>
        <time>2017-02-23T13:08:05Z</time>
      </trkpt>
      <trkpt lat="45.95558" lon="3.67723">
        <ele>1088.8223066667</ele>
        <time>2017-02-23T13:08:06Z</time>
      </trkpt>
      <trkpt lat="45.95551" lon="3.6773">
        <ele>1088.5220333333</ele>
        <time>2017-02-23T13:08:12Z</time>
      </trkpt>
      <trkpt lat="45.9554" lon="3.67736">
        <ele>1088.1216066667</ele>
        <time>2017-02-23T13:08:12Z</time>
      </trkpt>
      <trkpt lat="45.95526" lon="3.67746">
        <ele>1087.4210533333</ele>
        <time>2017-02-23T13:08:18Z</time>
      </trkpt>
      <trkpt lat="45.95521" lon="3.67747">
        <ele>1087.2208533333</ele>
        <time>2017-02-23T13:08:27Z</time>
      </trkpt>
      <trkpt lat="45.95481" lon="3.67756">
        <ele>1084.31924</ele>
        <time>2017-02-23T13:08:40Z</time>
      </trkpt>
      <trkpt lat="45.95469" lon="3.67755">
        <ele>1082.61876</ele>
        <time>2017-02-23T13:08:45Z</time>
      </trkpt>
      <trkpt lat="45.95462" lon="3.67754">
        <ele>1082.1184933333</ele>
        <time>2017-02-23T13:08:49Z</time>
      </trkpt>
      <trkpt lat="45.95458" lon="3.67753">
        <ele>1081.7183066667</ele>
        <time>2017-02-23T13:08:53Z</time>
      </trkpt>
      <trkpt lat="45.9544" lon="3.67769">
        <ele>1079.9176</ele>
        <time>2017-02-23T13:09:00Z</time>
      </trkpt>
      <trkpt lat="45.95432" lon="3.67776">
        <ele>1079.21726</ele>
        <time>2017-02-23T13:09:05Z</time>
      </trkpt>
      <trkpt lat="45.95425" lon="3.67775">
        <ele>1079.017</ele>
        <time>2017-02-23T13:09:09Z</time>
      </trkpt>
      <trkpt lat="45.95414" lon="3.67779">
        <ele>1078.1165733333</ele>
        <time>2017-02-23T13:09:14Z</time>
      </trkpt>
      <trkpt lat="45.95406" lon="3.6778">
        <ele>1076.8162266667</ele>
        <time>2017-02-23T13:09:20Z</time>
      </trkpt>
      <trkpt lat="45.954" lon="3.6778">
        <ele>1075.916</ele>
        <time>2017-02-23T13:09:24Z</time>
      </trkpt>
      <trkpt lat="45.95396" lon="3.67785">
        <ele>1075.5158333333</ele>
        <time>2017-02-23T13:09:26Z</time>
      </trkpt>
      <trkpt lat="45.95392" lon="3.67788">
        <ele>1075.11568</ele>
        <time>2017-02-23T13:09:32Z</time>
      </trkpt>
      <trkpt lat="45.9538" lon="3.678">
        <ele>1073.7152066667</ele>
        <time>2017-02-23T13:09:35Z</time>
      </trkpt>
      <trkpt lat="45.95379" lon="3.67801">
        <ele>1073.5151533333</ele>
        <time>2017-02-23T13:09:45Z</time>
      </trkpt>
      <trkpt lat="45.95359" lon="3.67835">
        <ele>1071.2143533333</ele>
        <time>2017-02-23T13:09:50Z</time>
      </trkpt>
      <trkpt lat="45.95354" lon="3.67842">
        <ele>1071.4141533333</ele>
        <time>2017-02-23T13:10:02Z</time>
      </trkpt>
      <trkpt lat="45.95346" lon="3.67856">
        <ele>1074.8138333333</ele>
        <time>2017-02-23T13:10:07Z</time>
      </trkpt>
      <trkpt lat="45.95339" lon="3.67862">
        <ele>1075.21354</ele>
        <time>2017-02-23T13:10:18Z</time>
      </trkpt>
      <trkpt lat="45.95333" lon="3.67868">
        <ele>1075.11332</ele>
        <time>2017-02-23T13:10:22Z</time>
      </trkpt>
      <trkpt lat="45.95328" lon="3.67872">
        <ele>1075.0131</ele>
        <time>2017-02-23T13:10:33Z</time>
      </trkpt>
      <trkpt lat="45.9531" lon="3.67886">
        <ele>1073.7123933333</ele>
        <time>2017-02-23T13:10:38Z</time>
      </trkpt>
      <trkpt lat="45.95303" lon="3.67888">
        <ele>1072.9121</ele>
        <time>2017-02-23T13:10:44Z</time>
      </trkpt>
      <trkpt lat="45.95292" lon="3.67887">
        <ele>1071.9116933333</ele>
        <time>2017-02-23T13:10:49Z</time>
      </trkpt>
      <trkpt lat="45.95289" lon="3.67883">
        <ele>1071.4115733333</ele>
        <time>2017-02-23T13:10:52Z</time>
      </trkpt>
      <trkpt lat="45.95279" lon="3.67878">
        <ele>1070.1111666667</ele>
        <time>2017-02-23T13:11:00Z</time>
      </trkpt>
      <trkpt lat="45.95272" lon="3.67872">
        <ele>1068.71088</ele>
        <time>2017-02-23T13:11:07Z</time>
      </trkpt>
      <trkpt lat="45.95267" lon="3.67867">
        <ele>1067.6106733333</ele>
        <time>2017-02-23T13:11:11Z</time>
      </trkpt>
      <trkpt lat="45.95261" lon="3.67862">
        <ele>1066.3104266667</ele>
        <time>2017-02-23T13:11:15Z</time>
      </trkpt>
      <trkpt lat="45.95254" lon="3.6786">
        <ele>1065.2101466667</ele>
        <time>2017-02-23T13:11:19Z</time>
      </trkpt>
      <trkpt lat="45.95249" lon="3.67858">
        <ele>1064.20994</ele>
        <time>2017-02-23T13:11:23Z</time>
      </trkpt>
      <trkpt lat="45.95241" lon="3.67855">
        <ele>1062.10962</ele>
        <time>2017-02-23T13:11:36Z</time>
      </trkpt>
      <trkpt lat="45.95223" lon="3.67861">
        <ele>1055.6089133333</ele>
        <time>2017-02-23T13:11:36Z</time>
      </trkpt>
      <trkpt lat="45.95212" lon="3.67864">
        <ele>1050.60846</ele>
        <time>2017-02-23T13:11:49Z</time>
      </trkpt>
      <trkpt lat="45.95208" lon="3.67858">
        <ele>1049.10832</ele>
        <time>2017-02-23T13:11:55Z</time>
      </trkpt>
      <trkpt lat="45.95208" lon="3.67849">
        <ele>1048.7083</ele>
        <time>2017-02-23T13:12:00Z</time>
      </trkpt>
      <trkpt lat="45.95204" lon="3.67839">
        <ele>1047.3081733333</ele>
        <time>2017-02-23T13:12:07Z</time>
      </trkpt>
      <trkpt lat="45.95203" lon="3.6783">
        <ele>1046.30812</ele>
        <time>2017-02-23T13:12:12Z</time>
      </trkpt>
      <trkpt lat="45.95202" lon="3.67817">
        <ele>1045.6080733333</ele>
        <time>2017-02-23T13:12:19Z</time>
      </trkpt>
      <trkpt lat="45.95202" lon="3.67813">
        <ele>1044.90806</ele>
        <time>2017-02-23T13:12:24Z</time>
      </trkpt>
      <trkpt lat="45.95204" lon="3.67801">
        <ele>1042.50816</ele>
        <time>2017-02-23T13:12:53Z</time>
      </trkpt>
      <trkpt lat="45.95208" lon="3.6779">
        <ele>1041.2083066667</ele>
        <time>2017-02-23T13:12:57Z</time>
      </trkpt>
      <trkpt lat="45.95206" lon="3.67778">
        <ele>1040.5082333333</ele>
        <time>2017-02-23T13:13:04Z</time>
      </trkpt>
      <trkpt lat="45.95205" lon="3.67768">
        <ele>1039.8081866667</ele>
        <time>2017-02-23T13:13:14Z</time>
      </trkpt>
      <trkpt lat="45.95202" lon="3.67756">
        <ele>1039.1080933333</ele>
        <time>2017-02-23T13:13:35Z</time>
      </trkpt>
      <trkpt lat="45.95202" lon="3.67755">
        <ele>1039.10808</ele>
        <time>2017-02-23T13:13:35Z</time>
      </trkpt>
      <trkpt lat="45.95204" lon="3.67734">
        <ele>1038.20816</ele>
        <time>2017-02-23T13:13:47Z</time>
      </trkpt>
      <trkpt lat="45.95204" lon="3.67721">
        <ele>1037.50816</ele>
        <time>2017-02-23T13:14:04Z</time>
      </trkpt>
      <trkpt lat="45.95206" lon="3.67712">
        <ele>1036.8082466667</ele>
        <time>2017-02-23T13:14:16Z</time>
      </trkpt>
      <trkpt lat="45.95207" lon="3.67705">
        <ele>1036.6082733333</ele>
        <time>2017-02-23T13:14:50Z</time>
      </trkpt>
      <trkpt lat="45.95123" lon="3.67795">
        <ele>1008.1049333333</ele>
        <time>2017-02-23T13:15:00Z</time>
      </trkpt>
      <trkpt lat="45.9511" lon="3.67798">
        <ele>1009.9044066667</ele>
        <time>2017-02-23T13:15:03Z</time>
      </trkpt>
      <trkpt lat="45.95074" lon="3.67878">
        <ele>992.10296</ele>
        <time>2017-02-23T13:15:16Z</time>
      </trkpt>
      <trkpt lat="45.95066" lon="3.67884">
        <ele>991.10263333333</ele>
        <time>2017-02-23T13:15:20Z</time>
      </trkpt>
      <trkpt lat="45.95062" lon="3.67889">
        <ele>992.30247333333</ele>
        <time>2017-02-23T13:15:37Z</time>
      </trkpt>
      <trkpt lat="45.95053" lon="3.67887">
        <ele>1009.10212</ele>
        <time>2017-02-23T13:15:50Z</time>
      </trkpt>
      <trkpt lat="45.95045" lon="3.67883">
        <ele>1018.5017933333</ele>
        <time>2017-02-23T13:16:06Z</time>
      </trkpt>
      <trkpt lat="45.95041" lon="3.67872">
        <ele>1022.3016333333</ele>
        <time>2017-02-23T13:16:21Z</time>
      </trkpt>
      <trkpt lat="45.95037" lon="3.67862">
        <ele>1024.40148</ele>
        <time>2017-02-23T13:16:28Z</time>
      </trkpt>
      <trkpt lat="45.95031" lon="3.67854">
        <ele>1026.5012266667</ele>
        <time>2017-02-23T13:16:32Z</time>
      </trkpt>
      <trkpt lat="45.95027" lon="3.67846">
        <ele>1028.20108</ele>
        <time>2017-02-23T13:16:37Z</time>
      </trkpt>
      <trkpt lat="45.95022" lon="3.67838">
        <ele>1030.7008733333</ele>
        <time>2017-02-23T13:16:44Z</time>
      </trkpt>
      <trkpt lat="45.95024" lon="3.6783">
        <ele>1035.60094</ele>
        <time>2017-02-23T13:16:53Z</time>
      </trkpt>
      <trkpt lat="45.95025" lon="3.67818">
        <ele>1038.801</ele>
        <time>2017-02-23T13:16:59Z</time>
      </trkpt>
      <trkpt lat="45.95029" lon="3.67812">
        <ele>1042.1011533333</ele>
        <time>2017-02-23T13:17:06Z</time>
      </trkpt>
      <trkpt lat="45.95035" lon="3.67805">
        <ele>1044.8014066667</ele>
        <time>2017-02-23T13:17:17Z</time>
      </trkpt>
      <trkpt lat="45.95045" lon="3.67806">
        <ele>1046.7017866667</ele>
        <time>2017-02-23T13:17:23Z</time>
      </trkpt>
      <trkpt lat="45.95052" lon="3.678">
        <ele>1053.4020933333</ele>
        <time>2017-02-23T13:17:35Z</time>
      </trkpt>
      <trkpt lat="45.95059" lon="3.67793">
        <ele>1061.00234</ele>
        <time>2017-02-23T13:17:41Z</time>
      </trkpt>
      <trkpt lat="45.95066" lon="3.67778">
        <ele>1065.8026466667</ele>
        <time>2017-02-23T13:17:54Z</time>
      </trkpt>
      <trkpt lat="45.95071" lon="3.67769">
        <ele>1069.30282</ele>
        <time>2017-02-23T13:18:04Z</time>
      </trkpt>
      <trkpt lat="45.95076" lon="3.67758">
        <ele>1073.20302</ele>
        <time>2017-02-23T13:18:08Z</time>
      </trkpt>
      <trkpt lat="45.95077" lon="3.67748">
        <ele>1076.7030666667</ele>
        <time>2017-02-23T13:18:13Z</time>
      </trkpt>
      <trkpt lat="45.95076" lon="3.67736">
        <ele>1078.6030533333</ele>
        <time>2017-02-23T13:18:19Z</time>
      </trkpt>
      <trkpt lat="45.95071" lon="3.67729">
        <ele>1079.5028333333</ele>
        <time>2017-02-23T13:18:23Z</time>
      </trkpt>
      <trkpt lat="45.9507" lon="3.67719">
        <ele>1081.40278</ele>
        <time>2017-02-23T13:18:26Z</time>
      </trkpt>
      <trkpt lat="45.95071" lon="3.6771">
        <ele>1083.2028333333</ele>
        <time>2017-02-23T13:18:28Z</time>
      </trkpt>
      <trkpt lat="45.95067" lon="3.67697">
        <ele>1086.0026866667</ele>
        <time>2017-02-23T13:18:35Z</time>
      </trkpt>
      <trkpt lat="45.95066" lon="3.67693">
        <ele>1087.1026466667</ele>
        <time>2017-02-23T13:18:39Z</time>
      </trkpt>
      <trkpt lat="45.95059" lon="3.6768">
        <ele>1089.1023666667</ele>
        <time>2017-02-23T13:18:43Z</time>
      </trkpt>
      <trkpt lat="45.95053" lon="3.67674">
        <ele>1090.2021266667</ele>
        <time>2017-02-23T13:18:50Z</time>
      </trkpt>
      <trkpt lat="45.95048" lon="3.67669">
        <ele>1090.8019266667</ele>
        <time>2017-02-23T13:18:52Z</time>
      </trkpt>
      <trkpt lat="45.95044" lon="3.67664">
        <ele>1092.40174</ele>
        <time>2017-02-23T13:19:00Z</time>
      </trkpt>
      <trkpt lat="45.9503" lon="3.67652">
        <ele>1095.9011933333</ele>
        <time>2017-02-23T13:19:05Z</time>
      </trkpt>
      <trkpt lat="45.95024" lon="3.67648">
        <ele>1096.5009466667</ele>
        <time>2017-02-23T13:19:09Z</time>
      </trkpt>
      <trkpt lat="45.95018" lon="3.67648">
        <ele>1097.9007066667</ele>
        <time>2017-02-23T13:19:13Z</time>
      </trkpt>
      <trkpt lat="45.95006" lon="3.67635">
        <ele>1100.7002466667</ele>
        <time>2017-02-23T13:19:23Z</time>
      </trkpt>
      <trkpt lat="45.95004" lon="3.67622">
        <ele>1101.3001533333</ele>
        <time>2017-02-23T13:19:30Z</time>
      </trkpt>
      <trkpt lat="45.95004" lon="3.67616">
        <ele>1101.6001666667</ele>
        <time>2017-02-23T13:19:33Z</time>
      </trkpt>
      <trkpt lat="45.95003" lon="3.67602">
        <ele>1102.2001066667</ele>
        <time>2017-02-23T13:19:38Z</time>
      </trkpt>
      <trkpt lat="45.95" lon="3.67599">
        <ele>1102.5</ele>
        <time>2017-02-23T13:19:49Z</time>
      </trkpt>
      <trkpt lat="45.94974" lon="3.67581">
        <ele>1102.7989466667</ele>
        <time>2017-02-23T13:19:54Z</time>
      </trkpt>
      <trkpt lat="45.94966" lon="3.67579">
        <ele>1103.0986333333</ele>
        <time>2017-02-23T13:20:00Z</time>
      </trkpt>
      <trkpt lat="45.9496" lon="3.67579">
        <ele>1103.4984066667</ele>
        <time>2017-02-23T13:20:05Z</time>
      </trkpt>
      <trkpt lat="45.94954" lon="3.6758">
        <ele>1103.69814</ele>
        <time>2017-02-23T13:20:08Z</time>
      </trkpt>
      <trkpt lat="45.94944" lon="3.67592">
        <ele>1103.69774</ele>
        <time>2017-02-23T13:20:21Z</time>
      </trkpt>
      <trkpt lat="45.94937" lon="3.67597">
        <ele>1103.49746</ele>
        <time>2017-02-23T13:20:29Z</time>
      </trkpt>
      <trkpt lat="45.94935" lon="3.67599">
        <ele>1103.5974066667</ele>
        <time>2017-02-23T13:20:30Z</time>
      </trkpt>
      <trkpt lat="45.94928" lon="3.67602">
        <ele>1103.4971266667</ele>
        <time>2017-02-23T13:20:35Z</time>
      </trkpt>
      <trkpt lat="45.94923" lon="3.67604">
        <ele>1103.4969066667</ele>
        <time>2017-02-23T13:20:37Z</time>
      </trkpt>
      <trkpt lat="45.94905" lon="3.67614">
        <ele>1103.6962133333</ele>
        <time>2017-02-23T13:20:45Z</time>
      </trkpt>
      <trkpt lat="45.94893" lon="3.67618">
        <ele>1103.7957066667</ele>
        <time>2017-02-23T13:20:50Z</time>
      </trkpt>
      <trkpt lat="45.94885" lon="3.67621">
        <ele>1103.7954133333</ele>
        <time>2017-02-23T13:20:54Z</time>
      </trkpt>
      <trkpt lat="45.94869" lon="3.67622">
        <ele>1102.6947666667</ele>
        <time>2017-02-23T13:20:59Z</time>
      </trkpt>
      <trkpt lat="45.94858" lon="3.67621">
        <ele>1101.6943</ele>
        <time>2017-02-23T13:21:03Z</time>
      </trkpt>
      <trkpt lat="45.94841" lon="3.67617">
        <ele>1100.3936266667</ele>
        <time>2017-02-23T13:21:08Z</time>
      </trkpt>
      <trkpt lat="45.94828" lon="3.6762">
        <ele>1099.4931133333</ele>
        <time>2017-02-23T13:21:12Z</time>
      </trkpt>
      <trkpt lat="45.94821" lon="3.67619">
        <ele>1099.5928333333</ele>
        <time>2017-02-23T13:21:14Z</time>
      </trkpt>
      <trkpt lat="45.94783" lon="3.67592">
        <ele>1099.1913066667</ele>
        <time>2017-02-23T13:21:27Z</time>
      </trkpt>
      <trkpt lat="45.94755" lon="3.67571">
        <ele>1098.1901933333</ele>
        <time>2017-02-23T13:21:35Z</time>
      </trkpt>
      <trkpt lat="45.94744" lon="3.67562">
        <ele>1097.6897666667</ele>
        <time>2017-02-23T13:21:39Z</time>
      </trkpt>
      <trkpt lat="45.94735" lon="3.67561">
        <ele>1097.4894066667</ele>
        <time>2017-02-23T13:21:42Z</time>
      </trkpt>
      <trkpt lat="45.94692" lon="3.67549">
        <ele>1094.58768</ele>
        <time>2017-02-23T13:21:55Z</time>
      </trkpt>
      <trkpt lat="45.94679" lon="3.67556">
        <ele>1093.88716</ele>
        <time>2017-02-23T13:22:00Z</time>
      </trkpt>
      <trkpt lat="45.94674" lon="3.67559">
        <ele>1093.78694</ele>
        <time>2017-02-23T13:22:05Z</time>
      </trkpt>
      <trkpt lat="45.94661" lon="3.67567">
        <ele>1093.3864533333</ele>
        <time>2017-02-23T13:22:06Z</time>
      </trkpt>
      <trkpt lat="45.94638" lon="3.67566">
        <ele>1092.0855266667</ele>
        <time>2017-02-23T13:22:16Z</time>
      </trkpt>
      <trkpt lat="45.94601" lon="3.67515">
        <ele>1094.1840266667</ele>
        <time>2017-02-23T13:22:29Z</time>
      </trkpt>
      <trkpt lat="45.94588" lon="3.67454">
        <ele>1098.6835266667</ele>
        <time>2017-02-23T13:22:40Z</time>
      </trkpt>
      <trkpt lat="45.94591" lon="3.67441">
        <ele>1100.1836466667</ele>
        <time>2017-02-23T13:22:45Z</time>
      </trkpt>
      <trkpt lat="45.94591" lon="3.67429">
        <ele>1101.5836466667</ele>
        <time>2017-02-23T13:22:48Z</time>
      </trkpt>
      <trkpt lat="45.9459" lon="3.67411">
        <ele>1104.3836066667</ele>
        <time>2017-02-23T13:22:52Z</time>
      </trkpt>
      <trkpt lat="45.94591" lon="3.67404">
        <ele>1104.4836266667</ele>
        <time>2017-02-23T13:22:58Z</time>
      </trkpt>
      <trkpt lat="45.94596" lon="3.67372">
        <ele>1106.7838466667</ele>
        <time>2017-02-23T13:23:03Z</time>
      </trkpt>
      <trkpt lat="45.94599" lon="3.67355">
        <ele>1107.5839466667</ele>
        <time>2017-02-23T13:23:06Z</time>
      </trkpt>
      <trkpt lat="45.946" lon="3.67348">
        <ele>1108.0839866667</ele>
        <time>2017-02-23T13:23:09Z</time>
      </trkpt>
      <trkpt lat="45.94606" lon="3.67327">
        <ele>1108.98422</ele>
        <time>2017-02-23T13:23:13Z</time>
      </trkpt>
      <trkpt lat="45.94608" lon="3.67319">
        <ele>1108.5843133333</ele>
        <time>2017-02-23T13:23:17Z</time>
      </trkpt>
      <trkpt lat="45.94618" lon="3.67292">
        <ele>1107.88472</ele>
        <time>2017-02-23T13:23:20Z</time>
      </trkpt>
      <trkpt lat="45.94628" lon="3.67271">
        <ele>1106.9851066667</ele>
        <time>2017-02-23T13:23:23Z</time>
      </trkpt>
      <trkpt lat="45.94646" lon="3.67242">
        <ele>1105.6858266667</ele>
        <time>2017-02-23T13:23:28Z</time>
      </trkpt>
      <trkpt lat="45.94661" lon="3.67225">
        <ele>1104.6864466667</ele>
        <time>2017-02-23T13:23:30Z</time>
      </trkpt>
      <trkpt lat="45.94683" lon="3.672">
        <ele>1103.1873</ele>
        <time>2017-02-23T13:23:34Z</time>
      </trkpt>
      <trkpt lat="45.94713" lon="3.67179">
        <ele>1101.98852</ele>
        <time>2017-02-23T13:23:40Z</time>
      </trkpt>
      <trkpt lat="45.94745" lon="3.67164">
        <ele>1100.6898</ele>
        <time>2017-02-23T13:23:44Z</time>
      </trkpt>
      <trkpt lat="45.94757" lon="3.67163">
        <ele>1099.4902933333</ele>
        <time>2017-02-23T13:23:48Z</time>
      </trkpt>
      <trkpt lat="45.94771" lon="3.67163">
        <ele>1098.29084</ele>
        <time>2017-02-23T13:23:52Z</time>
      </trkpt>
      <trkpt lat="45.94796" lon="3.67165">
        <ele>1095.6918333333</ele>
        <time>2017-02-23T13:23:57Z</time>
      </trkpt>
      <trkpt lat="45.94819" lon="3.67162">
        <ele>1094.99276</ele>
        <time>2017-02-23T13:24:01Z</time>
      </trkpt>
      <trkpt lat="45.9485" lon="3.67166">
        <ele>1091.9939933333</ele>
        <time>2017-02-23T13:24:04Z</time>
      </trkpt>
      <trkpt lat="45.94873" lon="3.67174">
        <ele>1090.7949066667</ele>
        <time>2017-02-23T13:24:09Z</time>
      </trkpt>
      <trkpt lat="45.949" lon="3.67174">
        <ele>1089.496</ele>
        <time>2017-02-23T13:24:13Z</time>
      </trkpt>
      <trkpt lat="45.94909" lon="3.67164">
        <ele>1087.49634</ele>
        <time>2017-02-23T13:24:17Z</time>
      </trkpt>
      <trkpt lat="45.94905" lon="3.67159">
        <ele>1086.3962</ele>
        <time>2017-02-23T13:24:21Z</time>
      </trkpt>
      <trkpt lat="45.94899" lon="3.67141">
        <ele>1083.3959466667</ele>
        <time>2017-02-23T13:24:23Z</time>
      </trkpt>
      <trkpt lat="45.94869" lon="3.67093">
        <ele>1079.2947666667</ele>
        <time>2017-02-23T13:24:33Z</time>
      </trkpt>
      <trkpt lat="45.94857" lon="3.67071">
        <ele>1076.59426</ele>
        <time>2017-02-23T13:24:41Z</time>
      </trkpt>
      <trkpt lat="45.9478" lon="3.66976">
        <ele>1069.5911866667</ele>
        <time>2017-02-23T13:24:45Z</time>
      </trkpt>
      <trkpt lat="45.94734" lon="3.66942">
        <ele>1066.4893733333</ele>
        <time>2017-02-23T13:24:49Z</time>
      </trkpt>
      <trkpt lat="45.9469" lon="3.66911">
        <ele>1063.9876</ele>
        <time>2017-02-23T13:24:52Z</time>
      </trkpt>
      <trkpt lat="45.94648" lon="3.66872">
        <ele>1061.5859266667</ele>
        <time>2017-02-23T13:24:56Z</time>
      </trkpt>
      <trkpt lat="45.94616" lon="3.66847">
        <ele>1059.6846533333</ele>
        <time>2017-02-23T13:25:00Z</time>
      </trkpt>
      <trkpt lat="45.94593" lon="3.66826">
        <ele>1058.5837133333</ele>
        <time>2017-02-23T13:25:02Z</time>
      </trkpt>
      <trkpt lat="45.94551" lon="3.66798">
        <ele>1056.1820533333</ele>
        <time>2017-02-23T13:25:10Z</time>
      </trkpt>
      <trkpt lat="45.94485" lon="3.66753">
        <ele>1051.1793866667</ele>
        <time>2017-02-23T13:25:12Z</time>
      </trkpt>
      <trkpt lat="45.94476" lon="3.66748">
        <ele>1049.3790533333</ele>
        <time>2017-02-23T13:25:16Z</time>
      </trkpt>
      <trkpt lat="45.94469" lon="3.66742">
        <ele>1048.0787533333</ele>
        <time>2017-02-23T13:25:24Z</time>
      </trkpt>
      <trkpt lat="45.94414" lon="3.667">
        <ele>1038.67656</ele>
        <time>2017-02-23T13:25:24Z</time>
      </trkpt>
      <trkpt lat="45.94398" lon="3.66692">
        <ele>1037.2759266667</ele>
        <time>2017-02-23T13:25:37Z</time>
      </trkpt>
      <trkpt lat="45.94301" lon="3.66632">
        <ele>1022.1720533333</ele>
        <time>2017-02-23T13:25:41Z</time>
      </trkpt>
      <trkpt lat="45.94309" lon="3.66629">
        <ele>1019.37236</ele>
        <time>2017-02-23T13:25:45Z</time>
      </trkpt>
      <trkpt lat="45.94312" lon="3.66627">
        <ele>1018.2724666667</ele>
        <time>2017-02-23T13:25:56Z</time>
      </trkpt>
      <trkpt lat="45.94394" lon="3.66619">
        <ele>1008.17576</ele>
        <time>2017-02-23T13:26:00Z</time>
      </trkpt>
      <trkpt lat="45.9441" lon="3.66617">
        <ele>1006.1763866667</ele>
        <time>2017-02-23T13:26:02Z</time>
      </trkpt>
      <trkpt lat="45.94433" lon="3.66607">
        <ele>1003.07732</ele>
        <time>2017-02-23T13:26:05Z</time>
      </trkpt>
      <trkpt lat="45.94463" lon="3.66599">
        <ele>998.37852</ele>
        <time>2017-02-23T13:26:09Z</time>
      </trkpt>
      <trkpt lat="45.94494" lon="3.66587">
        <ele>993.77976666667</ele>
        <time>2017-02-23T13:26:12Z</time>
      </trkpt>
      <trkpt lat="45.945" lon="3.6658">
        <ele>992.68</ele>
        <time>2017-02-23T13:26:22Z</time>
      </trkpt>
      <trkpt lat="45.94554" lon="3.66477">
        <ele>982.68215333333</ele>
        <time>2017-02-23T13:26:22Z</time>
      </trkpt>
      <trkpt lat="45.9456" lon="3.66446">
        <ele>979.88240666667</ele>
        <time>2017-02-23T13:26:35Z</time>
      </trkpt>
      <trkpt lat="45.946" lon="3.66231">
        <ele>960.684</ele>
        <time>2017-02-23T13:26:39Z</time>
      </trkpt>
      <trkpt lat="45.94609" lon="3.66174">
        <ele>956.18437333333</ele>
        <time>2017-02-23T13:26:43Z</time>
      </trkpt>
      <trkpt lat="45.94611" lon="3.66139">
        <ele>952.98444666667</ele>
        <time>2017-02-23T13:26:45Z</time>
      </trkpt>
      <trkpt lat="45.94602" lon="3.66094">
        <ele>949.08408666667</ele>
        <time>2017-02-23T13:26:49Z</time>
      </trkpt>
      <trkpt lat="45.94593" lon="3.66072">
        <ele>947.58373333333</ele>
        <time>2017-02-23T13:26:51Z</time>
      </trkpt>
      <trkpt lat="45.94562" lon="3.66029">
        <ele>944.38247333333</ele>
        <time>2017-02-23T13:26:56Z</time>
      </trkpt>
      <trkpt lat="45.94541" lon="3.65998">
        <ele>941.78165333333</ele>
        <time>2017-02-23T13:26:59Z</time>
      </trkpt>
      <trkpt lat="45.94527" lon="3.65975">
        <ele>939.08106666667</ele>
        <time>2017-02-23T13:27:08Z</time>
      </trkpt>
      <trkpt lat="45.94455" lon="3.65832">
        <ele>926.17818666667</ele>
        <time>2017-02-23T13:27:13Z</time>
      </trkpt>
      <trkpt lat="45.94365" lon="3.65734">
        <ele>910.17461333333</ele>
        <time>2017-02-23T13:27:26Z</time>
      </trkpt>
      <trkpt lat="45.94352" lon="3.65712">
        <ele>907.87408666667</ele>
        <time>2017-02-23T13:27:39Z</time>
      </trkpt>
      <trkpt lat="45.94265" lon="3.65562">
        <ele>895.3706</ele>
        <time>2017-02-23T13:27:43Z</time>
      </trkpt>
      <trkpt lat="45.94244" lon="3.65549">
        <ele>892.86976</ele>
        <time>2017-02-23T13:27:47Z</time>
      </trkpt>
      <trkpt lat="45.94136" lon="3.65498">
        <ele>881.26544666667</ele>
        <time>2017-02-23T13:28:00Z</time>
      </trkpt>
      <trkpt lat="45.94111" lon="3.65476">
        <ele>879.66443333333</ele>
        <time>2017-02-23T13:28:04Z</time>
      </trkpt>
      <trkpt lat="45.94087" lon="3.65447">
        <ele>877.56349333333</ele>
        <time>2017-02-23T13:28:09Z</time>
      </trkpt>
      <trkpt lat="45.94032" lon="3.6538">
        <ele>871.86128666667</ele>
        <time>2017-02-23T13:28:13Z</time>
      </trkpt>
      <trkpt lat="45.94024" lon="3.65367">
        <ele>870.16094666667</ele>
        <time>2017-02-23T13:28:17Z</time>
      </trkpt>
      <trkpt lat="45.94014" lon="3.65362">
        <ele>866.06056</ele>
        <time>2017-02-23T13:28:21Z</time>
      </trkpt>
      <trkpt lat="45.9401" lon="3.65406">
        <ele>852.46041333333</ele>
        <time>2017-02-23T13:28:34Z</time>
      </trkpt>
      <trkpt lat="45.94018" lon="3.65457">
        <ele>844.66072</ele>
        <time>2017-02-23T13:28:41Z</time>
      </trkpt>
      <trkpt lat="45.94015" lon="3.65496">
        <ele>841.76058666667</ele>
        <time>2017-02-23T13:28:45Z</time>
      </trkpt>
      <trkpt lat="45.94021" lon="3.65526">
        <ele>838.76082</ele>
        <time>2017-02-23T13:28:49Z</time>
      </trkpt>
      <trkpt lat="45.94027" lon="3.65536">
        <ele>837.66108666667</ele>
        <time>2017-02-23T13:28:51Z</time>
      </trkpt>
      <trkpt lat="45.94042" lon="3.65562">
        <ele>835.66168</ele>
        <time>2017-02-23T13:28:56Z</time>
      </trkpt>
      <trkpt lat="45.9405" lon="3.65579">
        <ele>833.76201333333</ele>
        <time>2017-02-23T13:29:00Z</time>
      </trkpt>
      <trkpt lat="45.94054" lon="3.65603">
        <ele>832.06215333333</ele>
        <time>2017-02-23T13:29:04Z</time>
      </trkpt>
      <trkpt lat="45.94057" lon="3.65621">
        <ele>829.66229333333</ele>
        <time>2017-02-23T13:29:08Z</time>
      </trkpt>
      <trkpt lat="45.94065" lon="3.65642">
        <ele>825.66260666667</ele>
        <time>2017-02-23T13:29:13Z</time>
      </trkpt>
      <trkpt lat="45.94065" lon="3.65662">
        <ele>822.86261333333</ele>
        <time>2017-02-23T13:29:17Z</time>
      </trkpt>
      <trkpt lat="45.9406" lon="3.6567">
        <ele>818.96238</ele>
        <time>2017-02-23T13:29:22Z</time>
      </trkpt>
      <trkpt lat="45.94054" lon="3.65675">
        <ele>817.66215333333</ele>
        <time>2017-02-23T13:29:24Z</time>
      </trkpt>
      <trkpt lat="45.9405" lon="3.6568">
        <ele>816.26200666667</ele>
        <time>2017-02-23T13:29:30Z</time>
      </trkpt>
      <trkpt lat="45.94042" lon="3.65706">
        <ele>813.16167333333</ele>
        <time>2017-02-23T13:29:34Z</time>
      </trkpt>
      <trkpt lat="45.94044" lon="3.65715">
        <ele>811.46174</ele>
        <time>2017-02-23T13:29:41Z</time>
      </trkpt>
      <trkpt lat="45.94043" lon="3.65729">
        <ele>807.06172666667</ele>
        <time>2017-02-23T13:29:45Z</time>
      </trkpt>
      <trkpt lat="45.94045" lon="3.65738">
        <ele>803.86178</ele>
        <time>2017-02-23T13:29:49Z</time>
      </trkpt>
      <trkpt lat="45.94041" lon="3.65763">
        <ele>794.36164</ele>
        <time>2017-02-23T13:30:00Z</time>
      </trkpt>
      <trkpt lat="45.9404" lon="3.65774">
        <ele>789.46158</ele>
        <time>2017-02-23T13:30:06Z</time>
      </trkpt>
      <trkpt lat="45.94042" lon="3.65785">
        <ele>784.86168666667</ele>
        <time>2017-02-23T13:30:11Z</time>
      </trkpt>
      <trkpt lat="45.94041" lon="3.65793">
        <ele>782.16164</ele>
        <time>2017-02-23T13:30:18Z</time>
      </trkpt>
      <trkpt lat="45.94035" lon="3.6581">
        <ele>775.86139333333</ele>
        <time>2017-02-23T13:30:21Z</time>
      </trkpt>
      <trkpt lat="45.94042" lon="3.65822">
        <ele>770.96166666667</ele>
        <time>2017-02-23T13:30:26Z</time>
      </trkpt>
      <trkpt lat="45.94047" lon="3.65831">
        <ele>765.36188</ele>
        <time>2017-02-23T13:30:32Z</time>
      </trkpt>
      <trkpt lat="45.94041" lon="3.65841">
        <ele>755.46164666667</ele>
        <time>2017-02-23T13:30:42Z</time>
      </trkpt>
      <trkpt lat="45.94038" lon="3.65851">
        <ele>749.26152666667</ele>
        <time>2017-02-23T13:30:50Z</time>
      </trkpt>
      <trkpt lat="45.9403" lon="3.6585">
        <ele>745.76119333333</ele>
        <time>2017-02-23T13:30:54Z</time>
      </trkpt>
      <trkpt lat="45.94023" lon="3.65848">
        <ele>743.16093333333</ele>
        <time>2017-02-23T13:30:59Z</time>
      </trkpt>
      <trkpt lat="45.94015" lon="3.65808">
        <ele>731.96058</ele>
        <time>2017-02-23T13:31:12Z</time>
      </trkpt>
      <trkpt lat="45.94009" lon="3.65767">
        <ele>720.96034</ele>
        <time>2017-02-23T13:31:25Z</time>
      </trkpt>
      <trkpt lat="45.94009" lon="3.65761">
        <ele>719.46037333333</ele>
        <time>2017-02-23T13:31:31Z</time>
      </trkpt>
      <trkpt lat="45.94007" lon="3.65747">
        <ele>714.26028666667</ele>
        <time>2017-02-23T13:31:34Z</time>
      </trkpt>
      <trkpt lat="45.94004" lon="3.65738">
        <ele>710.56014666667</ele>
        <time>2017-02-23T13:31:39Z</time>
      </trkpt>
      <trkpt lat="45.93999" lon="3.65728">
        <ele>706.95997333333</ele>
        <time>2017-02-23T13:31:43Z</time>
      </trkpt>
      <trkpt lat="45.93997" lon="3.65718">
        <ele>704.15986</ele>
        <time>2017-02-23T13:31:48Z</time>
      </trkpt>
      <trkpt lat="45.93991" lon="3.65707">
        <ele>700.65962666667</ele>
        <time>2017-02-23T13:31:53Z</time>
      </trkpt>
      <trkpt lat="45.93985" lon="3.65701">
        <ele>697.95940666667</ele>
        <time>2017-02-23T13:31:57Z</time>
      </trkpt>
      <trkpt lat="45.93927" lon="3.65768">
        <ele>695.75706666667</ele>
        <time>2017-02-23T13:32:02Z</time>
      </trkpt>
      <trkpt lat="45.93909" lon="3.6578">
        <ele>692.55636666667</ele>
        <time>2017-02-23T13:32:07Z</time>
      </trkpt>
      <trkpt lat="45.939" lon="3.65778">
        <ele>689.85600666667</ele>
        <time>2017-02-23T13:32:11Z</time>
      </trkpt>
      <trkpt lat="45.93895" lon="3.65777">
        <ele>688.65578</ele>
        <time>2017-02-23T13:32:13Z</time>
      </trkpt>
      <trkpt lat="45.9387" lon="3.65781">
        <ele>684.05479333333</ele>
        <time>2017-02-23T13:32:23Z</time>
      </trkpt>
      <trkpt lat="45.93867" lon="3.65782">
        <ele>683.55467333333</ele>
        <time>2017-02-23T13:32:36Z</time>
      </trkpt>
      <trkpt lat="45.93802" lon="3.65799">
        <ele>680.35208666667</ele>
        <time>2017-02-23T13:32:40Z</time>
      </trkpt>
      <trkpt lat="45.93802" lon="3.65811">
        <ele>679.05206666667</ele>
        <time>2017-02-23T13:32:45Z</time>
      </trkpt>
      <trkpt lat="45.93791" lon="3.658">
        <ele>681.85165333333</ele>
        <time>2017-02-23T13:32:50Z</time>
      </trkpt>
      <trkpt lat="45.93791" lon="3.65811">
        <ele>684.65163333333</ele>
        <time>2017-02-23T13:33:06Z</time>
      </trkpt>
      <trkpt lat="45.93791" lon="3.65823">
        <ele>684.75162</ele>
        <time>2017-02-23T13:33:12Z</time>
      </trkpt>
      <trkpt lat="45.9379" lon="3.65825">
        <ele>684.85161333333</ele>
        <time>2017-02-23T13:33:22Z</time>
      </trkpt>
      <trkpt lat="45.93789" lon="3.65849">
        <ele>686.25154</ele>
        <time>2017-02-23T13:33:27Z</time>
      </trkpt>
      <trkpt lat="45.93789" lon="3.6586">
        <ele>687.05154</ele>
        <time>2017-02-23T13:33:34Z</time>
      </trkpt>
      <trkpt lat="45.93787" lon="3.65874">
        <ele>688.15146666667</ele>
        <time>2017-02-23T13:33:41Z</time>
      </trkpt>
      <trkpt lat="45.93787" lon="3.65887">
        <ele>690.05146</ele>
        <time>2017-02-23T13:33:48Z</time>
      </trkpt>
      <trkpt lat="45.93785" lon="3.65898">
        <ele>691.1514</ele>
        <time>2017-02-23T13:33:53Z</time>
      </trkpt>
      <trkpt lat="45.93785" lon="3.65902">
        <ele>691.75140666667</ele>
        <time>2017-02-23T13:33:55Z</time>
      </trkpt>
      <trkpt lat="45.93785" lon="3.65911">
        <ele>693.55141333333</ele>
        <time>2017-02-23T13:34:00Z</time>
      </trkpt>
      <trkpt lat="45.93785" lon="3.6593">
        <ele>697.15141333333</ele>
        <time>2017-02-23T13:34:11Z</time>
      </trkpt>
      <trkpt lat="45.93786" lon="3.65942">
        <ele>699.05144</ele>
        <time>2017-02-23T13:34:18Z</time>
      </trkpt>
      <trkpt lat="45.93788" lon="3.65952">
        <ele>700.9515</ele>
        <time>2017-02-23T13:34:22Z</time>
      </trkpt>
      <trkpt lat="45.93788" lon="3.65962">
        <ele>701.95153333333</ele>
        <time>2017-02-23T13:34:27Z</time>
      </trkpt>
      <trkpt lat="45.9379" lon="3.65974">
        <ele>703.15161333333</ele>
        <time>2017-02-23T13:34:33Z</time>
      </trkpt>
      <trkpt lat="45.9379" lon="3.6598">
        <ele>703.85161333333</ele>
        <time>2017-02-23T13:34:37Z</time>
      </trkpt>
      <trkpt lat="45.93791" lon="3.65991">
        <ele>705.35164666667</ele>
        <time>2017-02-23T13:34:41Z</time>
      </trkpt>
      <trkpt lat="45.93794" lon="3.66003">
        <ele>706.65174</ele>
        <time>2017-02-23T13:34:47Z</time>
      </trkpt>
      <trkpt lat="45.93793" lon="3.66028">
        <ele>709.55173333333</ele>
        <time>2017-02-23T13:35:00Z</time>
      </trkpt>
      <trkpt lat="45.93794" lon="3.66039">
        <ele>710.45176666667</ele>
        <time>2017-02-23T13:35:04Z</time>
      </trkpt>
      <trkpt lat="45.93796" lon="3.66052">
        <ele>710.95182666667</ele>
        <time>2017-02-23T13:35:08Z</time>
      </trkpt>
      <trkpt lat="45.93797" lon="3.66064">
        <ele>711.55189333333</ele>
        <time>2017-02-23T13:35:13Z</time>
      </trkpt>
      <trkpt lat="45.93799" lon="3.66077">
        <ele>712.15194</ele>
        <time>2017-02-23T13:35:17Z</time>
      </trkpt>
      <trkpt lat="45.93799" lon="3.66091">
        <ele>712.85194666667</ele>
        <time>2017-02-23T13:35:21Z</time>
      </trkpt>
      <trkpt lat="45.93799" lon="3.66097">
        <ele>713.35196</ele>
        <time>2017-02-23T13:35:34Z</time>
      </trkpt>
      <trkpt lat="45.93799" lon="3.66121">
        <ele>715.95196</ele>
        <time>2017-02-23T13:35:34Z</time>
      </trkpt>
      <trkpt lat="45.93799" lon="3.66129">
        <ele>716.55194666667</ele>
        <time>2017-02-23T13:35:41Z</time>
      </trkpt>
      <trkpt lat="45.93798" lon="3.66155">
        <ele>718.05193333333</ele>
        <time>2017-02-23T13:35:45Z</time>
      </trkpt>
      <trkpt lat="45.93799" lon="3.66166">
        <ele>718.75196666667</ele>
        <time>2017-02-23T13:35:49Z</time>
      </trkpt>
      <trkpt lat="45.93799" lon="3.66169">
        <ele>718.85197333333</ele>
        <time>2017-02-23T13:36:01Z</time>
      </trkpt>
      <trkpt lat="45.93805" lon="3.66223">
        <ele>721.35218</ele>
        <time>2017-02-23T13:36:04Z</time>
      </trkpt>
      <trkpt lat="45.93807" lon="3.6624">
        <ele>721.85226666667</ele>
        <time>2017-02-23T13:36:08Z</time>
      </trkpt>
      <trkpt lat="45.9381" lon="3.66257">
        <ele>722.6524</ele>
        <time>2017-02-23T13:36:12Z</time>
      </trkpt>
      <trkpt lat="45.93811" lon="3.66262">
        <ele>722.85244</ele>
        <time>2017-02-23T13:36:21Z</time>
      </trkpt>
      <trkpt lat="45.93818" lon="3.66283">
        <ele>723.1527</ele>
        <time>2017-02-23T13:36:23Z</time>
      </trkpt>
      <trkpt lat="45.93822" lon="3.66294">
        <ele>723.25288</ele>
        <time>2017-02-23T13:36:33Z</time>
      </trkpt>
      <trkpt lat="45.93826" lon="3.66322">
        <ele>722.55304666667</ele>
        <time>2017-02-23T13:36:38Z</time>
      </trkpt>
      <trkpt lat="45.93832" lon="3.66351">
        <ele>728.45326</ele>
        <time>2017-02-23T13:36:42Z</time>
      </trkpt>
      <trkpt lat="45.93833" lon="3.6636">
        <ele>728.15332666667</ele>
        <time>2017-02-23T13:36:46Z</time>
      </trkpt>
      <trkpt lat="45.93831" lon="3.6637">
        <ele>727.75325333333</ele>
        <time>2017-02-23T13:36:53Z</time>
      </trkpt>
      <trkpt lat="45.93829" lon="3.6639">
        <ele>734.95315333333</ele>
        <time>2017-02-23T13:36:57Z</time>
      </trkpt>
      <trkpt lat="45.93827" lon="3.66402">
        <ele>734.55308666667</ele>
        <time>2017-02-23T13:37:03Z</time>
      </trkpt>
      <trkpt lat="45.93828" lon="3.66497">
        <ele>776.95313333333</ele>
        <time>2017-02-23T13:37:07Z</time>
      </trkpt>
      <trkpt lat="45.93825" lon="3.66506">
        <ele>784.65300666667</ele>
        <time>2017-02-23T13:37:25Z</time>
      </trkpt>
      <trkpt lat="45.93819" lon="3.66535">
        <ele>793.85274666667</ele>
        <time>2017-02-23T13:37:25Z</time>
      </trkpt>
      <trkpt lat="45.93811" lon="3.66544">
        <ele>795.65243333333</ele>
        <time>2017-02-23T13:37:38Z</time>
      </trkpt>
      <trkpt lat="45.93805" lon="3.66551">
        <ele>795.95218666667</ele>
        <time>2017-02-23T13:37:47Z</time>
      </trkpt>
      <trkpt lat="45.93798" lon="3.66556">
        <ele>795.7519</ele>
        <time>2017-02-23T13:37:53Z</time>
      </trkpt>
      <trkpt lat="45.93788" lon="3.66565">
        <ele>795.45152666667</ele>
        <time>2017-02-23T13:38:00Z</time>
      </trkpt>
      <trkpt lat="45.93782" lon="3.6657">
        <ele>795.15126666667</ele>
        <time>2017-02-23T13:38:04Z</time>
      </trkpt>
      <trkpt lat="45.93773" lon="3.66576">
        <ele>794.85090666667</ele>
        <time>2017-02-23T13:38:08Z</time>
      </trkpt>
      <trkpt lat="45.93761" lon="3.66584">
        <ele>794.45044</ele>
        <time>2017-02-23T13:38:12Z</time>
      </trkpt>
      <trkpt lat="45.93755" lon="3.66587">
        <ele>794.25018</ele>
        <time>2017-02-23T13:38:16Z</time>
      </trkpt>
      <trkpt lat="45.9375" lon="3.66589">
        <ele>794.04998666667</ele>
        <time>2017-02-23T13:38:22Z</time>
      </trkpt>
      <trkpt lat="45.93728" lon="3.66605">
        <ele>793.24910666667</ele>
        <time>2017-02-23T13:38:26Z</time>
      </trkpt>
      <trkpt lat="45.93701" lon="3.66617">
        <ele>791.84805333333</ele>
        <time>2017-02-23T13:38:37Z</time>
      </trkpt>
      <trkpt lat="45.93693" lon="3.66619">
        <ele>791.24772666667</ele>
        <time>2017-02-23T13:38:41Z</time>
      </trkpt>
      <trkpt lat="45.93684" lon="3.66621">
        <ele>790.74734666667</ele>
        <time>2017-02-23T13:38:45Z</time>
      </trkpt>
      <trkpt lat="45.93679" lon="3.66621">
        <ele>790.44714666667</ele>
        <time>2017-02-23T13:38:47Z</time>
      </trkpt>
      <trkpt lat="45.93674" lon="3.66622">
        <ele>790.14696</ele>
        <time>2017-02-23T13:38:52Z</time>
      </trkpt>
      <trkpt lat="45.93654" lon="3.66625">
        <ele>789.04616666667</ele>
        <time>2017-02-23T13:38:56Z</time>
      </trkpt>
      <trkpt lat="45.93638" lon="3.66628">
        <ele>788.94551333333</ele>
        <time>2017-02-23T13:39:00Z</time>
      </trkpt>
      <trkpt lat="45.93615" lon="3.66632">
        <ele>787.54459333333</ele>
        <time>2017-02-23T13:39:13Z</time>
      </trkpt>
      <trkpt lat="45.93572" lon="3.66644">
        <ele>784.84288</ele>
        <time>2017-02-23T13:39:17Z</time>
      </trkpt>
      <trkpt lat="45.93559" lon="3.66653">
        <ele>783.94234</ele>
        <time>2017-02-23T13:39:21Z</time>
      </trkpt>
      <trkpt lat="45.93551" lon="3.6666">
        <ele>783.34202</ele>
        <time>2017-02-23T13:39:23Z</time>
      </trkpt>
      <trkpt lat="45.93506" lon="3.66676">
        <ele>780.54022666667</ele>
        <time>2017-02-23T13:39:33Z</time>
      </trkpt>
      <trkpt lat="45.93484" lon="3.66675">
        <ele>778.83937333333</ele>
        <time>2017-02-23T13:39:37Z</time>
      </trkpt>
      <trkpt lat="45.93473" lon="3.66676">
        <ele>777.93890666667</ele>
        <time>2017-02-23T13:39:41Z</time>
      </trkpt>
      <trkpt lat="45.93464" lon="3.66682">
        <ele>777.13856</ele>
        <time>2017-02-23T13:39:42Z</time>
      </trkpt>
      <trkpt lat="45.9346" lon="3.66685">
        <ele>776.83838666667</ele>
        <time>2017-02-23T13:39:50Z</time>
      </trkpt>
      <trkpt lat="45.93413" lon="3.66725">
        <ele>773.53650666667</ele>
        <time>2017-02-23T13:39:55Z</time>
      </trkpt>
      <trkpt lat="45.93396" lon="3.66748">
        <ele>772.03584666667</ele>
        <time>2017-02-23T13:39:59Z</time>
      </trkpt>
      <trkpt lat="45.93392" lon="3.66752">
        <ele>771.33566666667</ele>
        <time>2017-02-23T13:40:01Z</time>
      </trkpt>
      <trkpt lat="45.93383" lon="3.66753">
        <ele>771.13533333333</ele>
        <time>2017-02-23T13:40:07Z</time>
      </trkpt>
      <trkpt lat="45.9337" lon="3.66757">
        <ele>769.83478</ele>
        <time>2017-02-23T13:40:07Z</time>
      </trkpt>
      <trkpt lat="45.93354" lon="3.66739">
        <ele>770.33417333333</ele>
        <time>2017-02-23T13:40:12Z</time>
      </trkpt>
      <trkpt lat="45.93347" lon="3.66743">
        <ele>769.33387333333</ele>
        <time>2017-02-23T13:40:21Z</time>
      </trkpt>
      <trkpt lat="45.93344" lon="3.66751">
        <ele>774.23375333333</ele>
        <time>2017-02-23T13:40:34Z</time>
      </trkpt>
      <trkpt lat="45.93331" lon="3.66763">
        <ele>774.73324</ele>
        <time>2017-02-23T13:40:42Z</time>
      </trkpt>
      <trkpt lat="45.93298" lon="3.66746">
        <ele>773.93192666667</ele>
        <time>2017-02-23T13:40:46Z</time>
      </trkpt>
      <trkpt lat="45.93259" lon="3.66721">
        <ele>772.73036666667</ele>
        <time>2017-02-23T13:40:51Z</time>
      </trkpt>
      <trkpt lat="45.93223" lon="3.66696">
        <ele>771.52890666667</ele>
        <time>2017-02-23T13:40:56Z</time>
      </trkpt>
      <trkpt lat="45.93201" lon="3.66678">
        <ele>770.32802666667</ele>
        <time>2017-02-23T13:41:00Z</time>
      </trkpt>
      <trkpt lat="45.93175" lon="3.66661">
        <ele>769.02699333333</ele>
        <time>2017-02-23T13:41:04Z</time>
      </trkpt>
      <trkpt lat="45.9314" lon="3.66641">
        <ele>767.22559333333</ele>
        <time>2017-02-23T13:41:09Z</time>
      </trkpt>
      <trkpt lat="45.93102" lon="3.66626">
        <ele>765.62406666667</ele>
        <time>2017-02-23T13:41:13Z</time>
      </trkpt>
      <trkpt lat="45.93092" lon="3.66631">
        <ele>766.02368</ele>
        <time>2017-02-23T13:41:18Z</time>
      </trkpt>
      <trkpt lat="45.93078" lon="3.66633">
        <ele>765.42310666667</ele>
        <time>2017-02-23T13:41:21Z</time>
      </trkpt>
      <trkpt lat="45.93071" lon="3.66633">
        <ele>765.12285333333</ele>
        <time>2017-02-23T13:41:26Z</time>
      </trkpt>
      <trkpt lat="45.9302" lon="3.66647">
        <ele>763.12081333333</ele>
        <time>2017-02-23T13:41:27Z</time>
      </trkpt>
      <trkpt lat="45.92901" lon="3.66654">
        <ele>758.81604</ele>
        <time>2017-02-23T13:41:40Z</time>
      </trkpt>
      <trkpt lat="45.92861" lon="3.66639">
        <ele>757.11444</ele>
        <time>2017-02-23T13:41:44Z</time>
      </trkpt>
      <trkpt lat="45.9274" lon="3.66753">
        <ele>759.70958666667</ele>
        <time>2017-02-23T13:41:48Z</time>
      </trkpt>
      <trkpt lat="45.92758" lon="3.66743">
        <ele>759.01033333333</ele>
        <time>2017-02-23T13:41:53Z</time>
      </trkpt>
      <trkpt lat="45.92855" lon="3.66807">
        <ele>764.81419333333</ele>
        <time>2017-02-23T13:41:58Z</time>
      </trkpt>
      <trkpt lat="45.9289" lon="3.66803">
        <ele>765.71558</ele>
        <time>2017-02-23T13:42:00Z</time>
      </trkpt>
      <trkpt lat="45.92979" lon="3.66773">
        <ele>766.31914666667</ele>
        <time>2017-02-23T13:42:12Z</time>
      </trkpt>
      <trkpt lat="45.93003" lon="3.66757">
        <ele>766.12012</ele>
        <time>2017-02-23T13:42:16Z</time>
      </trkpt>
      <trkpt lat="45.93026" lon="3.66733">
        <ele>765.62102666667</ele>
        <time>2017-02-23T13:42:21Z</time>
      </trkpt>
      <trkpt lat="45.93034" lon="3.66715">
        <ele>765.42136</ele>
        <time>2017-02-23T13:42:25Z</time>
      </trkpt>
      <trkpt lat="45.93047" lon="3.66702">
        <ele>765.12188666667</ele>
        <time>2017-02-23T13:42:29Z</time>
      </trkpt>
      <trkpt lat="45.93051" lon="3.66696">
        <ele>764.82204</ele>
        <time>2017-02-23T13:42:34Z</time>
      </trkpt>
      <trkpt lat="45.93074" lon="3.66658">
        <ele>764.42294666667</ele>
        <time>2017-02-23T13:42:39Z</time>
      </trkpt>
      <trkpt lat="45.93082" lon="3.66628">
        <ele>763.82328666667</ele>
        <time>2017-02-23T13:42:44Z</time>
      </trkpt>
      <trkpt lat="45.93099" lon="3.66587">
        <ele>768.62397333333</ele>
        <time>2017-02-23T13:42:48Z</time>
      </trkpt>
      <trkpt lat="45.93107" lon="3.66578">
        <ele>768.62426</ele>
        <time>2017-02-23T13:42:50Z</time>
      </trkpt>
      <trkpt lat="45.93122" lon="3.66555">
        <ele>768.52486666667</ele>
        <time>2017-02-23T13:42:54Z</time>
      </trkpt>
      <trkpt lat="45.93129" lon="3.66538">
        <ele>767.92515333333</ele>
        <time>2017-02-23T13:42:57Z</time>
      </trkpt>
      <trkpt lat="45.93134" lon="3.66522">
        <ele>767.42537333333</ele>
        <time>2017-02-23T13:43:00Z</time>
      </trkpt>
      <trkpt lat="45.93138" lon="3.66516">
        <ele>766.9255</ele>
        <time>2017-02-23T13:43:02Z</time>
      </trkpt>
      <trkpt lat="45.93144" lon="3.66483">
        <ele>765.82576</ele>
        <time>2017-02-23T13:43:15Z</time>
      </trkpt>
      <trkpt lat="45.93137" lon="3.66482">
        <ele>763.42548666667</ele>
        <time>2017-02-23T13:43:23Z</time>
      </trkpt>
      <trkpt lat="45.93128" lon="3.66485">
        <ele>761.42512</ele>
        <time>2017-02-23T13:43:36Z</time>
      </trkpt>
      <trkpt lat="45.93116" lon="3.66485">
        <ele>761.22464</ele>
        <time>2017-02-23T13:43:47Z</time>
      </trkpt>
      <trkpt lat="45.93108" lon="3.66486">
        <ele>760.82433333333</ele>
        <time>2017-02-23T13:43:54Z</time>
      </trkpt>
      <trkpt lat="45.93087" lon="3.66482">
        <ele>759.62346</ele>
        <time>2017-02-23T13:43:58Z</time>
      </trkpt>
      <trkpt lat="45.93084" lon="3.66482">
        <ele>759.32336</ele>
        <time>2017-02-23T13:44:00Z</time>
      </trkpt>
      <trkpt lat="45.93068" lon="3.6648">
        <ele>759.02272</ele>
        <time>2017-02-23T13:44:11Z</time>
      </trkpt>
      <trkpt lat="45.93051" lon="3.66475">
        <ele>759.52204666667</ele>
        <time>2017-02-23T13:44:17Z</time>
      </trkpt>
      <trkpt lat="45.93036" lon="3.66475">
        <ele>758.42144666667</ele>
        <time>2017-02-23T13:44:21Z</time>
      </trkpt>
      <trkpt lat="45.93022" lon="3.66474">
        <ele>758.12088666667</ele>
        <time>2017-02-23T13:44:25Z</time>
      </trkpt>
      <trkpt lat="45.93015" lon="3.66477">
        <ele>757.62059333333</ele>
        <time>2017-02-23T13:44:30Z</time>
      </trkpt>
      <trkpt lat="45.92986" lon="3.66475">
        <ele>758.11942666667</ele>
        <time>2017-02-23T13:44:34Z</time>
      </trkpt>
      <trkpt lat="45.92966" lon="3.66475">
        <ele>758.61864666667</ele>
        <time>2017-02-23T13:44:38Z</time>
      </trkpt>
      <trkpt lat="45.92948" lon="3.66471">
        <ele>759.11791333333</ele>
        <time>2017-02-23T13:44:42Z</time>
      </trkpt>
      <trkpt lat="45.92937" lon="3.66465">
        <ele>759.41749333333</ele>
        <time>2017-02-23T13:44:46Z</time>
      </trkpt>
      <trkpt lat="45.9292" lon="3.66467">
        <ele>758.91681333333</ele>
        <time>2017-02-23T13:44:51Z</time>
      </trkpt>
      <trkpt lat="45.92913" lon="3.66473">
        <ele>758.81650666667</ele>
        <time>2017-02-23T13:44:53Z</time>
      </trkpt>
      <trkpt lat="45.92886" lon="3.66475">
        <ele>759.11544666667</ele>
        <time>2017-02-23T13:45:00Z</time>
      </trkpt>
      <trkpt lat="45.92881" lon="3.66476">
        <ele>758.91523333333</ele>
        <time>2017-02-23T13:45:12Z</time>
      </trkpt>
      <trkpt lat="45.92822" lon="3.66453">
        <ele>755.91286666667</ele>
        <time>2017-02-23T13:45:17Z</time>
      </trkpt>
      <trkpt lat="45.92815" lon="3.66451">
        <ele>755.6126</ele>
        <time>2017-02-23T13:45:20Z</time>
      </trkpt>
      <trkpt lat="45.92813" lon="3.66451">
        <ele>755.31250666667</ele>
        <time>2017-02-23T13:45:22Z</time>
      </trkpt>
      <trkpt lat="45.92806" lon="3.66442">
        <ele>759.21222</ele>
        <time>2017-02-23T13:45:32Z</time>
      </trkpt>
      <trkpt lat="45.92774" lon="3.66446">
        <ele>758.31094</ele>
        <time>2017-02-23T13:45:37Z</time>
      </trkpt>
      <trkpt lat="45.9276" lon="3.66442">
        <ele>757.41040666667</ele>
        <time>2017-02-23T13:45:39Z</time>
      </trkpt>
      <trkpt lat="45.92746" lon="3.66442">
        <ele>756.60982</ele>
        <time>2017-02-23T13:45:44Z</time>
      </trkpt>
      <trkpt lat="45.92705" lon="3.66436">
        <ele>754.9082</ele>
        <time>2017-02-23T13:45:49Z</time>
      </trkpt>
      <trkpt lat="45.92697" lon="3.66432">
        <ele>754.00786</ele>
        <time>2017-02-23T13:45:54Z</time>
      </trkpt>
      <trkpt lat="45.92687" lon="3.6643">
        <ele>753.70749333333</ele>
        <time>2017-02-23T13:45:56Z</time>
      </trkpt>
      <trkpt lat="45.92669" lon="3.66417">
        <ele>752.40676666667</ele>
        <time>2017-02-23T13:46:00Z</time>
      </trkpt>
      <trkpt lat="45.92643" lon="3.66405">
        <ele>750.8057</ele>
        <time>2017-02-23T13:46:05Z</time>
      </trkpt>
      <trkpt lat="45.92624" lon="3.66393">
        <ele>752.30494666667</ele>
        <time>2017-02-23T13:46:09Z</time>
      </trkpt>
      <trkpt lat="45.9262" lon="3.6639">
        <ele>753.00479333333</ele>
        <time>2017-02-23T13:46:11Z</time>
      </trkpt>
      <trkpt lat="45.92609" lon="3.66356">
        <ele>753.60436666667</ele>
        <time>2017-02-23T13:46:15Z</time>
      </trkpt>
      <trkpt lat="45.92606" lon="3.66316">
        <ele>751.50424</ele>
        <time>2017-02-23T13:46:19Z</time>
      </trkpt>
      <trkpt lat="45.92604" lon="3.66302">
        <ele>751.90417333333</ele>
        <time>2017-02-23T13:46:23Z</time>
      </trkpt>
      <trkpt lat="45.92603" lon="3.66298">
        <ele>753.00413333333</ele>
        <time>2017-02-23T13:46:26Z</time>
      </trkpt>
      <trkpt lat="45.92606" lon="3.66279">
        <ele>750.70425333333</ele>
        <time>2017-02-23T13:46:30Z</time>
      </trkpt>
      <trkpt lat="45.92608" lon="3.6627">
        <ele>750.5043</ele>
        <time>2017-02-23T13:46:32Z</time>
      </trkpt>
      <trkpt lat="45.9261" lon="3.66257">
        <ele>750.10439333333</ele>
        <time>2017-02-23T13:46:37Z</time>
      </trkpt>
      <trkpt lat="45.92613" lon="3.66237">
        <ele>749.60452666667</ele>
        <time>2017-02-23T13:46:41Z</time>
      </trkpt>
      <trkpt lat="45.92611" lon="3.66226">
        <ele>749.40444</ele>
        <time>2017-02-23T13:46:46Z</time>
      </trkpt>
      <trkpt lat="45.92616" lon="3.66205">
        <ele>750.30462666667</ele>
        <time>2017-02-23T13:46:50Z</time>
      </trkpt>
      <trkpt lat="45.92621" lon="3.66185">
        <ele>751.40484</ele>
        <time>2017-02-23T13:46:54Z</time>
      </trkpt>
      <trkpt lat="45.92622" lon="3.66167">
        <ele>753.00488666667</ele>
        <time>2017-02-23T13:46:59Z</time>
      </trkpt>
      <trkpt lat="45.92625" lon="3.66158">
        <ele>753.20498</ele>
        <time>2017-02-23T13:47:05Z</time>
      </trkpt>
      <trkpt lat="45.9263" lon="3.66147">
        <ele>754.8052</ele>
        <time>2017-02-23T13:47:09Z</time>
      </trkpt>
      <trkpt lat="45.92634" lon="3.66135">
        <ele>757.30534</ele>
        <time>2017-02-23T13:47:14Z</time>
      </trkpt>
      <trkpt lat="45.92637" lon="3.66123">
        <ele>758.20547333333</ele>
        <time>2017-02-23T13:47:18Z</time>
      </trkpt>
      <trkpt lat="45.92646" lon="3.66098">
        <ele>757.60585333333</ele>
        <time>2017-02-23T13:47:22Z</time>
      </trkpt>
      <trkpt lat="45.92643" lon="3.66062">
        <ele>755.80573333333</ele>
        <time>2017-02-23T13:47:27Z</time>
      </trkpt>
      <trkpt lat="45.9264" lon="3.66058">
        <ele>755.40560666667</ele>
        <time>2017-02-23T13:47:34Z</time>
      </trkpt>
      <trkpt lat="45.9261" lon="3.66019">
        <ele>751.1044</ele>
        <time>2017-02-23T13:47:39Z</time>
      </trkpt>
      <trkpt lat="45.92601" lon="3.66006">
        <ele>748.90404</ele>
        <time>2017-02-23T13:47:42Z</time>
      </trkpt>
      <trkpt lat="45.92588" lon="3.65997">
        <ele>746.9035</ele>
        <time>2017-02-23T13:47:47Z</time>
      </trkpt>
      <trkpt lat="45.92563" lon="3.65985">
        <ele>745.00250666667</ele>
        <time>2017-02-23T13:47:52Z</time>
      </trkpt>
      <trkpt lat="45.92552" lon="3.65974">
        <ele>743.70206</ele>
        <time>2017-02-23T13:47:54Z</time>
      </trkpt>
      <trkpt lat="45.92546" lon="3.65944">
        <ele>739.90183333333</ele>
        <time>2017-02-23T13:48:00Z</time>
      </trkpt>
      <trkpt lat="45.92563" lon="3.65919">
        <ele>737.20250666667</ele>
        <time>2017-02-23T13:48:05Z</time>
      </trkpt>
      <trkpt lat="45.92567" lon="3.65913">
        <ele>736.50266</ele>
        <time>2017-02-23T13:48:07Z</time>
      </trkpt>
      <trkpt lat="45.9257" lon="3.65907">
        <ele>736.00280666667</ele>
        <time>2017-02-23T13:48:13Z</time>
      </trkpt>
      <trkpt lat="45.92612" lon="3.65872">
        <ele>730.00448</ele>
        <time>2017-02-23T13:48:18Z</time>
      </trkpt>
      <trkpt lat="45.92621" lon="3.65871">
        <ele>729.00482</ele>
        <time>2017-02-23T13:48:18Z</time>
      </trkpt>
      <trkpt lat="45.92644" lon="3.65872">
        <ele>724.60574</ele>
        <time>2017-02-23T13:48:24Z</time>
      </trkpt>
      <trkpt lat="45.92685" lon="3.65866">
        <ele>721.30740666667</ele>
        <time>2017-02-23T13:48:33Z</time>
      </trkpt>
      <trkpt lat="45.92691" lon="3.65866">
        <ele>722.90764666667</ele>
        <time>2017-02-23T13:48:35Z</time>
      </trkpt>
      <trkpt lat="45.92709" lon="3.65872">
        <ele>732.90834666667</ele>
        <time>2017-02-23T13:48:40Z</time>
      </trkpt>
      <trkpt lat="45.92716" lon="3.65893">
        <ele>733.90865333333</ele>
        <time>2017-02-23T13:48:45Z</time>
      </trkpt>
      <trkpt lat="45.92723" lon="3.65905">
        <ele>733.70892</ele>
        <time>2017-02-23T13:48:48Z</time>
      </trkpt>
      <trkpt lat="45.92732" lon="3.65906">
        <ele>737.90927333333</ele>
        <time>2017-02-23T13:48:57Z</time>
      </trkpt>
      <trkpt lat="45.92736" lon="3.65911">
        <ele>738.00945333333</ele>
        <time>2017-02-23T13:49:00Z</time>
      </trkpt>
      <trkpt lat="45.92743" lon="3.65903">
        <ele>737.1097</ele>
        <time>2017-02-23T13:49:07Z</time>
      </trkpt>
      <trkpt lat="45.92753" lon="3.65875">
        <ele>733.41012</ele>
        <time>2017-02-23T13:49:12Z</time>
      </trkpt>
      <trkpt lat="45.92754" lon="3.65864">
        <ele>732.81016666667</ele>
        <time>2017-02-23T13:49:17Z</time>
      </trkpt>
      <trkpt lat="45.92754" lon="3.65846">
        <ele>731.71016666667</ele>
        <time>2017-02-23T13:49:19Z</time>
      </trkpt>
      <trkpt lat="45.92755" lon="3.65841">
        <ele>731.61018</ele>
        <time>2017-02-23T13:49:26Z</time>
      </trkpt>
      <trkpt lat="45.9276" lon="3.65818">
        <ele>731.01040666667</ele>
        <time>2017-02-23T13:49:26Z</time>
      </trkpt>
      <trkpt lat="45.92753" lon="3.6576">
        <ele>727.91012</ele>
        <time>2017-02-23T13:49:38Z</time>
      </trkpt>
      <trkpt lat="45.92751" lon="3.65712">
        <ele>727.71002</ele>
        <time>2017-02-23T13:49:47Z</time>
      </trkpt>
      <trkpt lat="45.92752" lon="3.65692">
        <ele>727.81007333333</ele>
        <time>2017-02-23T13:49:50Z</time>
      </trkpt>
      <trkpt lat="45.92749" lon="3.65671">
        <ele>727.80996666667</ele>
        <time>2017-02-23T13:49:54Z</time>
      </trkpt>
      <trkpt lat="45.9274" lon="3.65638">
        <ele>727.00959333333</ele>
        <time>2017-02-23T13:50:00Z</time>
      </trkpt>
      <trkpt lat="45.92731" lon="3.65618">
        <ele>726.90925333333</ele>
        <time>2017-02-23T13:50:04Z</time>
      </trkpt>
      <trkpt lat="45.92722" lon="3.65601">
        <ele>727.30886666667</ele>
        <time>2017-02-23T13:50:07Z</time>
      </trkpt>
      <trkpt lat="45.92715" lon="3.65593">
        <ele>727.10858666667</ele>
        <time>2017-02-23T13:50:10Z</time>
      </trkpt>
      <trkpt lat="45.92695" lon="3.65571">
        <ele>727.20780666667</ele>
        <time>2017-02-23T13:50:15Z</time>
      </trkpt>
      <trkpt lat="45.92684" lon="3.65554">
        <ele>727.70734666667</ele>
        <time>2017-02-23T13:50:19Z</time>
      </trkpt>
      <trkpt lat="45.92661" lon="3.65506">
        <ele>726.20645333333</ele>
        <time>2017-02-23T13:50:33Z</time>
      </trkpt>
      <trkpt lat="45.92656" lon="3.65494">
        <ele>725.20624</ele>
        <time>2017-02-23T13:50:46Z</time>
      </trkpt>
      <trkpt lat="45.92612" lon="3.65422">
        <ele>722.00449333333</ele>
        <time>2017-02-23T13:50:51Z</time>
      </trkpt>
      <trkpt lat="45.92598" lon="3.65403">
        <ele>720.00392666667</ele>
        <time>2017-02-23T13:50:55Z</time>
      </trkpt>
      <trkpt lat="45.92585" lon="3.65397">
        <ele>719.40338</ele>
        <time>2017-02-23T13:51:00Z</time>
      </trkpt>
      <trkpt lat="45.92551" lon="3.65375">
        <ele>715.40204</ele>
        <time>2017-02-23T13:51:04Z</time>
      </trkpt>
      <trkpt lat="45.92547" lon="3.65374">
        <ele>715.10188</ele>
        <time>2017-02-23T13:51:06Z</time>
      </trkpt>
      <trkpt lat="45.92541" lon="3.6537">
        <ele>714.70164666667</ele>
        <time>2017-02-23T13:51:20Z</time>
      </trkpt>
      <trkpt lat="45.9251" lon="3.65348">
        <ele>711.90041333333</ele>
        <time>2017-02-23T13:51:20Z</time>
      </trkpt>
      <trkpt lat="45.92491" lon="3.65343">
        <ele>709.59962666667</ele>
        <time>2017-02-23T13:51:33Z</time>
      </trkpt>
      <trkpt lat="45.92489" lon="3.65342">
        <ele>708.89955333333</ele>
        <time>2017-02-23T13:51:35Z</time>
      </trkpt>
      <trkpt lat="45.92478" lon="3.65342">
        <ele>706.69910666667</ele>
        <time>2017-02-23T13:51:44Z</time>
      </trkpt>
      <trkpt lat="45.92463" lon="3.65345">
        <ele>705.79853333333</ele>
        <time>2017-02-23T13:51:49Z</time>
      </trkpt>
      <trkpt lat="45.92455" lon="3.65346">
        <ele>705.59818</ele>
        <time>2017-02-23T13:51:55Z</time>
      </trkpt>
      <trkpt lat="45.92446" lon="3.65349">
        <ele>705.49785333333</ele>
        <time>2017-02-23T13:52:00Z</time>
      </trkpt>
      <trkpt lat="45.92439" lon="3.65352">
        <ele>704.79756666667</ele>
        <time>2017-02-23T13:52:03Z</time>
      </trkpt>
      <trkpt lat="45.92432" lon="3.65356">
        <ele>704.39726666667</ele>
        <time>2017-02-23T13:52:16Z</time>
      </trkpt>
      <trkpt lat="45.9241" lon="3.65364">
        <ele>704.49638</ele>
        <time>2017-02-23T13:52:21Z</time>
      </trkpt>
      <trkpt lat="45.92403" lon="3.65361">
        <ele>704.69612666667</ele>
        <time>2017-02-23T13:52:24Z</time>
      </trkpt>
      <trkpt lat="45.92398" lon="3.65358">
        <ele>704.89591333333</ele>
        <time>2017-02-23T13:52:26Z</time>
      </trkpt>
      <trkpt lat="45.92378" lon="3.65343">
        <ele>708.29512</ele>
        <time>2017-02-23T13:52:35Z</time>
      </trkpt>
      <trkpt lat="45.92358" lon="3.65317">
        <ele>712.69432</ele>
        <time>2017-02-23T13:52:46Z</time>
      </trkpt>
      <trkpt lat="45.92353" lon="3.65311">
        <ele>713.49410666667</ele>
        <time>2017-02-23T13:52:49Z</time>
      </trkpt>
      <trkpt lat="45.92344" lon="3.65306">
        <ele>714.69377333333</ele>
        <time>2017-02-23T13:52:56Z</time>
      </trkpt>
      <trkpt lat="45.92338" lon="3.653">
        <ele>715.19351333333</ele>
        <time>2017-02-23T13:53:00Z</time>
      </trkpt>
      <trkpt lat="45.92331" lon="3.65298">
        <ele>715.19324666667</ele>
        <time>2017-02-23T13:53:08Z</time>
      </trkpt>
      <trkpt lat="45.92325" lon="3.65297">
        <ele>715.39300666667</ele>
        <time>2017-02-23T13:53:11Z</time>
      </trkpt>
      <trkpt lat="45.92314" lon="3.65297">
        <ele>715.99256</ele>
        <time>2017-02-23T13:53:18Z</time>
      </trkpt>
      <trkpt lat="45.9231" lon="3.65298">
        <ele>716.19239333333</ele>
        <time>2017-02-23T13:53:20Z</time>
      </trkpt>
      <trkpt lat="45.92301" lon="3.65298">
        <ele>716.39203333333</ele>
        <time>2017-02-23T13:53:24Z</time>
      </trkpt>
      <trkpt lat="45.92296" lon="3.65298">
        <ele>716.69183333333</ele>
        <time>2017-02-23T13:53:26Z</time>
      </trkpt>
      <trkpt lat="45.92278" lon="3.65295">
        <ele>716.59110666667</ele>
        <time>2017-02-23T13:53:33Z</time>
      </trkpt>
      <trkpt lat="45.92266" lon="3.65295">
        <ele>717.69064666667</ele>
        <time>2017-02-23T13:53:37Z</time>
      </trkpt>
      <trkpt lat="45.92256" lon="3.65297">
        <ele>718.19022666667</ele>
        <time>2017-02-23T13:53:42Z</time>
      </trkpt>
      <trkpt lat="45.92246" lon="3.653">
        <ele>717.88982666667</ele>
        <time>2017-02-23T13:53:46Z</time>
      </trkpt>
      <trkpt lat="45.92231" lon="3.65302">
        <ele>716.88924</ele>
        <time>2017-02-23T13:53:50Z</time>
      </trkpt>
      <trkpt lat="45.92222" lon="3.65305">
        <ele>715.98886666667</ele>
        <time>2017-02-23T13:53:54Z</time>
      </trkpt>
      <trkpt lat="45.9221" lon="3.65309">
        <ele>715.18839333333</ele>
        <time>2017-02-23T13:53:57Z</time>
      </trkpt>
      <trkpt lat="45.922" lon="3.65312">
        <ele>714.188</ele>
        <time>2017-02-23T13:54:02Z</time>
      </trkpt>
      <trkpt lat="45.9219" lon="3.65322">
        <ele>712.78761333333</ele>
        <time>2017-02-23T13:54:06Z</time>
      </trkpt>
      <trkpt lat="45.92185" lon="3.65328">
        <ele>711.78738</ele>
        <time>2017-02-23T13:54:10Z</time>
      </trkpt>
      <trkpt lat="45.92172" lon="3.65333">
        <ele>710.58688666667</ele>
        <time>2017-02-23T13:54:14Z</time>
      </trkpt>
      <trkpt lat="45.92165" lon="3.65338">
        <ele>710.08661333333</ele>
        <time>2017-02-23T13:54:16Z</time>
      </trkpt>
      <trkpt lat="45.92152" lon="3.65351">
        <ele>708.48609333333</ele>
        <time>2017-02-23T13:54:21Z</time>
      </trkpt>
      <trkpt lat="45.92147" lon="3.65355">
        <ele>708.08586666667</ele>
        <time>2017-02-23T13:54:23Z</time>
      </trkpt>
      <trkpt lat="45.92143" lon="3.65359">
        <ele>707.78572</ele>
        <time>2017-02-23T13:54:32Z</time>
      </trkpt>
      <trkpt lat="45.92119" lon="3.65378">
        <ele>706.08475333333</ele>
        <time>2017-02-23T13:54:37Z</time>
      </trkpt>
      <trkpt lat="45.92108" lon="3.65384">
        <ele>704.5843</ele>
        <time>2017-02-23T13:54:42Z</time>
      </trkpt>
      <trkpt lat="45.92094" lon="3.65391">
        <ele>703.68377333333</ele>
        <time>2017-02-23T13:54:46Z</time>
      </trkpt>
      <trkpt lat="45.92085" lon="3.65396">
        <ele>702.68340666667</ele>
        <time>2017-02-23T13:54:50Z</time>
      </trkpt>
      <trkpt lat="45.92079" lon="3.65399">
        <ele>701.78314666667</ele>
        <time>2017-02-23T13:54:56Z</time>
      </trkpt>
      <trkpt lat="45.92075" lon="3.65401">
        <ele>701.48300666667</ele>
        <time>2017-02-23T13:55:00Z</time>
      </trkpt>
      <trkpt lat="45.92064" lon="3.65409">
        <ele>701.08254</ele>
        <time>2017-02-23T13:55:02Z</time>
      </trkpt>
      <trkpt lat="45.92045" lon="3.65421">
        <ele>700.28181333333</ele>
        <time>2017-02-23T13:55:07Z</time>
      </trkpt>
      <trkpt lat="45.92041" lon="3.6543">
        <ele>700.28164</ele>
        <time>2017-02-23T13:55:11Z</time>
      </trkpt>
      <trkpt lat="45.92037" lon="3.65435">
        <ele>700.78146</ele>
        <time>2017-02-23T13:55:14Z</time>
      </trkpt>
      <trkpt lat="45.92033" lon="3.65437">
        <ele>700.78132666667</ele>
        <time>2017-02-23T13:55:19Z</time>
      </trkpt>
      <trkpt lat="45.9201" lon="3.6544">
        <ele>704.48038666667</ele>
        <time>2017-02-23T13:55:22Z</time>
      </trkpt>
      <trkpt lat="45.92" lon="3.65444">
        <ele>706.38000666667</ele>
        <time>2017-02-23T13:55:25Z</time>
      </trkpt>
      <trkpt lat="45.91995" lon="3.65449">
        <ele>707.67980666667</ele>
        <time>2017-02-23T13:55:28Z</time>
      </trkpt>
      <trkpt lat="45.91987" lon="3.65453">
        <ele>709.07949333333</ele>
        <time>2017-02-23T13:55:32Z</time>
      </trkpt>
      <trkpt lat="45.91983" lon="3.65455">
        <ele>709.27932666667</ele>
        <time>2017-02-23T13:55:38Z</time>
      </trkpt>
      <trkpt lat="45.91971" lon="3.65459">
        <ele>709.67885333333</ele>
        <time>2017-02-23T13:55:41Z</time>
      </trkpt>
      <trkpt lat="45.91964" lon="3.6546">
        <ele>710.27854</ele>
        <time>2017-02-23T13:55:45Z</time>
      </trkpt>
      <trkpt lat="45.91954" lon="3.65461">
        <ele>710.57816</ele>
        <time>2017-02-23T13:55:49Z</time>
      </trkpt>
      <trkpt lat="45.91943" lon="3.65462">
        <ele>712.77771333333</ele>
        <time>2017-02-23T13:55:52Z</time>
      </trkpt>
      <trkpt lat="45.91938" lon="3.6546">
        <ele>713.07751333333</ele>
        <time>2017-02-23T13:55:55Z</time>
      </trkpt>
      <trkpt lat="45.9193" lon="3.65452">
        <ele>715.57718</ele>
        <time>2017-02-23T13:55:59Z</time>
      </trkpt>
      <trkpt lat="45.91922" lon="3.65443">
        <ele>718.57687333333</ele>
        <time>2017-02-23T13:56:03Z</time>
      </trkpt>
      <trkpt lat="45.91919" lon="3.6544">
        <ele>719.17674</ele>
        <time>2017-02-23T13:56:06Z</time>
      </trkpt>
      <trkpt lat="45.91914" lon="3.65434">
        <ele>719.57656666667</ele>
        <time>2017-02-23T13:56:14Z</time>
      </trkpt>
      <trkpt lat="45.91909" lon="3.65425">
        <ele>720.67635333333</ele>
        <time>2017-02-23T13:56:19Z</time>
      </trkpt>
      <trkpt lat="45.91908" lon="3.65416">
        <ele>722.77632</ele>
        <time>2017-02-23T13:56:22Z</time>
      </trkpt>
      <trkpt lat="45.91904" lon="3.65407">
        <ele>723.97614</ele>
        <time>2017-02-23T13:56:30Z</time>
      </trkpt>
      <trkpt lat="45.91896" lon="3.65395">
        <ele>725.57584</ele>
        <time>2017-02-23T13:56:34Z</time>
      </trkpt>
      <trkpt lat="45.9189" lon="3.65386">
        <ele>728.2756</ele>
        <time>2017-02-23T13:56:37Z</time>
      </trkpt>
      <trkpt lat="45.91881" lon="3.65383">
        <ele>730.47522666667</ele>
        <time>2017-02-23T13:56:41Z</time>
      </trkpt>
      <trkpt lat="45.91876" lon="3.65381">
        <ele>731.47504</ele>
        <time>2017-02-23T13:56:43Z</time>
      </trkpt>
      <trkpt lat="45.91861" lon="3.65379">
        <ele>734.37445333333</ele>
        <time>2017-02-23T13:56:48Z</time>
      </trkpt>
      <trkpt lat="45.91855" lon="3.65381">
        <ele>735.57418666667</ele>
        <time>2017-02-23T13:56:51Z</time>
      </trkpt>
      <trkpt lat="45.9185" lon="3.65382">
        <ele>736.17399333333</ele>
        <time>2017-02-23T13:56:53Z</time>
      </trkpt>
      <trkpt lat="45.91842" lon="3.65389">
        <ele>737.57366</ele>
        <time>2017-02-23T13:56:59Z</time>
      </trkpt>
      <trkpt lat="45.91836" lon="3.65399">
        <ele>738.07343333333</ele>
        <time>2017-02-23T13:57:04Z</time>
      </trkpt>
      <trkpt lat="45.91831" lon="3.65408">
        <ele>738.57322</ele>
        <time>2017-02-23T13:57:08Z</time>
      </trkpt>
      <trkpt lat="45.91826" lon="3.65419">
        <ele>739.17302</ele>
        <time>2017-02-23T13:57:19Z</time>
      </trkpt>
      <trkpt lat="45.91818" lon="3.65431">
        <ele>740.87272666667</ele>
        <time>2017-02-23T13:57:21Z</time>
      </trkpt>
      <trkpt lat="45.91804" lon="3.65457">
        <ele>742.97216666667</ele>
        <time>2017-02-23T13:57:35Z</time>
      </trkpt>
      <trkpt lat="45.918" lon="3.65464">
        <ele>744.57198666667</ele>
        <time>2017-02-23T13:57:40Z</time>
      </trkpt>
      <trkpt lat="45.91795" lon="3.65474">
        <ele>745.17181333333</ele>
        <time>2017-02-23T13:57:43Z</time>
      </trkpt>
      <trkpt lat="45.91792" lon="3.6549">
        <ele>746.07166</ele>
        <time>2017-02-23T13:57:49Z</time>
      </trkpt>
      <trkpt lat="45.91789" lon="3.65501">
        <ele>746.57154666667</ele>
        <time>2017-02-23T13:58:00Z</time>
      </trkpt>
      <trkpt lat="45.91783" lon="3.65535">
        <ele>747.57132</ele>
        <time>2017-02-23T13:58:04Z</time>
      </trkpt>
      <trkpt lat="45.91781" lon="3.65545">
        <ele>747.37124</ele>
        <time>2017-02-23T13:58:08Z</time>
      </trkpt>
      <trkpt lat="45.9178" lon="3.65559">
        <ele>747.07118666667</ele>
        <time>2017-02-23T13:58:13Z</time>
      </trkpt>
      <trkpt lat="45.9178" lon="3.65572">
        <ele>746.87118</ele>
        <time>2017-02-23T13:58:17Z</time>
      </trkpt>
      <trkpt lat="45.91778" lon="3.65583">
        <ele>746.87112666667</ele>
        <time>2017-02-23T13:58:21Z</time>
      </trkpt>
      <trkpt lat="45.91777" lon="3.65588">
        <ele>746.67107333333</ele>
        <time>2017-02-23T13:58:27Z</time>
      </trkpt>
      <trkpt lat="45.91775" lon="3.65601">
        <ele>746.77098</ele>
        <time>2017-02-23T13:58:40Z</time>
      </trkpt>
      <trkpt lat="45.91753" lon="3.65635">
        <ele>748.57010666667</ele>
        <time>2017-02-23T13:58:40Z</time>
      </trkpt>
      <trkpt lat="45.91752" lon="3.65637">
        <ele>748.57006</ele>
        <time>2017-02-23T13:58:47Z</time>
      </trkpt>
      <trkpt lat="45.91742" lon="3.65654">
        <ele>749.46968</ele>
        <time>2017-02-23T13:58:50Z</time>
      </trkpt>
      <trkpt lat="45.9174" lon="3.65653">
        <ele>750.06960666667</ele>
        <time>2017-02-23T13:59:02Z</time>
      </trkpt>
      <trkpt lat="45.91737" lon="3.65666">
        <ele>753.16948666667</ele>
        <time>2017-02-23T13:59:03Z</time>
      </trkpt>
      <trkpt lat="45.91739" lon="3.65671">
        <ele>754.46956</ele>
        <time>2017-02-23T13:59:16Z</time>
      </trkpt>
      <trkpt lat="45.91747" lon="3.6568">
        <ele>757.36989333333</ele>
        <time>2017-02-23T13:59:20Z</time>
      </trkpt>
      <trkpt lat="45.91747" lon="3.6568">
        <ele>757.36989333333</ele>
        <time>2017-02-23T13:59:38Z</time>
      </trkpt>
      <trkpt lat="45.91739" lon="3.65673">
        <ele>761.16954666667</ele>
        <time>2017-02-23T13:59:43Z</time>
      </trkpt>
      <trkpt lat="45.9173" lon="3.65677">
        <ele>764.86921333333</ele>
        <time>2017-02-23T14:00:03Z</time>
      </trkpt>
      <trkpt lat="45.91723" lon="3.65679">
        <ele>765.36893333333</ele>
        <time>2017-02-23T14:00:11Z</time>
      </trkpt>
      <trkpt lat="45.91709" lon="3.65677">
        <ele>765.36834666667</ele>
        <time>2017-02-23T14:00:13Z</time>
      </trkpt>
      <trkpt lat="45.91693" lon="3.65675">
        <ele>764.56771333333</ele>
        <time>2017-02-23T14:00:18Z</time>
      </trkpt>
      <trkpt lat="45.91677" lon="3.65673">
        <ele>763.66706</ele>
        <time>2017-02-23T14:00:22Z</time>
      </trkpt>
      <trkpt lat="45.91664" lon="3.65662">
        <ele>762.56654</ele>
        <time>2017-02-23T14:00:27Z</time>
      </trkpt>
      <trkpt lat="45.91649" lon="3.6564">
        <ele>761.76596</ele>
        <time>2017-02-23T14:00:33Z</time>
      </trkpt>
      <trkpt lat="45.91623" lon="3.65601">
        <ele>759.56492</ele>
        <time>2017-02-23T14:00:46Z</time>
      </trkpt>
      <trkpt lat="45.91615" lon="3.65589">
        <ele>759.1646</ele>
        <time>2017-02-23T14:00:48Z</time>
      </trkpt>
      <trkpt lat="45.916" lon="3.65567">
        <ele>758.26401333333</ele>
        <time>2017-02-23T14:00:52Z</time>
      </trkpt>
      <trkpt lat="45.91592" lon="3.65554">
        <ele>758.26366666667</ele>
        <time>2017-02-23T14:00:54Z</time>
      </trkpt>
      <trkpt lat="45.91571" lon="3.65531">
        <ele>757.66285333333</ele>
        <time>2017-02-23T14:01:00Z</time>
      </trkpt>
      <trkpt lat="45.91549" lon="3.65507">
        <ele>757.46194666667</ele>
        <time>2017-02-23T14:01:04Z</time>
      </trkpt>
      <trkpt lat="45.91489" lon="3.65447">
        <ele>757.15954666667</ele>
        <time>2017-02-23T14:01:17Z</time>
      </trkpt>
      <trkpt lat="45.91448" lon="3.65398">
        <ele>756.95790666667</ele>
        <time>2017-02-23T14:01:30Z</time>
      </trkpt>
      <trkpt lat="45.91436" lon="3.65369">
        <ele>757.05745333333</ele>
        <time>2017-02-23T14:01:34Z</time>
      </trkpt>
      <trkpt lat="45.9143" lon="3.65345">
        <ele>757.05720666667</ele>
        <time>2017-02-23T14:01:38Z</time>
      </trkpt>
      <trkpt lat="45.91418" lon="3.65292">
        <ele>758.35670666667</ele>
        <time>2017-02-23T14:01:51Z</time>
      </trkpt>
      <trkpt lat="45.91412" lon="3.6526">
        <ele>761.55646</ele>
        <time>2017-02-23T14:02:00Z</time>
      </trkpt>
      <trkpt lat="45.9141" lon="3.65249">
        <ele>763.2564</ele>
        <time>2017-02-23T14:02:04Z</time>
      </trkpt>
      <trkpt lat="45.91396" lon="3.65212">
        <ele>768.85583333333</ele>
        <time>2017-02-23T14:02:17Z</time>
      </trkpt>
      <trkpt lat="45.91392" lon="3.65195">
        <ele>770.95566</ele>
        <time>2017-02-23T14:02:24Z</time>
      </trkpt>
      <trkpt lat="45.91391" lon="3.65177">
        <ele>771.05563333333</ele>
        <time>2017-02-23T14:02:29Z</time>
      </trkpt>
      <trkpt lat="45.91393" lon="3.6517">
        <ele>771.45570666667</ele>
        <time>2017-02-23T14:02:32Z</time>
      </trkpt>
      <trkpt lat="45.91407" lon="3.65135">
        <ele>771.95626</ele>
        <time>2017-02-23T14:02:45Z</time>
      </trkpt>
      <trkpt lat="45.91412" lon="3.65119">
        <ele>772.05647333333</ele>
        <time>2017-02-23T14:02:49Z</time>
      </trkpt>
      <trkpt lat="45.91414" lon="3.65107">
        <ele>772.05657333333</ele>
        <time>2017-02-23T14:02:53Z</time>
      </trkpt>
      <trkpt lat="45.91417" lon="3.65096">
        <ele>771.75668666667</ele>
        <time>2017-02-23T14:02:55Z</time>
      </trkpt>
      <trkpt lat="45.9142" lon="3.65079">
        <ele>771.4568</ele>
        <time>2017-02-23T14:03:00Z</time>
      </trkpt>
      <trkpt lat="45.91423" lon="3.65069">
        <ele>771.5569</ele>
        <time>2017-02-23T14:03:02Z</time>
      </trkpt>
      <trkpt lat="45.91431" lon="3.65037">
        <ele>771.35722</ele>
        <time>2017-02-23T14:03:15Z</time>
      </trkpt>
      <trkpt lat="45.91432" lon="3.65014">
        <ele>771.65729333333</ele>
        <time>2017-02-23T14:03:23Z</time>
      </trkpt>
      <trkpt lat="45.91431" lon="3.65005">
        <ele>772.55724666667</ele>
        <time>2017-02-23T14:03:25Z</time>
      </trkpt>
      <trkpt lat="45.91426" lon="3.64974">
        <ele>773.95703333333</ele>
        <time>2017-02-23T14:03:37Z</time>
      </trkpt>
      <trkpt lat="45.91416" lon="3.64938">
        <ele>776.55662</ele>
        <time>2017-02-23T14:03:50Z</time>
      </trkpt>
      <trkpt lat="45.91416" lon="3.64927">
        <ele>778.15664666667</ele>
        <time>2017-02-23T14:04:00Z</time>
      </trkpt>
      <trkpt lat="45.91417" lon="3.64909">
        <ele>778.45666</ele>
        <time>2017-02-23T14:04:05Z</time>
      </trkpt>
      <trkpt lat="45.91416" lon="3.64896">
        <ele>779.65664</ele>
        <time>2017-02-23T14:04:11Z</time>
      </trkpt>
      <trkpt lat="45.91416" lon="3.64886">
        <ele>780.65662</ele>
        <time>2017-02-23T14:04:16Z</time>
      </trkpt>
      <trkpt lat="45.91414" lon="3.64874">
        <ele>781.35657333333</ele>
        <time>2017-02-23T14:04:20Z</time>
      </trkpt>
      <trkpt lat="45.91413" lon="3.64857">
        <ele>781.85652</ele>
        <time>2017-02-23T14:04:25Z</time>
      </trkpt>
      <trkpt lat="45.91414" lon="3.64854">
        <ele>781.85657333333</ele>
        <time>2017-02-23T14:04:37Z</time>
      </trkpt>
      <trkpt lat="45.91414" lon="3.64807">
        <ele>779.65656666667</ele>
        <time>2017-02-23T14:04:37Z</time>
      </trkpt>
      <trkpt lat="45.91415" lon="3.64793">
        <ele>778.85660666667</ele>
        <time>2017-02-23T14:04:47Z</time>
      </trkpt>
      <trkpt lat="45.9139" lon="3.64726">
        <ele>776.3556</ele>
        <time>2017-02-23T14:04:51Z</time>
      </trkpt>
      <trkpt lat="45.91402" lon="3.64703">
        <ele>774.95606</ele>
        <time>2017-02-23T14:04:54Z</time>
      </trkpt>
      <trkpt lat="45.91406" lon="3.64698">
        <ele>774.25625333333</ele>
        <time>2017-02-23T14:05:00Z</time>
      </trkpt>
      <trkpt lat="45.91441" lon="3.64688">
        <ele>768.25762666667</ele>
        <time>2017-02-23T14:05:04Z</time>
      </trkpt>
      <trkpt lat="45.91444" lon="3.64686">
        <ele>767.45775333333</ele>
        <time>2017-02-23T14:05:17Z</time>
      </trkpt>
      <trkpt lat="45.91488" lon="3.6467">
        <ele>758.05952666667</ele>
        <time>2017-02-23T14:05:17Z</time>
      </trkpt>
      <trkpt lat="45.91498" lon="3.64664">
        <ele>756.35991333333</ele>
        <time>2017-02-23T14:05:23Z</time>
      </trkpt>
      <trkpt lat="45.91538" lon="3.64641">
        <ele>752.76151333333</ele>
        <time>2017-02-23T14:05:25Z</time>
      </trkpt>
      <trkpt lat="45.91618" lon="3.64571">
        <ele>750.0647</ele>
        <time>2017-02-23T14:05:39Z</time>
      </trkpt>
      <trkpt lat="45.91622" lon="3.64566">
        <ele>749.86489333333</ele>
        <time>2017-02-23T14:05:52Z</time>
      </trkpt>
      <trkpt lat="45.9168" lon="3.64512">
        <ele>746.86721333333</ele>
        <time>2017-02-23T14:05:55Z</time>
      </trkpt>
      <trkpt lat="45.91684" lon="3.64513">
        <ele>746.46734666667</ele>
        <time>2017-02-23T14:06:00Z</time>
      </trkpt>
      <trkpt lat="45.91719" lon="3.64508">
        <ele>743.36877333333</ele>
        <time>2017-02-23T14:06:05Z</time>
      </trkpt>
      <trkpt lat="45.91748" lon="3.64491">
        <ele>742.26992</ele>
        <time>2017-02-23T14:06:11Z</time>
      </trkpt>
      <trkpt lat="45.91764" lon="3.64417">
        <ele>737.47056666667</ele>
        <time>2017-02-23T14:06:16Z</time>
      </trkpt>
      <trkpt lat="45.91771" lon="3.64368">
        <ele>734.97082</ele>
        <time>2017-02-23T14:06:20Z</time>
      </trkpt>
      <trkpt lat="45.91801" lon="3.64311">
        <ele>731.37202</ele>
        <time>2017-02-23T14:06:25Z</time>
      </trkpt>
      <trkpt lat="45.9183" lon="3.64241">
        <ele>727.67318666667</ele>
        <time>2017-02-23T14:06:29Z</time>
      </trkpt>
      <trkpt lat="45.91849" lon="3.64188">
        <ele>725.67395333333</ele>
        <time>2017-02-23T14:06:32Z</time>
      </trkpt>
      <trkpt lat="45.91851" lon="3.64137">
        <ele>723.07403333333</ele>
        <time>2017-02-23T14:06:35Z</time>
      </trkpt>
      <trkpt lat="45.91877" lon="3.64065">
        <ele>715.77508666667</ele>
        <time>2017-02-23T14:06:44Z</time>
      </trkpt>
      <trkpt lat="45.91903" lon="3.64029">
        <ele>711.47612</ele>
        <time>2017-02-23T14:06:48Z</time>
      </trkpt>
      <trkpt lat="45.91929" lon="3.64022">
        <ele>708.27716666667</ele>
        <time>2017-02-23T14:06:53Z</time>
      </trkpt>
      <trkpt lat="45.91946" lon="3.64032">
        <ele>706.47782666667</ele>
        <time>2017-02-23T14:06:56Z</time>
      </trkpt>
      <trkpt lat="45.91961" lon="3.64043">
        <ele>704.77842666667</ele>
        <time>2017-02-23T14:07:00Z</time>
      </trkpt>
      <trkpt lat="45.91994" lon="3.64014">
        <ele>697.77976666667</ele>
        <time>2017-02-23T14:07:08Z</time>
      </trkpt>
      <trkpt lat="45.92006" lon="3.63979">
        <ele>694.28024666667</ele>
        <time>2017-02-23T14:07:13Z</time>
      </trkpt>
      <trkpt lat="45.92009" lon="3.6396">
        <ele>692.68034666667</ele>
        <time>2017-02-23T14:07:15Z</time>
      </trkpt>
      <trkpt lat="45.92014" lon="3.63925">
        <ele>690.28054666667</ele>
        <time>2017-02-23T14:07:19Z</time>
      </trkpt>
      <trkpt lat="45.92016" lon="3.63895">
        <ele>687.78064</ele>
        <time>2017-02-23T14:07:23Z</time>
      </trkpt>
      <trkpt lat="45.92018" lon="3.63881">
        <ele>686.9807</ele>
        <time>2017-02-23T14:07:24Z</time>
      </trkpt>
      <trkpt lat="45.92021" lon="3.63861">
        <ele>685.48082666667</ele>
        <time>2017-02-23T14:07:28Z</time>
      </trkpt>
      <trkpt lat="45.92023" lon="3.63849">
        <ele>684.2809</ele>
        <time>2017-02-23T14:07:30Z</time>
      </trkpt>
      <trkpt lat="45.92033" lon="3.63756">
        <ele>677.98132666667</ele>
        <time>2017-02-23T14:07:41Z</time>
      </trkpt>
      <trkpt lat="45.92035" lon="3.63739">
        <ele>676.3814</ele>
        <time>2017-02-23T14:07:44Z</time>
      </trkpt>
      <trkpt lat="45.92033" lon="3.63729">
        <ele>675.38133333333</ele>
        <time>2017-02-23T14:07:53Z</time>
      </trkpt>
      <trkpt lat="45.91991" lon="3.63687">
        <ele>669.47964</ele>
        <time>2017-02-23T14:07:55Z</time>
      </trkpt>
      <trkpt lat="45.91956" lon="3.63679">
        <ele>665.97822666667</ele>
        <time>2017-02-23T14:08:00Z</time>
      </trkpt>
      <trkpt lat="45.91944" lon="3.63674">
        <ele>664.57774666667</ele>
        <time>2017-02-23T14:08:02Z</time>
      </trkpt>
      <trkpt lat="45.91908" lon="3.63651">
        <ele>660.0763</ele>
        <time>2017-02-23T14:08:15Z</time>
      </trkpt>
      <trkpt lat="45.91898" lon="3.63646">
        <ele>657.87591333333</ele>
        <time>2017-02-23T14:08:20Z</time>
      </trkpt>
      <trkpt lat="45.91892" lon="3.63646">
        <ele>655.77566666667</ele>
        <time>2017-02-23T14:08:25Z</time>
      </trkpt>
      <trkpt lat="45.91884" lon="3.6365">
        <ele>653.57536</ele>
        <time>2017-02-23T14:08:30Z</time>
      </trkpt>
      <trkpt lat="45.91878" lon="3.63656">
        <ele>651.77510666667</ele>
        <time>2017-02-23T14:08:39Z</time>
      </trkpt>
      <trkpt lat="45.91877" lon="3.63661">
        <ele>651.17506666667</ele>
        <time>2017-02-23T14:08:47Z</time>
      </trkpt>
      <trkpt lat="45.91861" lon="3.63667">
        <ele>652.67444666667</ele>
        <time>2017-02-23T14:08:50Z</time>
      </trkpt>
      <trkpt lat="45.91855" lon="3.63673">
        <ele>653.0742</ele>
        <time>2017-02-23T14:08:55Z</time>
      </trkpt>
      <trkpt lat="45.91848" lon="3.63679">
        <ele>653.47393333333</ele>
        <time>2017-02-23T14:08:59Z</time>
      </trkpt>
      <trkpt lat="45.91843" lon="3.63685">
        <ele>653.77373333333</ele>
        <time>2017-02-23T14:09:03Z</time>
      </trkpt>
      <trkpt lat="45.91842" lon="3.63689">
        <ele>653.57366666667</ele>
        <time>2017-02-23T14:09:16Z</time>
      </trkpt>
      <trkpt lat="45.91835" lon="3.63699">
        <ele>653.07338666667</ele>
        <time>2017-02-23T14:09:16Z</time>
      </trkpt>
      <trkpt lat="45.91823" lon="3.63714">
        <ele>653.17291333333</ele>
        <time>2017-02-23T14:09:23Z</time>
      </trkpt>
      <trkpt lat="45.9181" lon="3.6373">
        <ele>652.57240666667</ele>
        <time>2017-02-23T14:09:26Z</time>
      </trkpt>
      <trkpt lat="45.91791" lon="3.63745">
        <ele>651.17164</ele>
        <time>2017-02-23T14:09:34Z</time>
      </trkpt>
      <trkpt lat="45.91726" lon="3.63831">
        <ele>648.86902666667</ele>
        <time>2017-02-23T14:09:47Z</time>
      </trkpt>
      <trkpt lat="45.91697" lon="3.63867">
        <ele>648.16786</ele>
        <time>2017-02-23T14:09:54Z</time>
      </trkpt>
      <trkpt lat="45.91681" lon="3.6387">
        <ele>647.36724</ele>
        <time>2017-02-23T14:09:59Z</time>
      </trkpt>
      <trkpt lat="45.91671" lon="3.63874">
        <ele>648.26684</ele>
        <time>2017-02-23T14:10:03Z</time>
      </trkpt>
      <trkpt lat="45.91662" lon="3.63878">
        <ele>649.26647333333</ele>
        <time>2017-02-23T14:10:06Z</time>
      </trkpt>
      <trkpt lat="45.9165" lon="3.63889">
        <ele>651.06600666667</ele>
        <time>2017-02-23T14:10:11Z</time>
      </trkpt>
      <trkpt lat="45.9163" lon="3.63916">
        <ele>654.66519333333</ele>
        <time>2017-02-23T14:10:22Z</time>
      </trkpt>
      <trkpt lat="45.91622" lon="3.6393">
        <ele>655.26489333333</ele>
        <time>2017-02-23T14:10:25Z</time>
      </trkpt>
      <trkpt lat="45.91615" lon="3.63941">
        <ele>655.56459333333</ele>
        <time>2017-02-23T14:10:28Z</time>
      </trkpt>
      <trkpt lat="45.91601" lon="3.63957">
        <ele>656.26402</ele>
        <time>2017-02-23T14:10:36Z</time>
      </trkpt>
      <trkpt lat="45.91587" lon="3.6395">
        <ele>658.36348</ele>
        <time>2017-02-23T14:10:41Z</time>
      </trkpt>
      <trkpt lat="45.91574" lon="3.63943">
        <ele>660.46297333333</ele>
        <time>2017-02-23T14:10:46Z</time>
      </trkpt>
      <trkpt lat="45.91577" lon="3.63937">
        <ele>660.96306666667</ele>
        <time>2017-02-23T14:10:54Z</time>
      </trkpt>
      <trkpt lat="45.91579" lon="3.63926">
        <ele>660.96317333333</ele>
        <time>2017-02-23T14:11:00Z</time>
      </trkpt>
      <trkpt lat="45.91566" lon="3.63904">
        <ele>658.26263333333</ele>
        <time>2017-02-23T14:11:05Z</time>
      </trkpt>
      <trkpt lat="45.91559" lon="3.63894">
        <ele>657.36234</ele>
        <time>2017-02-23T14:11:09Z</time>
      </trkpt>
      <trkpt lat="45.91542" lon="3.63868">
        <ele>656.46168</ele>
        <time>2017-02-23T14:11:18Z</time>
      </trkpt>
      <trkpt lat="45.91542" lon="3.63867">
        <ele>656.46166666667</ele>
        <time>2017-02-23T14:11:24Z</time>
      </trkpt>
      <trkpt lat="45.91542" lon="3.63843">
        <ele>657.26168666667</ele>
        <time>2017-02-23T14:11:29Z</time>
      </trkpt>
      <trkpt lat="45.91546" lon="3.63829">
        <ele>657.16184666667</ele>
        <time>2017-02-23T14:11:33Z</time>
      </trkpt>
      <trkpt lat="45.91549" lon="3.63813">
        <ele>657.86194</ele>
        <time>2017-02-23T14:11:38Z</time>
      </trkpt>
      <trkpt lat="45.9155" lon="3.63801">
        <ele>659.06201333333</ele>
        <time>2017-02-23T14:11:45Z</time>
      </trkpt>
      <trkpt lat="45.9155" lon="3.6379">
        <ele>659.36198</ele>
        <time>2017-02-23T14:11:49Z</time>
      </trkpt>
      <trkpt lat="45.91546" lon="3.63779">
        <ele>659.36183333333</ele>
        <time>2017-02-23T14:11:54Z</time>
      </trkpt>
      <trkpt lat="45.91545" lon="3.63765">
        <ele>660.0618</ele>
        <time>2017-02-23T14:11:59Z</time>
      </trkpt>
      <trkpt lat="45.91545" lon="3.63757">
        <ele>660.66178666667</ele>
        <time>2017-02-23T14:12:02Z</time>
      </trkpt>
      <trkpt lat="45.91544" lon="3.63745">
        <ele>662.86176666667</ele>
        <time>2017-02-23T14:12:06Z</time>
      </trkpt>
      <trkpt lat="45.91544" lon="3.63731">
        <ele>666.46176</ele>
        <time>2017-02-23T14:12:10Z</time>
      </trkpt>
      <trkpt lat="45.91536" lon="3.63712">
        <ele>674.46144666667</ele>
        <time>2017-02-23T14:12:14Z</time>
      </trkpt>
      <trkpt lat="45.91532" lon="3.63708">
        <ele>676.06126</ele>
        <time>2017-02-23T14:12:17Z</time>
      </trkpt>
      <trkpt lat="45.91525" lon="3.637">
        <ele>677.76099333333</ele>
        <time>2017-02-23T14:12:24Z</time>
      </trkpt>
      <trkpt lat="45.91521" lon="3.63697">
        <ele>678.36083333333</ele>
        <time>2017-02-23T14:12:25Z</time>
      </trkpt>
      <trkpt lat="45.91501" lon="3.63701">
        <ele>678.46002</ele>
        <time>2017-02-23T14:12:36Z</time>
      </trkpt>
      <trkpt lat="45.91459" lon="3.63699">
        <ele>677.95834</ele>
        <time>2017-02-23T14:12:47Z</time>
      </trkpt>
      <trkpt lat="45.91432" lon="3.63691">
        <ele>678.05726666667</ele>
        <time>2017-02-23T14:12:51Z</time>
      </trkpt>
      <trkpt lat="45.91399" lon="3.63676">
        <ele>678.85596666667</ele>
        <time>2017-02-23T14:12:55Z</time>
      </trkpt>
      <trkpt lat="45.91363" lon="3.63669">
        <ele>678.45452666667</ele>
        <time>2017-02-23T14:13:00Z</time>
      </trkpt>
      <trkpt lat="45.91334" lon="3.6366">
        <ele>677.45334</ele>
        <time>2017-02-23T14:13:03Z</time>
      </trkpt>
      <trkpt lat="45.91304" lon="3.63633">
        <ele>676.65214666667</ele>
        <time>2017-02-23T14:13:07Z</time>
      </trkpt>
      <trkpt lat="45.91295" lon="3.63615">
        <ele>675.95179333333</ele>
        <time>2017-02-23T14:13:10Z</time>
      </trkpt>
      <trkpt lat="45.9128" lon="3.63571">
        <ele>674.75119333333</ele>
        <time>2017-02-23T14:13:14Z</time>
      </trkpt>
      <trkpt lat="45.91278" lon="3.63557">
        <ele>674.2511</ele>
        <time>2017-02-23T14:13:24Z</time>
      </trkpt>
      <trkpt lat="45.91244" lon="3.63498">
        <ele>669.64977333333</ele>
        <time>2017-02-23T14:13:29Z</time>
      </trkpt>
      <trkpt lat="45.91227" lon="3.63487">
        <ele>668.34908</ele>
        <time>2017-02-23T14:13:33Z</time>
      </trkpt>
      <trkpt lat="45.91222" lon="3.63484">
        <ele>667.84888666667</ele>
        <time>2017-02-23T14:13:35Z</time>
      </trkpt>
      <trkpt lat="45.91188" lon="3.63467">
        <ele>664.84752</ele>
        <time>2017-02-23T14:13:39Z</time>
      </trkpt>
      <trkpt lat="45.91169" lon="3.63458">
        <ele>663.24676666667</ele>
        <time>2017-02-23T14:13:44Z</time>
      </trkpt>
      <trkpt lat="45.9113" lon="3.63476">
        <ele>660.24518666667</ele>
        <time>2017-02-23T14:13:49Z</time>
      </trkpt>
      <trkpt lat="45.91109" lon="3.63494">
        <ele>658.84436666667</ele>
        <time>2017-02-23T14:13:53Z</time>
      </trkpt>
      <trkpt lat="45.91092" lon="3.63508">
        <ele>657.14366</ele>
        <time>2017-02-23T14:13:57Z</time>
      </trkpt>
      <trkpt lat="45.9108" lon="3.63516">
        <ele>655.04320666667</ele>
        <time>2017-02-23T14:14:01Z</time>
      </trkpt>
      <trkpt lat="45.91069" lon="3.63523">
        <ele>653.24277333333</ele>
        <time>2017-02-23T14:14:05Z</time>
      </trkpt>
      <trkpt lat="45.91064" lon="3.63524">
        <ele>652.54256</ele>
        <time>2017-02-23T14:14:07Z</time>
      </trkpt>
      <trkpt lat="45.91041" lon="3.63506">
        <ele>646.74163333333</ele>
        <time>2017-02-23T14:14:19Z</time>
      </trkpt>
      <trkpt lat="45.91027" lon="3.63493">
        <ele>643.84108666667</ele>
        <time>2017-02-23T14:14:24Z</time>
      </trkpt>
      <trkpt lat="45.91022" lon="3.63489">
        <ele>642.54087333333</ele>
        <time>2017-02-23T14:14:27Z</time>
      </trkpt>
      <trkpt lat="45.91015" lon="3.63474">
        <ele>642.34059333333</ele>
        <time>2017-02-23T14:14:36Z</time>
      </trkpt>
      <trkpt lat="45.91008" lon="3.6346">
        <ele>642.64032666667</ele>
        <time>2017-02-23T14:14:38Z</time>
      </trkpt>
      <trkpt lat="45.91005" lon="3.63449">
        <ele>642.04021333333</ele>
        <time>2017-02-23T14:14:43Z</time>
      </trkpt>
      <trkpt lat="45.91009" lon="3.63438">
        <ele>640.64034</ele>
        <time>2017-02-23T14:14:50Z</time>
      </trkpt>
      <trkpt lat="45.91004" lon="3.63426">
        <ele>638.74016666667</ele>
        <time>2017-02-23T14:14:54Z</time>
      </trkpt>
      <trkpt lat="45.90996" lon="3.63406">
        <ele>643.23983333333</ele>
        <time>2017-02-23T14:14:57Z</time>
      </trkpt>
      <trkpt lat="45.90992" lon="3.63399">
        <ele>644.73966</ele>
        <time>2017-02-23T14:15:00Z</time>
      </trkpt>
      <trkpt lat="45.90983" lon="3.63395">
        <ele>645.73933333333</ele>
        <time>2017-02-23T14:15:04Z</time>
      </trkpt>
      <trkpt lat="45.90957" lon="3.63404">
        <ele>646.13829333333</ele>
        <time>2017-02-23T14:15:17Z</time>
      </trkpt>
      <trkpt lat="45.90947" lon="3.63409">
        <ele>646.13788</ele>
        <time>2017-02-23T14:15:24Z</time>
      </trkpt>
      <trkpt lat="45.90939" lon="3.63417">
        <ele>647.33757333333</ele>
        <time>2017-02-23T14:15:29Z</time>
      </trkpt>
      <trkpt lat="45.90933" lon="3.63422">
        <ele>648.53731333333</ele>
        <time>2017-02-23T14:15:39Z</time>
      </trkpt>
      <trkpt lat="45.90931" lon="3.63423">
        <ele>648.83725333333</ele>
        <time>2017-02-23T14:15:39Z</time>
      </trkpt>
      <trkpt lat="45.9091" lon="3.63438">
        <ele>652.03638</ele>
        <time>2017-02-23T14:15:52Z</time>
      </trkpt>
      <trkpt lat="45.90905" lon="3.63446">
        <ele>656.33618</ele>
        <time>2017-02-23T14:16:00Z</time>
      </trkpt>
      <trkpt lat="45.90897" lon="3.63445">
        <ele>659.33587333333</ele>
        <time>2017-02-23T14:16:07Z</time>
      </trkpt>
      <trkpt lat="45.90894" lon="3.63444">
        <ele>660.23574666667</ele>
        <time>2017-02-23T14:16:09Z</time>
      </trkpt>
      <trkpt lat="45.90882" lon="3.63442">
        <ele>661.43528666667</ele>
        <time>2017-02-23T14:16:16Z</time>
      </trkpt>
      <trkpt lat="45.90866" lon="3.6344">
        <ele>663.53464666667</ele>
        <time>2017-02-23T14:16:24Z</time>
      </trkpt>
      <trkpt lat="45.90862" lon="3.63439">
        <ele>664.03446666667</ele>
        <time>2017-02-23T14:16:26Z</time>
      </trkpt>
      <trkpt lat="45.90847" lon="3.63428">
        <ele>667.83387333333</ele>
        <time>2017-02-23T14:16:38Z</time>
      </trkpt>
      <trkpt lat="45.90836" lon="3.63422">
        <ele>669.33345333333</ele>
        <time>2017-02-23T14:16:45Z</time>
      </trkpt>
      <trkpt lat="45.90828" lon="3.6342">
        <ele>670.13312</ele>
        <time>2017-02-23T14:16:48Z</time>
      </trkpt>
      <trkpt lat="45.90811" lon="3.63414">
        <ele>671.93242</ele>
        <time>2017-02-23T14:16:54Z</time>
      </trkpt>
      <trkpt lat="45.90804" lon="3.6341">
        <ele>672.73216</ele>
        <time>2017-02-23T14:17:00Z</time>
      </trkpt>
      <trkpt lat="45.90789" lon="3.63399">
        <ele>675.83156</ele>
        <time>2017-02-23T14:17:05Z</time>
      </trkpt>
      <trkpt lat="45.90785" lon="3.63395">
        <ele>676.93138666667</ele>
        <time>2017-02-23T14:17:07Z</time>
      </trkpt>
      <trkpt lat="45.90754" lon="3.63383">
        <ele>681.13016666667</ele>
        <time>2017-02-23T14:17:18Z</time>
      </trkpt>
      <trkpt lat="45.90738" lon="3.63376">
        <ele>682.32952</ele>
        <time>2017-02-23T14:17:23Z</time>
      </trkpt>
      <trkpt lat="45.90727" lon="3.63372">
        <ele>683.12907333333</ele>
        <time>2017-02-23T14:17:26Z</time>
      </trkpt>
      <trkpt lat="45.90717" lon="3.63369">
        <ele>684.02868</ele>
        <time>2017-02-23T14:17:30Z</time>
      </trkpt>
      <trkpt lat="45.90705" lon="3.63366">
        <ele>685.42818</ele>
        <time>2017-02-23T14:17:34Z</time>
      </trkpt>
      <trkpt lat="45.90698" lon="3.63365">
        <ele>685.72792666667</ele>
        <time>2017-02-23T14:17:40Z</time>
      </trkpt>
      <trkpt lat="45.90685" lon="3.63361">
        <ele>686.72741333333</ele>
        <time>2017-02-23T14:17:41Z</time>
      </trkpt>
      <trkpt lat="45.90673" lon="3.63357">
        <ele>688.82690666667</ele>
        <time>2017-02-23T14:17:46Z</time>
      </trkpt>
      <trkpt lat="45.90655" lon="3.63354">
        <ele>692.42618</ele>
        <time>2017-02-23T14:17:51Z</time>
      </trkpt>
      <trkpt lat="45.90638" lon="3.63355">
        <ele>693.92553333333</ele>
        <time>2017-02-23T14:17:55Z</time>
      </trkpt>
      <trkpt lat="45.90629" lon="3.63354">
        <ele>694.02515333333</ele>
        <time>2017-02-23T14:17:59Z</time>
      </trkpt>
      <trkpt lat="45.90616" lon="3.63353">
        <ele>694.92465333333</ele>
        <time>2017-02-23T14:18:03Z</time>
      </trkpt>
      <trkpt lat="45.90608" lon="3.63349">
        <ele>695.22430666667</ele>
        <time>2017-02-23T14:18:06Z</time>
      </trkpt>
      <trkpt lat="45.90588" lon="3.63325">
        <ele>695.12350666667</ele>
        <time>2017-02-23T14:18:15Z</time>
      </trkpt>
      <trkpt lat="45.90587" lon="3.6331">
        <ele>695.12346</ele>
        <time>2017-02-23T14:18:20Z</time>
      </trkpt>
      <trkpt lat="45.90591" lon="3.63301">
        <ele>694.82365333333</ele>
        <time>2017-02-23T14:18:25Z</time>
      </trkpt>
      <trkpt lat="45.90601" lon="3.63274">
        <ele>695.22404666667</ele>
        <time>2017-02-23T14:18:30Z</time>
      </trkpt>
      <trkpt lat="45.90602" lon="3.63269">
        <ele>695.02408666667</ele>
        <time>2017-02-23T14:18:31Z</time>
      </trkpt>
      <trkpt lat="45.90604" lon="3.63256">
        <ele>694.62416666667</ele>
        <time>2017-02-23T14:18:35Z</time>
      </trkpt>
      <trkpt lat="45.90605" lon="3.63232">
        <ele>694.2242</ele>
        <time>2017-02-23T14:18:39Z</time>
      </trkpt>
      <trkpt lat="45.90605" lon="3.63222">
        <ele>694.1242</ele>
        <time>2017-02-23T14:18:47Z</time>
      </trkpt>
      <trkpt lat="45.90603" lon="3.63174">
        <ele>694.6241</ele>
        <time>2017-02-23T14:18:51Z</time>
      </trkpt>
      <trkpt lat="45.90601" lon="3.63157">
        <ele>694.62403333333</ele>
        <time>2017-02-23T14:18:55Z</time>
      </trkpt>
      <trkpt lat="45.906" lon="3.63151">
        <ele>694.52398</ele>
        <time>2017-02-23T14:18:56Z</time>
      </trkpt>
      <trkpt lat="45.90598" lon="3.63141">
        <ele>694.92392</ele>
        <time>2017-02-23T14:20:43Z</time>
      </trkpt>
      <trkpt lat="45.90589" lon="3.63137">
        <ele>697.92354</ele>
        <time>2017-02-23T14:20:48Z</time>
      </trkpt>
      <trkpt lat="45.90579" lon="3.63125">
        <ele>697.82314</ele>
        <time>2017-02-23T14:20:53Z</time>
      </trkpt>
      <trkpt lat="45.90569" lon="3.63111">
        <ele>697.62277333333</ele>
        <time>2017-02-23T14:20:56Z</time>
      </trkpt>
      <trkpt lat="45.90564" lon="3.63103">
        <ele>697.52257333333</ele>
        <time>2017-02-23T14:20:59Z</time>
      </trkpt>
      <trkpt lat="45.90559" lon="3.63095">
        <ele>697.32237333333</ele>
        <time>2017-02-23T14:21:12Z</time>
      </trkpt>
      <trkpt lat="45.90542" lon="3.63045">
        <ele>695.52168</ele>
        <time>2017-02-23T14:21:12Z</time>
      </trkpt>
      <trkpt lat="45.9054" lon="3.63031">
        <ele>694.82158666667</ele>
        <time>2017-02-23T14:21:20Z</time>
      </trkpt>
      <trkpt lat="45.90541" lon="3.6299">
        <ele>692.82163333333</ele>
        <time>2017-02-23T14:21:24Z</time>
      </trkpt>
      <trkpt lat="45.90553" lon="3.62972">
        <ele>693.12211333333</ele>
        <time>2017-02-23T14:21:28Z</time>
      </trkpt>
      <trkpt lat="45.90563" lon="3.62965">
        <ele>692.12250666667</ele>
        <time>2017-02-23T14:21:32Z</time>
      </trkpt>
      <trkpt lat="45.90571" lon="3.62958">
        <ele>691.02282666667</ele>
        <time>2017-02-23T14:21:38Z</time>
      </trkpt>
      <trkpt lat="45.90585" lon="3.62941">
        <ele>689.52338</ele>
        <time>2017-02-23T14:21:42Z</time>
      </trkpt>
      <trkpt lat="45.90589" lon="3.62935">
        <ele>690.02355333333</ele>
        <time>2017-02-23T14:21:44Z</time>
      </trkpt>
      <trkpt lat="45.90598" lon="3.62916">
        <ele>692.92392</ele>
        <time>2017-02-23T14:21:50Z</time>
      </trkpt>
      <trkpt lat="45.90605" lon="3.62908">
        <ele>695.12418666667</ele>
        <time>2017-02-23T14:21:55Z</time>
      </trkpt>
      <trkpt lat="45.90613" lon="3.62906">
        <ele>695.7245</ele>
        <time>2017-02-23T14:22:01Z</time>
      </trkpt>
      <trkpt lat="45.9062" lon="3.6291">
        <ele>696.62478</ele>
        <time>2017-02-23T14:22:05Z</time>
      </trkpt>
      <trkpt lat="45.90626" lon="3.62912">
        <ele>697.42502666667</ele>
        <time>2017-02-23T14:22:08Z</time>
      </trkpt>
      <trkpt lat="45.9063" lon="3.62913">
        <ele>697.8252</ele>
        <time>2017-02-23T14:22:10Z</time>
      </trkpt>
      <trkpt lat="45.90647" lon="3.62907">
        <ele>698.32586666667</ele>
        <time>2017-02-23T14:22:18Z</time>
      </trkpt>
      <trkpt lat="45.90651" lon="3.62905">
        <ele>698.52605333333</ele>
        <time>2017-02-23T14:22:25Z</time>
      </trkpt>
      <trkpt lat="45.90662" lon="3.62898">
        <ele>696.32649333333</ele>
        <time>2017-02-23T14:22:27Z</time>
      </trkpt>
      <trkpt lat="45.90664" lon="3.62898">
        <ele>696.12655333333</ele>
        <time>2017-02-23T14:22:40Z</time>
      </trkpt>
      <trkpt lat="45.90683" lon="3.62887">
        <ele>692.52730666667</ele>
        <time>2017-02-23T14:22:40Z</time>
      </trkpt>
      <trkpt lat="45.90698" lon="3.62875">
        <ele>690.62792</ele>
        <time>2017-02-23T14:22:48Z</time>
      </trkpt>
      <trkpt lat="45.90711" lon="3.62868">
        <ele>689.02842</ele>
        <time>2017-02-23T14:22:52Z</time>
      </trkpt>
      <trkpt lat="45.90719" lon="3.62864">
        <ele>688.72875333333</ele>
        <time>2017-02-23T14:22:55Z</time>
      </trkpt>
      <trkpt lat="45.90726" lon="3.62854">
        <ele>686.52903333333</ele>
        <time>2017-02-23T14:22:59Z</time>
      </trkpt>
      <trkpt lat="45.90733" lon="3.62845">
        <ele>684.52932666667</ele>
        <time>2017-02-23T14:23:02Z</time>
      </trkpt>
      <trkpt lat="45.90748" lon="3.62823">
        <ele>681.62990666667</ele>
        <time>2017-02-23T14:23:13Z</time>
      </trkpt>
      <trkpt lat="45.90755" lon="3.62818">
        <ele>680.33018666667</ele>
        <time>2017-02-23T14:23:13Z</time>
      </trkpt>
      <trkpt lat="45.90764" lon="3.62811">
        <ele>678.33055333333</ele>
        <time>2017-02-23T14:23:25Z</time>
      </trkpt>
      <trkpt lat="45.90804" lon="3.62773">
        <ele>674.43214666667</ele>
        <time>2017-02-23T14:23:27Z</time>
      </trkpt>
      <trkpt lat="45.90832" lon="3.62735">
        <ele>671.73326</ele>
        <time>2017-02-23T14:23:36Z</time>
      </trkpt>
      <trkpt lat="45.90838" lon="3.62729">
        <ele>670.9335</ele>
        <time>2017-02-23T14:23:49Z</time>
      </trkpt>
      <trkpt lat="45.90865" lon="3.62697">
        <ele>669.23459333333</ele>
        <time>2017-02-23T14:23:49Z</time>
      </trkpt>
      <trkpt lat="45.90871" lon="3.62693">
        <ele>668.63482</ele>
        <time>2017-02-23T14:23:55Z</time>
      </trkpt>
      <trkpt lat="45.90901" lon="3.62675">
        <ele>665.13604666667</ele>
        <time>2017-02-23T14:23:59Z</time>
      </trkpt>
      <trkpt lat="45.90917" lon="3.62665">
        <ele>663.03668</ele>
        <time>2017-02-23T14:24:03Z</time>
      </trkpt>
      <trkpt lat="45.90934" lon="3.62649">
        <ele>661.43734</ele>
        <time>2017-02-23T14:24:08Z</time>
      </trkpt>
      <trkpt lat="45.90945" lon="3.62638">
        <ele>660.33778</ele>
        <time>2017-02-23T14:24:12Z</time>
      </trkpt>
      <trkpt lat="45.90953" lon="3.62629">
        <ele>659.33811333333</ele>
        <time>2017-02-23T14:24:25Z</time>
      </trkpt>
      <trkpt lat="45.90992" lon="3.62574">
        <ele>654.93966666667</ele>
        <time>2017-02-23T14:24:27Z</time>
      </trkpt>
      <trkpt lat="45.91012" lon="3.6253">
        <ele>653.04048</ele>
        <time>2017-02-23T14:24:34Z</time>
      </trkpt>
      <trkpt lat="45.91023" lon="3.62509">
        <ele>653.2409</ele>
        <time>2017-02-23T14:24:39Z</time>
      </trkpt>
      <trkpt lat="45.91028" lon="3.62496">
        <ele>652.54111333333</ele>
        <time>2017-02-23T14:24:43Z</time>
      </trkpt>
      <trkpt lat="45.91031" lon="3.62489">
        <ele>651.44122666667</ele>
        <time>2017-02-23T14:24:46Z</time>
      </trkpt>
      <trkpt lat="45.91036" lon="3.62481">
        <ele>650.44144</ele>
        <time>2017-02-23T14:24:49Z</time>
      </trkpt>
      <trkpt lat="45.9104" lon="3.6247">
        <ele>649.04161333333</ele>
        <time>2017-02-23T14:24:54Z</time>
      </trkpt>
      <trkpt lat="45.91043" lon="3.62461">
        <ele>647.94172</ele>
        <time>2017-02-23T14:25:00Z</time>
      </trkpt>
      <trkpt lat="45.91049" lon="3.62448">
        <ele>647.14194666667</ele>
        <time>2017-02-23T14:25:03Z</time>
      </trkpt>
      <trkpt lat="45.91052" lon="3.62439">
        <ele>646.24209333333</ele>
        <time>2017-02-23T14:25:06Z</time>
      </trkpt>
      <trkpt lat="45.9106" lon="3.62427">
        <ele>645.74239333333</ele>
        <time>2017-02-23T14:25:10Z</time>
      </trkpt>
      <trkpt lat="45.91068" lon="3.62408">
        <ele>645.24271333333</ele>
        <time>2017-02-23T14:25:14Z</time>
      </trkpt>
      <trkpt lat="45.91083" lon="3.62352">
        <ele>642.84331333333</ele>
        <time>2017-02-23T14:25:25Z</time>
      </trkpt>
      <trkpt lat="45.91085" lon="3.62337">
        <ele>641.54340666667</ele>
        <time>2017-02-23T14:25:29Z</time>
      </trkpt>
      <trkpt lat="45.91088" lon="3.62325">
        <ele>640.64351333333</ele>
        <time>2017-02-23T14:25:33Z</time>
      </trkpt>
      <trkpt lat="45.91115" lon="3.62266">
        <ele>637.54459333333</ele>
        <time>2017-02-23T14:25:46Z</time>
      </trkpt>
      <trkpt lat="45.91127" lon="3.62256">
        <ele>636.84508</ele>
        <time>2017-02-23T14:25:55Z</time>
      </trkpt>
      <trkpt lat="45.91192" lon="3.62177">
        <ele>634.14767333333</ele>
        <time>2017-02-23T14:25:59Z</time>
      </trkpt>
      <trkpt lat="45.91202" lon="3.62168">
        <ele>633.64806</ele>
        <time>2017-02-23T14:26:01Z</time>
      </trkpt>
      <trkpt lat="45.91216" lon="3.62164">
        <ele>632.44864</ele>
        <time>2017-02-23T14:26:04Z</time>
      </trkpt>
      <trkpt lat="45.91223" lon="3.62167">
        <ele>631.7489</ele>
        <time>2017-02-23T14:26:07Z</time>
      </trkpt>
      <trkpt lat="45.91238" lon="3.62167">
        <ele>631.34953333333</ele>
        <time>2017-02-23T14:26:11Z</time>
      </trkpt>
      <trkpt lat="45.91243" lon="3.62174">
        <ele>630.44972</ele>
        <time>2017-02-23T14:26:14Z</time>
      </trkpt>
      <trkpt lat="45.9126" lon="3.62183">
        <ele>631.4504</ele>
        <time>2017-02-23T14:26:27Z</time>
      </trkpt>
      <trkpt lat="45.91271" lon="3.62168">
        <ele>630.45082</ele>
        <time>2017-02-23T14:26:40Z</time>
      </trkpt>
      <trkpt lat="45.91277" lon="3.62163">
        <ele>628.35107333333</ele>
        <time>2017-02-23T14:26:48Z</time>
      </trkpt>
      <trkpt lat="45.91284" lon="3.62157">
        <ele>626.75135333333</ele>
        <time>2017-02-23T14:26:51Z</time>
      </trkpt>
      <trkpt lat="45.9129" lon="3.62151">
        <ele>625.55159333333</ele>
        <time>2017-02-23T14:26:55Z</time>
      </trkpt>
      <trkpt lat="45.91296" lon="3.62146">
        <ele>624.35184</ele>
        <time>2017-02-23T14:27:00Z</time>
      </trkpt>
      <trkpt lat="45.91314" lon="3.62135">
        <ele>620.95254</ele>
        <time>2017-02-23T14:27:10Z</time>
      </trkpt>
      <trkpt lat="45.91331" lon="3.62121">
        <ele>618.15324666667</ele>
        <time>2017-02-23T14:27:15Z</time>
      </trkpt>
      <trkpt lat="45.91339" lon="3.62114">
        <ele>616.95355333333</ele>
        <time>2017-02-23T14:27:18Z</time>
      </trkpt>
      <trkpt lat="45.91362" lon="3.6207">
        <ele>610.85446666667</ele>
        <time>2017-02-23T14:27:31Z</time>
      </trkpt>
      <trkpt lat="45.9138" lon="3.62038">
        <ele>609.65518</ele>
        <time>2017-02-23T14:27:44Z</time>
      </trkpt>
      <trkpt lat="45.91404" lon="3.62005">
        <ele>610.35614666667</ele>
        <time>2017-02-23T14:27:55Z</time>
      </trkpt>
      <trkpt lat="45.91412" lon="3.61986">
        <ele>610.55648666667</ele>
        <time>2017-02-23T14:28:00Z</time>
      </trkpt>
      <trkpt lat="45.91415" lon="3.61966">
        <ele>610.95658</ele>
        <time>2017-02-23T14:28:04Z</time>
      </trkpt>
      <trkpt lat="45.91421" lon="3.61922">
        <ele>611.15682</ele>
        <time>2017-02-23T14:28:13Z</time>
      </trkpt>
      <trkpt lat="45.91463" lon="3.61858">
        <ele>609.4585</ele>
        <time>2017-02-23T14:28:21Z</time>
      </trkpt>
      <trkpt lat="45.91478" lon="3.61818">
        <ele>609.0591</ele>
        <time>2017-02-23T14:28:26Z</time>
      </trkpt>
      <trkpt lat="45.91481" lon="3.61788">
        <ele>608.55925333333</ele>
        <time>2017-02-23T14:28:30Z</time>
      </trkpt>
      <trkpt lat="45.91485" lon="3.6177">
        <ele>608.65938</ele>
        <time>2017-02-23T14:28:34Z</time>
      </trkpt>
      <trkpt lat="45.91497" lon="3.61717">
        <ele>607.65986</ele>
        <time>2017-02-23T14:28:39Z</time>
      </trkpt>
      <trkpt lat="45.91497" lon="3.61694">
        <ele>606.15986</ele>
        <time>2017-02-23T14:28:43Z</time>
      </trkpt>
      <trkpt lat="45.91512" lon="3.61701">
        <ele>606.36049333333</ele>
        <time>2017-02-23T14:28:48Z</time>
      </trkpt>
      <trkpt lat="45.91522" lon="3.61704">
        <ele>605.76086</ele>
        <time>2017-02-23T14:28:51Z</time>
      </trkpt>
      <trkpt lat="45.91529" lon="3.61711">
        <ele>605.26116666667</ele>
        <time>2017-02-23T14:28:55Z</time>
      </trkpt>
      <trkpt lat="45.91539" lon="3.61715">
        <ele>604.36157333333</ele>
        <time>2017-02-23T14:29:00Z</time>
      </trkpt>
      <trkpt lat="45.91546" lon="3.61718">
        <ele>603.36184666667</ele>
        <time>2017-02-23T14:29:04Z</time>
      </trkpt>
      <trkpt lat="45.91554" lon="3.61718">
        <ele>600.96216666667</ele>
        <time>2017-02-23T14:29:11Z</time>
      </trkpt>
      <trkpt lat="45.91582" lon="3.61732">
        <ele>596.16329333333</ele>
        <time>2017-02-23T14:29:19Z</time>
      </trkpt>
      <trkpt lat="45.91589" lon="3.61736">
        <ele>594.56357333333</ele>
        <time>2017-02-23T14:29:25Z</time>
      </trkpt>
      <trkpt lat="45.91604" lon="3.61743">
        <ele>591.96416666667</ele>
        <time>2017-02-23T14:29:27Z</time>
      </trkpt>
      <trkpt lat="45.9161" lon="3.61746">
        <ele>590.86440666667</ele>
        <time>2017-02-23T14:29:31Z</time>
      </trkpt>
      <trkpt lat="45.91623" lon="3.61766">
        <ele>588.06491333333</ele>
        <time>2017-02-23T14:29:37Z</time>
      </trkpt>
      <trkpt lat="45.91637" lon="3.618">
        <ele>586.56548</ele>
        <time>2017-02-23T14:29:41Z</time>
      </trkpt>
      <trkpt lat="45.9165" lon="3.61819">
        <ele>584.66601333333</ele>
        <time>2017-02-23T14:29:45Z</time>
      </trkpt>
      <trkpt lat="45.91662" lon="3.61833">
        <ele>583.86648666667</ele>
        <time>2017-02-23T14:29:48Z</time>
      </trkpt>
      <trkpt lat="45.91679" lon="3.61863">
        <ele>581.76716666667</ele>
        <time>2017-02-23T14:29:53Z</time>
      </trkpt>
      <trkpt lat="45.91694" lon="3.61886">
        <ele>579.46776</ele>
        <time>2017-02-23T14:29:56Z</time>
      </trkpt>
      <trkpt lat="45.91707" lon="3.61908">
        <ele>577.76829333333</ele>
        <time>2017-02-23T14:30:00Z</time>
      </trkpt>
      <trkpt lat="45.9171" lon="3.61919">
        <ele>576.8684</ele>
        <time>2017-02-23T14:30:04Z</time>
      </trkpt>
      <trkpt lat="45.91716" lon="3.61923">
        <ele>572.46862</ele>
        <time>2017-02-23T14:30:10Z</time>
      </trkpt>
      <trkpt lat="45.91721" lon="3.61937">
        <ele>567.46883333333</ele>
        <time>2017-02-23T14:30:17Z</time>
      </trkpt>
      <trkpt lat="45.91725" lon="3.6194">
        <ele>567.56900666667</ele>
        <time>2017-02-23T14:30:21Z</time>
      </trkpt>
      <trkpt lat="45.91731" lon="3.61943">
        <ele>566.46924</ele>
        <time>2017-02-23T14:30:25Z</time>
      </trkpt>
      <trkpt lat="45.91737" lon="3.61945">
        <ele>565.96946</ele>
        <time>2017-02-23T14:30:29Z</time>
      </trkpt>
      <trkpt lat="45.91757" lon="3.61948">
        <ele>565.87029333333</ele>
        <time>2017-02-23T14:30:42Z</time>
      </trkpt>
      <trkpt lat="45.91763" lon="3.61943">
        <ele>564.97052</ele>
        <time>2017-02-23T14:30:48Z</time>
      </trkpt>
      <trkpt lat="45.9177" lon="3.61935">
        <ele>564.3708</ele>
        <time>2017-02-23T14:30:56Z</time>
      </trkpt>
      <trkpt lat="45.91777" lon="3.61928">
        <ele>563.27106666667</ele>
        <time>2017-02-23T14:31:05Z</time>
      </trkpt>
      <trkpt lat="45.91781" lon="3.61922">
        <ele>562.37123333333</ele>
        <time>2017-02-23T14:31:24Z</time>
      </trkpt>
      <trkpt lat="45.91792" lon="3.61917">
        <ele>559.87166</ele>
        <time>2017-02-23T14:31:29Z</time>
      </trkpt>
      <trkpt lat="45.91796" lon="3.61918">
        <ele>563.47184666667</ele>
        <time>2017-02-23T14:31:41Z</time>
      </trkpt>
      <trkpt lat="45.91804" lon="3.61915">
        <ele>567.57216666667</ele>
        <time>2017-02-23T14:31:49Z</time>
      </trkpt>
      <trkpt lat="45.91813" lon="3.61914">
        <ele>567.97250666667</ele>
        <time>2017-02-23T14:31:55Z</time>
      </trkpt>
      <trkpt lat="45.9182" lon="3.61912">
        <ele>569.9728</ele>
        <time>2017-02-23T14:32:04Z</time>
      </trkpt>
      <trkpt lat="45.9183" lon="3.61905">
        <ele>572.67318666667</ele>
        <time>2017-02-23T14:32:08Z</time>
      </trkpt>
      <trkpt lat="45.91836" lon="3.61899">
        <ele>573.37344</ele>
        <time>2017-02-23T14:32:13Z</time>
      </trkpt>
      <trkpt lat="45.91838" lon="3.61897">
        <ele>573.3735</ele>
        <time>2017-02-23T14:32:19Z</time>
      </trkpt>
      <trkpt lat="45.91858" lon="3.61873">
        <ele>573.8743</ele>
        <time>2017-02-23T14:32:24Z</time>
      </trkpt>
      <trkpt lat="45.91867" lon="3.61853">
        <ele>574.17469333333</ele>
        <time>2017-02-23T14:32:27Z</time>
      </trkpt>
      <trkpt lat="45.91868" lon="3.61848">
        <ele>574.27472666667</ele>
        <time>2017-02-23T14:32:32Z</time>
      </trkpt>
      <trkpt lat="45.91874" lon="3.61808">
        <ele>573.57496</ele>
        <time>2017-02-23T14:32:37Z</time>
      </trkpt>
      <trkpt lat="45.91866" lon="3.61764">
        <ele>573.57465333333</ele>
        <time>2017-02-23T14:32:42Z</time>
      </trkpt>
      <trkpt lat="45.91867" lon="3.61757">
        <ele>572.97469333333</ele>
        <time>2017-02-23T14:32:48Z</time>
      </trkpt>
      <trkpt lat="45.91873" lon="3.61744">
        <ele>571.57492666667</ele>
        <time>2017-02-23T14:32:50Z</time>
      </trkpt>
      <trkpt lat="45.9188" lon="3.61737">
        <ele>569.87518666667</ele>
        <time>2017-02-23T14:32:56Z</time>
      </trkpt>
      <trkpt lat="45.91885" lon="3.61727">
        <ele>567.8754</ele>
        <time>2017-02-23T14:33:05Z</time>
      </trkpt>
      <trkpt lat="45.91892" lon="3.61722">
        <ele>565.67567333333</ele>
        <time>2017-02-23T14:33:09Z</time>
      </trkpt>
      <trkpt lat="45.919" lon="3.61715">
        <ele>563.77598</ele>
        <time>2017-02-23T14:33:23Z</time>
      </trkpt>
      <trkpt lat="45.9192" lon="3.6169">
        <ele>557.57681333333</ele>
        <time>2017-02-23T14:33:28Z</time>
      </trkpt>
      <trkpt lat="45.91927" lon="3.61673">
        <ele>558.27706666667</ele>
        <time>2017-02-23T14:33:31Z</time>
      </trkpt>
      <trkpt lat="45.91928" lon="3.61675">
        <ele>556.77712666667</ele>
        <time>2017-02-23T14:33:43Z</time>
      </trkpt>
      <trkpt lat="45.91946" lon="3.61627">
        <ele>558.57783333333</ele>
        <time>2017-02-23T14:33:44Z</time>
      </trkpt>
      <trkpt lat="45.91961" lon="3.6162">
        <ele>556.17844666667</ele>
        <time>2017-02-23T14:33:49Z</time>
      </trkpt>
      <trkpt lat="45.91976" lon="3.61613">
        <ele>554.87905333333</ele>
        <time>2017-02-23T14:33:54Z</time>
      </trkpt>
      <trkpt lat="45.91995" lon="3.6161">
        <ele>551.07980666667</ele>
        <time>2017-02-23T14:33:59Z</time>
      </trkpt>
      <trkpt lat="45.92002" lon="3.61607">
        <ele>546.88009333333</ele>
        <time>2017-02-23T14:34:06Z</time>
      </trkpt>
      <trkpt lat="45.92008" lon="3.61598">
        <ele>544.08032</ele>
        <time>2017-02-23T14:34:10Z</time>
      </trkpt>
      <trkpt lat="45.92008" lon="3.6161">
        <ele>534.68032666667</ele>
        <time>2017-02-23T14:34:30Z</time>
      </trkpt>
      <trkpt lat="45.92016" lon="3.61615">
        <ele>530.08062666667</ele>
        <time>2017-02-23T14:34:41Z</time>
      </trkpt>
      <trkpt lat="45.9202" lon="3.61614">
        <ele>525.38078</ele>
        <time>2017-02-23T14:35:00Z</time>
      </trkpt>
      <trkpt lat="45.92025" lon="3.61615">
        <ele>521.381</ele>
        <time>2017-02-23T14:35:07Z</time>
      </trkpt>
      <trkpt lat="45.92029" lon="3.61615">
        <ele>520.28114666667</ele>
        <time>2017-02-23T14:35:09Z</time>
      </trkpt>
      <trkpt lat="45.92038" lon="3.61617">
        <ele>518.88151333333</ele>
        <time>2017-02-23T14:35:19Z</time>
      </trkpt>
      <trkpt lat="45.92047" lon="3.61619">
        <ele>514.08186</ele>
        <time>2017-02-23T14:35:27Z</time>
      </trkpt>
      <trkpt lat="45.92054" lon="3.61619">
        <ele>511.78216</ele>
        <time>2017-02-23T14:35:33Z</time>
      </trkpt>
      <trkpt lat="45.92056" lon="3.61619">
        <ele>510.98224</ele>
        <time>2017-02-23T14:35:39Z</time>
      </trkpt>
      <trkpt lat="45.9208" lon="3.61622">
        <ele>507.28321333333</ele>
        <time>2017-02-23T14:35:43Z</time>
      </trkpt>
      <trkpt lat="45.92087" lon="3.61622">
        <ele>506.38348666667</ele>
        <time>2017-02-23T14:35:45Z</time>
      </trkpt>
      <trkpt lat="45.92099" lon="3.61623">
        <ele>503.78396666667</ele>
        <time>2017-02-23T14:35:51Z</time>
      </trkpt>
      <trkpt lat="45.92106" lon="3.61623">
        <ele>502.08422</ele>
        <time>2017-02-23T14:35:55Z</time>
      </trkpt>
      <trkpt lat="45.92111" lon="3.61622">
        <ele>499.98442</ele>
        <time>2017-02-23T14:36:00Z</time>
      </trkpt>
      <trkpt lat="45.92122" lon="3.6162">
        <ele>496.08488</ele>
        <time>2017-02-23T14:36:10Z</time>
      </trkpt>
      <trkpt lat="45.92125" lon="3.61619">
        <ele>495.18499333333</ele>
        <time>2017-02-23T14:36:15Z</time>
      </trkpt>
      <trkpt lat="45.92131" lon="3.61608">
        <ele>492.28524666667</ele>
        <time>2017-02-23T14:36:19Z</time>
      </trkpt>
      <trkpt lat="45.92137" lon="3.61602">
        <ele>489.58548666667</ele>
        <time>2017-02-23T14:36:26Z</time>
      </trkpt>
      <trkpt lat="45.92142" lon="3.61594">
        <ele>487.68566</ele>
        <time>2017-02-23T14:36:34Z</time>
      </trkpt>
      <trkpt lat="45.92145" lon="3.61584">
        <ele>485.08580666667</ele>
        <time>2017-02-23T14:36:41Z</time>
      </trkpt>
      <trkpt lat="45.9215" lon="3.61577">
        <ele>482.78598</ele>
        <time>2017-02-23T14:36:48Z</time>
      </trkpt>
      <trkpt lat="45.92176" lon="3.61578">
        <ele>482.28702666667</ele>
        <time>2017-02-23T14:36:53Z</time>
      </trkpt>
      <trkpt lat="45.92174" lon="3.61539">
        <ele>482.58695333333</ele>
        <time>2017-02-23T14:36:58Z</time>
      </trkpt>
      <trkpt lat="45.92177" lon="3.61537">
        <ele>482.18709333333</ele>
        <time>2017-02-23T14:36:59Z</time>
      </trkpt>
      <trkpt lat="45.92205" lon="3.61468">
        <ele>478.88821333333</ele>
        <time>2017-02-23T14:37:12Z</time>
      </trkpt>
      <trkpt lat="45.92201" lon="3.61326">
        <ele>479.28804</ele>
        <time>2017-02-23T14:37:17Z</time>
      </trkpt>
      <trkpt lat="45.92218" lon="3.61323">
        <ele>478.08870666667</ele>
        <time>2017-02-23T14:37:21Z</time>
      </trkpt>
      <trkpt lat="45.92231" lon="3.61328">
        <ele>477.48922</ele>
        <time>2017-02-23T14:37:26Z</time>
      </trkpt>
      <trkpt lat="45.92247" lon="3.61303">
        <ele>475.28986666667</ele>
        <time>2017-02-23T14:37:30Z</time>
      </trkpt>
      <trkpt lat="45.92246" lon="3.61292">
        <ele>473.58982</ele>
        <time>2017-02-23T14:37:35Z</time>
      </trkpt>
      <trkpt lat="45.92247" lon="3.61277">
        <ele>471.88986</ele>
        <time>2017-02-23T14:37:40Z</time>
      </trkpt>
      <trkpt lat="45.92249" lon="3.61271">
        <ele>470.98996</ele>
        <time>2017-02-23T14:37:53Z</time>
      </trkpt>
      <trkpt lat="45.92262" lon="3.61255">
        <ele>463.49046666667</ele>
        <time>2017-02-23T14:37:57Z</time>
      </trkpt>
      <trkpt lat="45.92269" lon="3.61253">
        <ele>458.89077333333</ele>
        <time>2017-02-23T14:38:48Z</time>
      </trkpt>
      <trkpt lat="45.92275" lon="3.61243">
        <ele>457.09100666667</ele>
        <time>2017-02-23T14:38:52Z</time>
      </trkpt>
      <trkpt lat="45.92283" lon="3.61237">
        <ele>456.29130666667</ele>
        <time>2017-02-23T14:39:05Z</time>
      </trkpt>
      <trkpt lat="45.92288" lon="3.61232">
        <ele>455.69153333333</ele>
        <time>2017-02-23T14:39:15Z</time>
      </trkpt>
      <trkpt lat="45.92295" lon="3.61227">
        <ele>454.29180666667</ele>
        <time>2017-02-23T14:39:23Z</time>
      </trkpt>
      <trkpt lat="45.92298" lon="3.61235">
        <ele>452.59192</ele>
        <time>2017-02-23T14:39:53Z</time>
      </trkpt>
      <trkpt lat="45.92304" lon="3.61249">
        <ele>451.09216666667</ele>
        <time>2017-02-23T14:39:58Z</time>
      </trkpt>
      <trkpt lat="45.92306" lon="3.61251">
        <ele>450.89225333333</ele>
        <time>2017-02-23T14:40:01Z</time>
      </trkpt>
      <trkpt lat="45.92314" lon="3.61259">
        <ele>450.09255333333</ele>
        <time>2017-02-23T14:40:09Z</time>
      </trkpt>
      <trkpt lat="45.92341" lon="3.61265">
        <ele>448.39364666667</ele>
        <time>2017-02-23T14:40:22Z</time>
      </trkpt>
      <trkpt lat="45.92349" lon="3.61264">
        <ele>447.69396</ele>
        <time>2017-02-23T14:40:27Z</time>
      </trkpt>
      <trkpt lat="45.92353" lon="3.61263">
        <ele>447.39412666667</ele>
        <time>2017-02-23T14:40:30Z</time>
      </trkpt>
      <trkpt lat="45.92382" lon="3.61264">
        <ele>445.29529333333</ele>
        <time>2017-02-23T14:40:36Z</time>
      </trkpt>
      <trkpt lat="45.92394" lon="3.61264">
        <ele>443.59576666667</ele>
        <time>2017-02-23T14:40:39Z</time>
      </trkpt>
      <trkpt lat="45.92402" lon="3.61261">
        <ele>440.79609333333</ele>
        <time>2017-02-23T14:40:44Z</time>
      </trkpt>
      <trkpt lat="45.92409" lon="3.61256">
        <ele>436.49636</ele>
        <time>2017-02-23T14:40:56Z</time>
      </trkpt>
      <trkpt lat="45.92424" lon="3.61254">
        <ele>429.29694</ele>
        <time>2017-02-23T14:41:00Z</time>
      </trkpt>
      <trkpt lat="45.92432" lon="3.61249">
        <ele>417.39726666667</ele>
        <time>2017-02-23T14:41:13Z</time>
      </trkpt>
      <trkpt lat="45.92434" lon="3.61247">
        <ele>415.29736666667</ele>
        <time>2017-02-23T14:41:18Z</time>
      </trkpt>
      <trkpt lat="45.92441" lon="3.61224">
        <ele>405.19763333333</ele>
        <time>2017-02-23T14:41:22Z</time>
      </trkpt>
      <trkpt lat="45.92445" lon="3.61203">
        <ele>400.49778</ele>
        <time>2017-02-23T14:41:26Z</time>
      </trkpt>
      <trkpt lat="45.92443" lon="3.61165">
        <ele>393.39773333333</ele>
        <time>2017-02-23T14:41:30Z</time>
      </trkpt>
      <trkpt lat="45.92441" lon="3.61128">
        <ele>381.39765333333</ele>
        <time>2017-02-23T14:41:40Z</time>
      </trkpt>
      <trkpt lat="45.92438" lon="3.611">
        <ele>373.6975</ele>
        <time>2017-02-23T14:41:45Z</time>
      </trkpt>
      <trkpt lat="45.92437" lon="3.61092">
        <ele>371.69748666667</ele>
        <time>2017-02-23T14:41:47Z</time>
      </trkpt>
      <trkpt lat="45.9244" lon="3.6108">
        <ele>367.49758666667</ele>
        <time>2017-02-23T14:41:51Z</time>
      </trkpt>
      <trkpt lat="45.92627" lon="3.61143">
        <ele>386.40506666667</ele>
        <time>2017-02-23T14:41:56Z</time>
      </trkpt>
      <trkpt lat="45.92627" lon="3.61143">
        <ele>386.40506666667</ele>
        <time>2017-02-23T14:42:03Z</time>
      </trkpt>
      <trkpt lat="45.92725" lon="3.60943">
        <ele>396.20899333333</ele>
        <time>2017-02-23T14:42:08Z</time>
      </trkpt>
      <trkpt lat="45.92704" lon="3.60903">
        <ele>406.30816</ele>
        <time>2017-02-23T14:42:12Z</time>
      </trkpt>
      <trkpt lat="45.9269" lon="3.60884">
        <ele>413.6076</ele>
        <time>2017-02-23T14:42:15Z</time>
      </trkpt>
      <trkpt lat="45.92674" lon="3.60854">
        <ele>423.30696666667</ele>
        <time>2017-02-23T14:42:19Z</time>
      </trkpt>
      <trkpt lat="45.92663" lon="3.60822">
        <ele>434.60652</ele>
        <time>2017-02-23T14:42:23Z</time>
      </trkpt>
      <trkpt lat="45.92655" lon="3.60808">
        <ele>438.60621333333</ele>
        <time>2017-02-23T14:42:26Z</time>
      </trkpt>
      <trkpt lat="45.92652" lon="3.60789">
        <ele>442.70608</ele>
        <time>2017-02-23T14:42:32Z</time>
      </trkpt>
      <trkpt lat="45.92643" lon="3.60777">
        <ele>446.50571333333</ele>
        <time>2017-02-23T14:42:37Z</time>
      </trkpt>
      <trkpt lat="45.92604" lon="3.60709">
        <ele>467.80416666667</ele>
        <time>2017-02-23T14:42:41Z</time>
      </trkpt>
      <trkpt lat="45.92591" lon="3.60673">
        <ele>479.80364666667</ele>
        <time>2017-02-23T14:42:45Z</time>
      </trkpt>
      <trkpt lat="45.92574" lon="3.60612">
        <ele>499.30297333333</ele>
        <time>2017-02-23T14:42:49Z</time>
      </trkpt>
      <trkpt lat="45.9257" lon="3.60587">
        <ele>506.7028</ele>
        <time>2017-02-23T14:42:50Z</time>
      </trkpt>
      <trkpt lat="45.92567" lon="3.60563">
        <ele>514.80268</ele>
        <time>2017-02-23T14:42:54Z</time>
      </trkpt>
      <trkpt lat="45.92566" lon="3.60534">
        <ele>523.30263333333</ele>
        <time>2017-02-23T14:42:58Z</time>
      </trkpt>
      <trkpt lat="45.92566" lon="3.6052">
        <ele>528.70262</ele>
        <time>2017-02-23T14:43:02Z</time>
      </trkpt>
      <trkpt lat="45.92566" lon="3.60513">
        <ele>531.00264666667</ele>
        <time>2017-02-23T14:43:04Z</time>
      </trkpt>
      <trkpt lat="45.92565" lon="3.60502">
        <ele>534.40259333333</ele>
        <time>2017-02-23T14:43:09Z</time>
      </trkpt>
      <trkpt lat="45.92567" lon="3.60495">
        <ele>537.50267333333</ele>
        <time>2017-02-23T14:43:10Z</time>
      </trkpt>
      <trkpt lat="45.92569" lon="3.60483">
        <ele>540.50274666667</ele>
        <time>2017-02-23T14:43:14Z</time>
      </trkpt>
      <trkpt lat="45.92586" lon="3.60457">
        <ele>556.70342666667</ele>
        <time>2017-02-23T14:43:26Z</time>
      </trkpt>
      <trkpt lat="45.92593" lon="3.60454">
        <ele>564.20370666667</ele>
        <time>2017-02-23T14:43:34Z</time>
      </trkpt>
      <trkpt lat="45.92595" lon="3.60442">
        <ele>580.4038</ele>
        <time>2017-02-23T14:43:46Z</time>
      </trkpt>
      <trkpt lat="45.92594" lon="3.60438">
        <ele>584.50374</ele>
        <time>2017-02-23T14:43:56Z</time>
      </trkpt>
      <trkpt lat="45.92592" lon="3.60425">
        <ele>592.50366</ele>
        <time>2017-02-23T14:44:00Z</time>
      </trkpt>
      <trkpt lat="45.92585" lon="3.60416">
        <ele>597.90340666667</ele>
        <time>2017-02-23T14:44:11Z</time>
      </trkpt>
      <trkpt lat="45.92573" lon="3.60415">
        <ele>603.00292666667</ele>
        <time>2017-02-23T14:44:24Z</time>
      </trkpt>
      <trkpt lat="45.9258" lon="3.60411">
        <ele>604.80320666667</ele>
        <time>2017-02-23T14:44:32Z</time>
      </trkpt>
      <trkpt lat="45.92583" lon="3.6041">
        <ele>605.20332</ele>
        <time>2017-02-23T14:44:45Z</time>
      </trkpt>
      <trkpt lat="45.92605" lon="3.60406">
        <ele>606.30419333333</ele>
        <time>2017-02-23T14:44:49Z</time>
      </trkpt>
      <trkpt lat="45.9261" lon="3.60403">
        <ele>606.40441333333</ele>
        <time>2017-02-23T14:44:53Z</time>
      </trkpt>
      <trkpt lat="45.92618" lon="3.60399">
        <ele>606.10473333333</ele>
        <time>2017-02-23T14:45:00Z</time>
      </trkpt>
      <trkpt lat="45.92624" lon="3.60397">
        <ele>606.00496666667</ele>
        <time>2017-02-23T14:45:06Z</time>
      </trkpt>
      <trkpt lat="45.92634" lon="3.60394">
        <ele>606.10534</ele>
        <time>2017-02-23T14:45:09Z</time>
      </trkpt>
      <trkpt lat="45.92641" lon="3.60388">
        <ele>606.90563333333</ele>
        <time>2017-02-23T14:45:26Z</time>
      </trkpt>
      <trkpt lat="45.92658" lon="3.60361">
        <ele>611.8063</ele>
        <time>2017-02-23T14:45:27Z</time>
      </trkpt>
      <trkpt lat="45.92663" lon="3.60345">
        <ele>614.50652666667</ele>
        <time>2017-02-23T14:45:35Z</time>
      </trkpt>
      <trkpt lat="45.92666" lon="3.60334">
        <ele>616.50664666667</ele>
        <time>2017-02-23T14:45:39Z</time>
      </trkpt>
      <trkpt lat="45.92668" lon="3.60324">
        <ele>618.00671333333</ele>
        <time>2017-02-23T14:45:43Z</time>
      </trkpt>
      <trkpt lat="45.92668" lon="3.60313">
        <ele>619.2067</ele>
        <time>2017-02-23T14:45:47Z</time>
      </trkpt>
      <trkpt lat="45.92668" lon="3.60303">
        <ele>620.3067</ele>
        <time>2017-02-23T14:45:50Z</time>
      </trkpt>
      <trkpt lat="45.92667" lon="3.60288">
        <ele>622.40666666667</ele>
        <time>2017-02-23T14:45:54Z</time>
      </trkpt>
      <trkpt lat="45.92661" lon="3.60259">
        <ele>624.50643333333</ele>
        <time>2017-02-23T14:45:58Z</time>
      </trkpt>
      <trkpt lat="45.92656" lon="3.60235">
        <ele>628.70622666667</ele>
        <time>2017-02-23T14:46:00Z</time>
      </trkpt>
      <trkpt lat="45.92653" lon="3.60227">
        <ele>629.20611333333</ele>
        <time>2017-02-23T14:46:06Z</time>
      </trkpt>
      <trkpt lat="45.92626" lon="3.60145">
        <ele>638.50502666667</ele>
        <time>2017-02-23T14:46:11Z</time>
      </trkpt>
      <trkpt lat="45.92613" lon="3.60122">
        <ele>639.80453333333</ele>
        <time>2017-02-23T14:46:15Z</time>
      </trkpt>
      <trkpt lat="45.92605" lon="3.60107">
        <ele>641.50421333333</ele>
        <time>2017-02-23T14:46:19Z</time>
      </trkpt>
      <trkpt lat="45.92604" lon="3.60092">
        <ele>642.80416666667</ele>
        <time>2017-02-23T14:46:23Z</time>
      </trkpt>
      <trkpt lat="45.9261" lon="3.60079">
        <ele>644.80440666667</ele>
        <time>2017-02-23T14:46:28Z</time>
      </trkpt>
      <trkpt lat="45.92609" lon="3.60061">
        <ele>648.00434666667</ele>
        <time>2017-02-23T14:46:32Z</time>
      </trkpt>
      <trkpt lat="45.92608" lon="3.60042">
        <ele>650.70433333333</ele>
        <time>2017-02-23T14:46:37Z</time>
      </trkpt>
      <trkpt lat="45.92609" lon="3.60026">
        <ele>653.50437333333</ele>
        <time>2017-02-23T14:46:40Z</time>
      </trkpt>
      <trkpt lat="45.9261" lon="3.60015">
        <ele>655.30441333333</ele>
        <time>2017-02-23T14:46:43Z</time>
      </trkpt>
      <trkpt lat="45.9261" lon="3.59994">
        <ele>657.8044</ele>
        <time>2017-02-23T14:46:48Z</time>
      </trkpt>
      <trkpt lat="45.92611" lon="3.59989">
        <ele>658.60442</ele>
        <time>2017-02-23T14:46:50Z</time>
      </trkpt>
      <trkpt lat="45.92611" lon="3.59973">
        <ele>661.20442</ele>
        <time>2017-02-23T14:46:56Z</time>
      </trkpt>
      <trkpt lat="45.92612" lon="3.59965">
        <ele>661.70446666667</ele>
        <time>2017-02-23T14:46:59Z</time>
      </trkpt>
      <trkpt lat="45.92614" lon="3.59954">
        <ele>662.30454</ele>
        <time>2017-02-23T14:47:03Z</time>
      </trkpt>
      <trkpt lat="45.92614" lon="3.59941">
        <ele>662.90456666667</ele>
        <time>2017-02-23T14:47:08Z</time>
      </trkpt>
      <trkpt lat="45.92612" lon="3.59924">
        <ele>664.50449333333</ele>
        <time>2017-02-23T14:47:12Z</time>
      </trkpt>
      <trkpt lat="45.92612" lon="3.59918">
        <ele>665.30446</ele>
        <time>2017-02-23T14:47:14Z</time>
      </trkpt>
      <trkpt lat="45.92612" lon="3.5991">
        <ele>666.10446666667</ele>
        <time>2017-02-23T14:47:17Z</time>
      </trkpt>
      <trkpt lat="45.92612" lon="3.59896">
        <ele>666.90449333333</ele>
        <time>2017-02-23T14:47:22Z</time>
      </trkpt>
      <trkpt lat="45.92612" lon="3.59885">
        <ele>667.60449333333</ele>
        <time>2017-02-23T14:47:26Z</time>
      </trkpt>
      <trkpt lat="45.92611" lon="3.59868">
        <ele>668.50442</ele>
        <time>2017-02-23T14:47:31Z</time>
      </trkpt>
      <trkpt lat="45.9261" lon="3.59829">
        <ele>669.20438666667</ele>
        <time>2017-02-23T14:47:45Z</time>
      </trkpt>
      <trkpt lat="45.92609" lon="3.59795">
        <ele>670.80434666667</ele>
        <time>2017-02-23T14:47:56Z</time>
      </trkpt>
      <trkpt lat="45.92612" lon="3.59784">
        <ele>671.20449333333</ele>
        <time>2017-02-23T14:48:01Z</time>
      </trkpt>
      <trkpt lat="45.9262" lon="3.59775">
        <ele>671.70478</ele>
        <time>2017-02-23T14:48:05Z</time>
      </trkpt>
      <trkpt lat="45.92622" lon="3.59772">
        <ele>671.70486666667</ele>
        <time>2017-02-23T14:48:06Z</time>
      </trkpt>
      <trkpt lat="45.92637" lon="3.59733">
        <ele>672.20548</ele>
        <time>2017-02-23T14:48:19Z</time>
      </trkpt>
      <trkpt lat="45.9264" lon="3.59714">
        <ele>672.1056</ele>
        <time>2017-02-23T14:48:24Z</time>
      </trkpt>
      <trkpt lat="45.92643" lon="3.59702">
        <ele>672.50572</ele>
        <time>2017-02-23T14:48:27Z</time>
      </trkpt>
      <trkpt lat="45.92645" lon="3.597">
        <ele>672.60578</ele>
        <time>2017-02-23T14:48:41Z</time>
      </trkpt>
      <trkpt lat="45.92659" lon="3.59653">
        <ele>672.20636</ele>
        <time>2017-02-23T14:48:41Z</time>
      </trkpt>
      <trkpt lat="45.92683" lon="3.59587">
        <ele>671.30731333333</ele>
        <time>2017-02-23T14:48:49Z</time>
      </trkpt>
      <trkpt lat="45.92691" lon="3.59565">
        <ele>670.30765333333</ele>
        <time>2017-02-23T14:48:53Z</time>
      </trkpt>
      <trkpt lat="45.92697" lon="3.59546">
        <ele>668.70788</ele>
        <time>2017-02-23T14:48:56Z</time>
      </trkpt>
      <trkpt lat="45.92712" lon="3.5952">
        <ele>666.00848</ele>
        <time>2017-02-23T14:49:00Z</time>
      </trkpt>
      <trkpt lat="45.92723" lon="3.59497">
        <ele>664.30890666667</ele>
        <time>2017-02-23T14:49:03Z</time>
      </trkpt>
      <trkpt lat="45.92738" lon="3.59468">
        <ele>662.50953333333</ele>
        <time>2017-02-23T14:49:08Z</time>
      </trkpt>
      <trkpt lat="45.92753" lon="3.59439">
        <ele>660.71013333333</ele>
        <time>2017-02-23T14:49:11Z</time>
      </trkpt>
      <trkpt lat="45.92763" lon="3.59426">
        <ele>659.51053333333</ele>
        <time>2017-02-23T14:49:17Z</time>
      </trkpt>
      <trkpt lat="45.92808" lon="3.59362">
        <ele>654.01231333333</ele>
        <time>2017-02-23T14:49:22Z</time>
      </trkpt>
      <trkpt lat="45.92824" lon="3.59298">
        <ele>649.31297333333</ele>
        <time>2017-02-23T14:49:26Z</time>
      </trkpt>
      <trkpt lat="45.92837" lon="3.5925">
        <ele>646.31347333333</ele>
        <time>2017-02-23T14:49:30Z</time>
      </trkpt>
      <trkpt lat="45.9285" lon="3.59193">
        <ele>643.21399333333</ele>
        <time>2017-02-23T14:49:34Z</time>
      </trkpt>
      <trkpt lat="45.92864" lon="3.59144">
        <ele>640.21457333333</ele>
        <time>2017-02-23T14:49:39Z</time>
      </trkpt>
      <trkpt lat="45.92877" lon="3.5911">
        <ele>637.31508666667</ele>
        <time>2017-02-23T14:49:43Z</time>
      </trkpt>
      <trkpt lat="45.92884" lon="3.59092">
        <ele>635.81536</ele>
        <time>2017-02-23T14:49:44Z</time>
      </trkpt>
      <trkpt lat="45.92909" lon="3.59034">
        <ele>630.11634666667</ele>
        <time>2017-02-23T14:49:52Z</time>
      </trkpt>
      <trkpt lat="45.92919" lon="3.58999">
        <ele>627.01676666667</ele>
        <time>2017-02-23T14:49:56Z</time>
      </trkpt>
      <trkpt lat="45.92928" lon="3.58967">
        <ele>623.91710666667</ele>
        <time>2017-02-23T14:50:00Z</time>
      </trkpt>
      <trkpt lat="45.92949" lon="3.58909">
        <ele>613.71795333333</ele>
        <time>2017-02-23T14:50:13Z</time>
      </trkpt>
      <trkpt lat="45.92963" lon="3.58894">
        <ele>612.41851333333</ele>
        <time>2017-02-23T14:50:18Z</time>
      </trkpt>
      <trkpt lat="45.92992" lon="3.58885">
        <ele>609.31966</ele>
        <time>2017-02-23T14:50:21Z</time>
      </trkpt>
      <trkpt lat="45.93034" lon="3.58866">
        <ele>605.82136</ele>
        <time>2017-02-23T14:50:25Z</time>
      </trkpt>
      <trkpt lat="45.93055" lon="3.5885">
        <ele>602.92218</ele>
        <time>2017-02-23T14:50:26Z</time>
      </trkpt>
      <trkpt lat="45.9313" lon="3.58778">
        <ele>594.92519333333</ele>
        <time>2017-02-23T14:50:34Z</time>
      </trkpt>
      <trkpt lat="45.93167" lon="3.58711">
        <ele>590.92668666667</ele>
        <time>2017-02-23T14:50:39Z</time>
      </trkpt>
      <trkpt lat="45.93199" lon="3.58664">
        <ele>588.02794</ele>
        <time>2017-02-23T14:50:44Z</time>
      </trkpt>
      <trkpt lat="45.93204" lon="3.58658">
        <ele>587.32817333333</ele>
        <time>2017-02-23T14:50:46Z</time>
      </trkpt>
      <trkpt lat="45.93234" lon="3.58632">
        <ele>586.02936</ele>
        <time>2017-02-23T14:50:51Z</time>
      </trkpt>
      <trkpt lat="45.93249" lon="3.58615">
        <ele>584.22994666667</ele>
        <time>2017-02-23T14:50:54Z</time>
      </trkpt>
      <trkpt lat="45.93269" lon="3.58592">
        <ele>581.33076</ele>
        <time>2017-02-23T14:50:58Z</time>
      </trkpt>
      <trkpt lat="45.9329" lon="3.58565">
        <ele>577.73158</ele>
        <time>2017-02-23T14:51:02Z</time>
      </trkpt>
      <trkpt lat="45.933" lon="3.58549">
        <ele>575.432</ele>
        <time>2017-02-23T14:51:07Z</time>
      </trkpt>
      <trkpt lat="45.93326" lon="3.58475">
        <ele>568.53305333333</ele>
        <time>2017-02-23T14:51:12Z</time>
      </trkpt>
      <trkpt lat="45.93337" lon="3.58445">
        <ele>563.93349333333</ele>
        <time>2017-02-23T14:51:15Z</time>
      </trkpt>
      <trkpt lat="45.93356" lon="3.58331">
        <ele>550.43422</ele>
        <time>2017-02-23T14:51:26Z</time>
      </trkpt>
      <trkpt lat="45.9336" lon="3.58303">
        <ele>544.1344</ele>
        <time>2017-02-23T14:51:31Z</time>
      </trkpt>
      <trkpt lat="45.93372" lon="3.58295">
        <ele>539.63488</ele>
        <time>2017-02-23T14:51:35Z</time>
      </trkpt>
      <trkpt lat="45.93388" lon="3.5829">
        <ele>535.73551333333</ele>
        <time>2017-02-23T14:51:39Z</time>
      </trkpt>
      <trkpt lat="45.93396" lon="3.58297">
        <ele>534.83584</ele>
        <time>2017-02-23T14:51:41Z</time>
      </trkpt>
      <trkpt lat="45.93405" lon="3.58346">
        <ele>530.03621333333</ele>
        <time>2017-02-23T14:51:46Z</time>
      </trkpt>
      <trkpt lat="45.9342" lon="3.58388">
        <ele>526.43678</ele>
        <time>2017-02-23T14:51:50Z</time>
      </trkpt>
      <trkpt lat="45.93441" lon="3.58429">
        <ele>522.73764666667</ele>
        <time>2017-02-23T14:51:55Z</time>
      </trkpt>
      <trkpt lat="45.93472" lon="3.58453">
        <ele>519.13889333333</ele>
        <time>2017-02-23T14:51:59Z</time>
      </trkpt>
      <trkpt lat="45.93482" lon="3.58454">
        <ele>518.33927333333</ele>
        <time>2017-02-23T14:52:00Z</time>
      </trkpt>
      <trkpt lat="45.9351" lon="3.58454">
        <ele>516.54038</ele>
        <time>2017-02-23T14:52:09Z</time>
      </trkpt>
      <trkpt lat="45.93566" lon="3.58459">
        <ele>516.44265333333</ele>
        <time>2017-02-23T14:52:13Z</time>
      </trkpt>
      <trkpt lat="45.93581" lon="3.58467">
        <ele>512.64324666667</ele>
        <time>2017-02-23T14:52:17Z</time>
      </trkpt>
      <trkpt lat="45.9359" lon="3.58473">
        <ele>511.3436</ele>
        <time>2017-02-23T14:52:20Z</time>
      </trkpt>
      <trkpt lat="45.93618" lon="3.5848">
        <ele>511.5447</ele>
        <time>2017-02-23T14:52:26Z</time>
      </trkpt>
      <trkpt lat="45.93639" lon="3.58482">
        <ele>516.34554666667</ele>
        <time>2017-02-23T14:52:29Z</time>
      </trkpt>
      <trkpt lat="45.93644" lon="3.58482">
        <ele>516.64574</ele>
        <time>2017-02-23T14:52:34Z</time>
      </trkpt>
      <trkpt lat="45.9368" lon="3.58479">
        <ele>521.0472</ele>
        <time>2017-02-23T14:52:37Z</time>
      </trkpt>
      <trkpt lat="45.93695" lon="3.58471">
        <ele>523.64779333333</ele>
        <time>2017-02-23T14:52:41Z</time>
      </trkpt>
      <trkpt lat="45.93704" lon="3.58462">
        <ele>525.34814</ele>
        <time>2017-02-23T14:52:44Z</time>
      </trkpt>
      <trkpt lat="45.93716" lon="3.58443">
        <ele>527.74862666667</ele>
        <time>2017-02-23T14:52:49Z</time>
      </trkpt>
      <trkpt lat="45.93726" lon="3.58433">
        <ele>529.54904666667</ele>
        <time>2017-02-23T14:52:53Z</time>
      </trkpt>
      <trkpt lat="45.93739" lon="3.58428">
        <ele>530.74955333333</ele>
        <time>2017-02-23T14:52:57Z</time>
      </trkpt>
      <trkpt lat="45.93743" lon="3.58427">
        <ele>530.84972666667</ele>
        <time>2017-02-23T14:53:00Z</time>
      </trkpt>
      <trkpt lat="45.9375" lon="3.58431">
        <ele>530.95001333333</ele>
        <time>2017-02-23T14:53:05Z</time>
      </trkpt>
      <trkpt lat="45.93757" lon="3.58435">
        <ele>531.95028666667</ele>
        <time>2017-02-23T14:53:09Z</time>
      </trkpt>
      <trkpt lat="45.93766" lon="3.58434">
        <ele>534.35064666667</ele>
        <time>2017-02-23T14:53:14Z</time>
      </trkpt>
      <trkpt lat="45.9377" lon="3.58436">
        <ele>535.05081333333</ele>
        <time>2017-02-23T14:53:20Z</time>
      </trkpt>
      <trkpt lat="45.93782" lon="3.58439">
        <ele>537.85127333333</ele>
        <time>2017-02-23T14:53:24Z</time>
      </trkpt>
      <trkpt lat="45.93789" lon="3.58442">
        <ele>538.95155333333</ele>
        <time>2017-02-23T14:53:32Z</time>
      </trkpt>
      <trkpt lat="45.93801" lon="3.58446">
        <ele>541.85202666667</ele>
        <time>2017-02-23T14:53:35Z</time>
      </trkpt>
      <trkpt lat="45.93809" lon="3.58449">
        <ele>541.55237333333</ele>
        <time>2017-02-23T14:53:42Z</time>
      </trkpt>
      <trkpt lat="45.93814" lon="3.58454">
        <ele>540.15256666667</ele>
        <time>2017-02-23T14:53:47Z</time>
      </trkpt>
      <trkpt lat="45.93831" lon="3.58454">
        <ele>542.35322666667</ele>
        <time>2017-02-23T14:54:00Z</time>
      </trkpt>
      <trkpt lat="45.9384" lon="3.58446">
        <ele>542.05358</ele>
        <time>2017-02-23T14:54:05Z</time>
      </trkpt>
      <trkpt lat="45.93846" lon="3.5844">
        <ele>542.05382</ele>
        <time>2017-02-23T14:54:09Z</time>
      </trkpt>
      <trkpt lat="45.93852" lon="3.58432">
        <ele>541.85408</ele>
        <time>2017-02-23T14:54:13Z</time>
      </trkpt>
      <trkpt lat="45.93854" lon="3.5843">
        <ele>541.95414</ele>
        <time>2017-02-23T14:54:22Z</time>
      </trkpt>
      <trkpt lat="45.93864" lon="3.58408">
        <ele>541.85454666667</ele>
        <time>2017-02-23T14:54:22Z</time>
      </trkpt>
      <trkpt lat="45.93866" lon="3.584">
        <ele>541.95465333333</ele>
        <time>2017-02-23T14:54:29Z</time>
      </trkpt>
      <trkpt lat="45.93879" lon="3.58386">
        <ele>543.65516</ele>
        <time>2017-02-23T14:54:31Z</time>
      </trkpt>
      <trkpt lat="45.93897" lon="3.58379">
        <ele>546.75587333333</ele>
        <time>2017-02-23T14:54:44Z</time>
      </trkpt>
      <trkpt lat="45.93902" lon="3.58386">
        <ele>548.15608666667</ele>
        <time>2017-02-23T14:54:52Z</time>
      </trkpt>
      <trkpt lat="45.93909" lon="3.58391">
        <ele>547.95636</ele>
        <time>2017-02-23T14:54:59Z</time>
      </trkpt>
      <trkpt lat="45.93914" lon="3.58401">
        <ele>548.25654</ele>
        <time>2017-02-23T14:55:05Z</time>
      </trkpt>
      <trkpt lat="45.93918" lon="3.58408">
        <ele>548.05672666667</ele>
        <time>2017-02-23T14:55:11Z</time>
      </trkpt>
      <trkpt lat="45.93923" lon="3.58414">
        <ele>548.15693333333</ele>
        <time>2017-02-23T14:55:15Z</time>
      </trkpt>
      <trkpt lat="45.93925" lon="3.58426">
        <ele>548.15698666667</ele>
        <time>2017-02-23T14:55:21Z</time>
      </trkpt>
      <trkpt lat="45.93925" lon="3.58436">
        <ele>548.057</ele>
        <time>2017-02-23T14:55:29Z</time>
      </trkpt>
      <trkpt lat="45.93925" lon="3.58459">
        <ele>547.95701333333</ele>
        <time>2017-02-23T14:55:33Z</time>
      </trkpt>
      <trkpt lat="45.93927" lon="3.58464">
        <ele>548.05706666667</ele>
        <time>2017-02-23T14:55:35Z</time>
      </trkpt>
      <trkpt lat="45.93931" lon="3.58476">
        <ele>548.45722666667</ele>
        <time>2017-02-23T14:55:41Z</time>
      </trkpt>
      <trkpt lat="45.93937" lon="3.58511">
        <ele>546.35748666667</ele>
        <time>2017-02-23T14:55:54Z</time>
      </trkpt>
      <trkpt lat="45.93942" lon="3.58523">
        <ele>546.05769333333</ele>
        <time>2017-02-23T14:55:59Z</time>
      </trkpt>
      <trkpt lat="45.93946" lon="3.58529">
        <ele>546.15782666667</ele>
        <time>2017-02-23T14:56:03Z</time>
      </trkpt>
      <trkpt lat="45.93949" lon="3.58537">
        <ele>546.75795333333</ele>
        <time>2017-02-23T14:56:06Z</time>
      </trkpt>
      <trkpt lat="45.9395" lon="3.5855">
        <ele>548.05798</ele>
        <time>2017-02-23T14:56:11Z</time>
      </trkpt>
      <trkpt lat="45.93951" lon="3.5856">
        <ele>548.85802666667</ele>
        <time>2017-02-23T14:56:24Z</time>
      </trkpt>
      <trkpt lat="45.93948" lon="3.58591">
        <ele>550.3579</ele>
        <time>2017-02-23T14:56:24Z</time>
      </trkpt>
      <trkpt lat="45.93948" lon="3.58594">
        <ele>551.45791333333</ele>
        <time>2017-02-23T14:56:29Z</time>
      </trkpt>
      <trkpt lat="45.93941" lon="3.58617">
        <ele>552.25764</ele>
        <time>2017-02-23T14:56:32Z</time>
      </trkpt>
      <trkpt lat="45.93928" lon="3.58653">
        <ele>555.75712</ele>
        <time>2017-02-23T14:56:45Z</time>
      </trkpt>
      <trkpt lat="45.93923" lon="3.58667">
        <ele>555.95690666667</ele>
        <time>2017-02-23T14:56:49Z</time>
      </trkpt>
      <trkpt lat="45.93916" lon="3.58679">
        <ele>555.95662</ele>
        <time>2017-02-23T14:56:53Z</time>
      </trkpt>
      <trkpt lat="45.93909" lon="3.5869">
        <ele>556.35634666667</ele>
        <time>2017-02-23T14:56:58Z</time>
      </trkpt>
      <trkpt lat="45.93904" lon="3.587">
        <ele>556.65614</ele>
        <time>2017-02-23T14:57:07Z</time>
      </trkpt>
      <trkpt lat="45.93902" lon="3.58705">
        <ele>556.85607333333</ele>
        <time>2017-02-23T14:57:07Z</time>
      </trkpt>
      <trkpt lat="45.93885" lon="3.58734">
        <ele>559.35538</ele>
        <time>2017-02-23T14:57:20Z</time>
      </trkpt>
      <trkpt lat="45.93875" lon="3.58758">
        <ele>559.455</ele>
        <time>2017-02-23T14:57:29Z</time>
      </trkpt>
      <trkpt lat="45.93874" lon="3.58766">
        <ele>559.35495333333</ele>
        <time>2017-02-23T14:57:42Z</time>
      </trkpt>
      <trkpt lat="45.93868" lon="3.58786">
        <ele>560.25471333333</ele>
        <time>2017-02-23T14:57:42Z</time>
      </trkpt>
      <trkpt lat="45.93857" lon="3.58816">
        <ele>561.75428666667</ele>
        <time>2017-02-23T14:57:55Z</time>
      </trkpt>
      <trkpt lat="45.93856" lon="3.58826">
        <ele>562.65422666667</ele>
        <time>2017-02-23T14:57:59Z</time>
      </trkpt>
      <trkpt lat="45.93853" lon="3.58839">
        <ele>562.85413333333</ele>
        <time>2017-02-23T14:58:05Z</time>
      </trkpt>
      <trkpt lat="45.93853" lon="3.58844">
        <ele>562.95410666667</ele>
        <time>2017-02-23T14:59:38Z</time>
      </trkpt>
      <trkpt lat="45.93853" lon="3.58859">
        <ele>573.55413333333</ele>
        <time>2017-02-23T14:59:51Z</time>
      </trkpt>
      <trkpt lat="45.93851" lon="3.58871">
        <ele>575.05402666667</ele>
        <time>2017-02-23T14:59:59Z</time>
      </trkpt>
      <trkpt lat="45.93849" lon="3.58882">
        <ele>575.65394666667</ele>
        <time>2017-02-23T15:00:05Z</time>
      </trkpt>
      <trkpt lat="45.93843" lon="3.5889">
        <ele>576.05370666667</ele>
        <time>2017-02-23T15:00:14Z</time>
      </trkpt>
      <trkpt lat="45.9384" lon="3.58893">
        <ele>576.1536</ele>
        <time>2017-02-23T15:00:24Z</time>
      </trkpt>
      <trkpt lat="45.93828" lon="3.58905">
        <ele>575.85313333333</ele>
        <time>2017-02-23T15:00:29Z</time>
      </trkpt>
      <trkpt lat="45.93823" lon="3.5891">
        <ele>575.8529</ele>
        <time>2017-02-23T15:00:32Z</time>
      </trkpt>
      <trkpt lat="45.93809" lon="3.5892">
        <ele>576.95235333333</ele>
        <time>2017-02-23T15:00:45Z</time>
      </trkpt>
      <trkpt lat="45.93802" lon="3.58926">
        <ele>577.35208</ele>
        <time>2017-02-23T15:00:53Z</time>
      </trkpt>
      <trkpt lat="45.93795" lon="3.58932">
        <ele>577.25181333333</ele>
        <time>2017-02-23T15:00:59Z</time>
      </trkpt>
      <trkpt lat="45.93793" lon="3.58935">
        <ele>577.15172</ele>
        <time>2017-02-23T15:01:00Z</time>
      </trkpt>
      <trkpt lat="45.93786" lon="3.58947">
        <ele>577.75144</ele>
        <time>2017-02-23T15:01:12Z</time>
      </trkpt>
      <trkpt lat="45.93781" lon="3.58953">
        <ele>578.55123333333</ele>
        <time>2017-02-23T15:01:30Z</time>
      </trkpt>
      <trkpt lat="45.93781" lon="3.58976">
        <ele>578.95122</ele>
        <time>2017-02-23T15:01:35Z</time>
      </trkpt>
      <trkpt lat="45.93786" lon="3.58986">
        <ele>579.15142</ele>
        <time>2017-02-23T15:01:42Z</time>
      </trkpt>
      <trkpt lat="45.93791" lon="3.58995">
        <ele>579.65162666667</ele>
        <time>2017-02-23T15:01:49Z</time>
      </trkpt>
      <trkpt lat="45.93793" lon="3.59002">
        <ele>579.85172</ele>
        <time>2017-02-23T15:01:54Z</time>
      </trkpt>
      <trkpt lat="45.93796" lon="3.59013">
        <ele>579.95184666667</ele>
        <time>2017-02-23T15:02:01Z</time>
      </trkpt>
      <trkpt lat="45.93796" lon="3.59015">
        <ele>580.05185333333</ele>
        <time>2017-02-23T15:02:13Z</time>
      </trkpt>
      <trkpt lat="45.93795" lon="3.59045">
        <ele>580.15178666667</ele>
        <time>2017-02-23T15:02:17Z</time>
      </trkpt>
      <trkpt lat="45.93795" lon="3.5905">
        <ele>580.05180666667</ele>
        <time>2017-02-23T15:02:20Z</time>
      </trkpt>
      <trkpt lat="45.93798" lon="3.59064">
        <ele>580.15191333333</ele>
        <time>2017-02-23T15:02:29Z</time>
      </trkpt>
      <trkpt lat="45.93799" lon="3.59074">
        <ele>580.35196</ele>
        <time>2017-02-23T15:02:36Z</time>
      </trkpt>
      <trkpt lat="45.93799" lon="3.59086">
        <ele>580.65195333333</ele>
        <time>2017-02-23T15:02:49Z</time>
      </trkpt>
      <trkpt lat="45.93795" lon="3.59103">
        <ele>580.55179333333</ele>
        <time>2017-02-23T15:02:53Z</time>
      </trkpt>
      <trkpt lat="45.93793" lon="3.59118">
        <ele>580.25170666667</ele>
        <time>2017-02-23T15:02:58Z</time>
      </trkpt>
      <trkpt lat="45.93794" lon="3.59124">
        <ele>580.25176</ele>
        <time>2017-02-23T15:03:07Z</time>
      </trkpt>
      <trkpt lat="45.93795" lon="3.59134">
        <ele>580.3518</ele>
        <time>2017-02-23T15:03:07Z</time>
      </trkpt>
      <trkpt lat="45.93794" lon="3.59145">
        <ele>580.55177333333</ele>
        <time>2017-02-23T15:03:14Z</time>
      </trkpt>
      <trkpt lat="45.93794" lon="3.59154">
        <ele>580.65174</ele>
        <time>2017-02-23T15:03:19Z</time>
      </trkpt>
      <trkpt lat="45.93793" lon="3.59161">
        <ele>580.45170666667</ele>
        <time>2017-02-23T15:03:22Z</time>
      </trkpt>
      <trkpt lat="45.93792" lon="3.59171">
        <ele>580.85167333333</ele>
        <time>2017-02-23T15:03:29Z</time>
      </trkpt>
      <trkpt lat="45.93791" lon="3.59178">
        <ele>581.35164666667</ele>
        <time>2017-02-23T15:03:31Z</time>
      </trkpt>
      <trkpt lat="45.93789" lon="3.592">
        <ele>583.45154</ele>
        <time>2017-02-23T15:03:44Z</time>
      </trkpt>
      <trkpt lat="45.93786" lon="3.59219">
        <ele>587.65142</ele>
        <time>2017-02-23T15:03:57Z</time>
      </trkpt>
      <trkpt lat="45.93783" lon="3.59228">
        <ele>589.25131333333</ele>
        <time>2017-02-23T15:04:01Z</time>
      </trkpt>
      <trkpt lat="45.93782" lon="3.59232">
        <ele>590.55126</ele>
        <time>2017-02-23T15:04:06Z</time>
      </trkpt>
      <trkpt lat="45.93776" lon="3.59242">
        <ele>608.65105333333</ele>
        <time>2017-02-23T15:06:35Z</time>
      </trkpt>
      <trkpt lat="45.93773" lon="3.59252">
        <ele>609.25093333333</ele>
        <time>2017-02-23T15:06:41Z</time>
      </trkpt>
      <trkpt lat="45.93772" lon="3.59263">
        <ele>609.15088666667</ele>
        <time>2017-02-23T15:06:49Z</time>
      </trkpt>
      <trkpt lat="45.93772" lon="3.59272">
        <ele>609.05089333333</ele>
        <time>2017-02-23T15:06:53Z</time>
      </trkpt>
      <trkpt lat="45.93772" lon="3.59282">
        <ele>609.35088</ele>
        <time>2017-02-23T15:06:58Z</time>
      </trkpt>
      <trkpt lat="45.93771" lon="3.59294">
        <ele>609.55083333333</ele>
        <time>2017-02-23T15:07:04Z</time>
      </trkpt>
      <trkpt lat="45.9377" lon="3.59305">
        <ele>609.75079333333</ele>
        <time>2017-02-23T15:07:09Z</time>
      </trkpt>
      <trkpt lat="45.93769" lon="3.59313">
        <ele>609.75074</ele>
        <time>2017-02-23T15:07:14Z</time>
      </trkpt>
      <trkpt lat="45.93768" lon="3.59325">
        <ele>610.05070666667</ele>
        <time>2017-02-23T15:07:20Z</time>
      </trkpt>
      <trkpt lat="45.93767" lon="3.59334">
        <ele>610.15068666667</ele>
        <time>2017-02-23T15:07:25Z</time>
      </trkpt>
      <trkpt lat="45.93766" lon="3.59344">
        <ele>610.05064</ele>
        <time>2017-02-23T15:07:30Z</time>
      </trkpt>
      <trkpt lat="45.93768" lon="3.59354">
        <ele>610.0507</ele>
        <time>2017-02-23T15:07:38Z</time>
      </trkpt>
      <trkpt lat="45.93768" lon="3.59357">
        <ele>610.05072666667</ele>
        <time>2017-02-23T15:07:38Z</time>
      </trkpt>
      <trkpt lat="45.93771" lon="3.59387">
        <ele>610.85082666667</ele>
        <time>2017-02-23T15:07:51Z</time>
      </trkpt>
      <trkpt lat="45.93772" lon="3.59394">
        <ele>611.05086</ele>
        <time>2017-02-23T15:07:59Z</time>
      </trkpt>
      <trkpt lat="45.93771" lon="3.59421">
        <ele>611.45084</ele>
        <time>2017-02-23T15:08:01Z</time>
      </trkpt>
      <trkpt lat="45.93771" lon="3.59425">
        <ele>611.35084</ele>
        <time>2017-02-23T15:08:13Z</time>
      </trkpt>
      <trkpt lat="45.93756" lon="3.59484">
        <ele>609.75022666667</ele>
        <time>2017-02-23T15:08:17Z</time>
      </trkpt>
      <trkpt lat="45.93753" lon="3.59495">
        <ele>609.4501</ele>
        <time>2017-02-23T15:08:19Z</time>
      </trkpt>
      <trkpt lat="45.93749" lon="3.59508">
        <ele>609.04994666667</ele>
        <time>2017-02-23T15:08:25Z</time>
      </trkpt>
      <trkpt lat="45.93717" lon="3.59573">
        <ele>608.14869333333</ele>
        <time>2017-02-23T15:08:29Z</time>
      </trkpt>
      <trkpt lat="45.93699" lon="3.59581">
        <ele>607.24794666667</ele>
        <time>2017-02-23T15:08:33Z</time>
      </trkpt>
      <trkpt lat="45.9367" lon="3.59581">
        <ele>606.44681333333</ele>
        <time>2017-02-23T15:08:36Z</time>
      </trkpt>
      <trkpt lat="45.93659" lon="3.59585">
        <ele>605.94634</ele>
        <time>2017-02-23T15:08:38Z</time>
      </trkpt>
      <trkpt lat="45.93645" lon="3.59606">
        <ele>604.94580666667</ele>
        <time>2017-02-23T15:08:43Z</time>
      </trkpt>
      <trkpt lat="45.93611" lon="3.59651">
        <ele>603.14444</ele>
        <time>2017-02-23T15:08:47Z</time>
      </trkpt>
      <trkpt lat="45.93588" lon="3.5969">
        <ele>601.24351333333</ele>
        <time>2017-02-23T15:08:51Z</time>
      </trkpt>
      <trkpt lat="45.93582" lon="3.59704">
        <ele>600.64328666667</ele>
        <time>2017-02-23T15:08:54Z</time>
      </trkpt>
      <trkpt lat="45.93579" lon="3.59724">
        <ele>599.54314</ele>
        <time>2017-02-23T15:08:58Z</time>
      </trkpt>
      <trkpt lat="45.93584" lon="3.59733">
        <ele>598.74336</ele>
        <time>2017-02-23T15:09:02Z</time>
      </trkpt>
      <trkpt lat="45.93588" lon="3.5974">
        <ele>598.34352666667</ele>
        <time>2017-02-23T15:09:06Z</time>
      </trkpt>
      <trkpt lat="45.93592" lon="3.59752">
        <ele>597.94367333333</ele>
        <time>2017-02-23T15:09:14Z</time>
      </trkpt>
      <trkpt lat="45.93594" lon="3.59763">
        <ele>596.34377333333</ele>
        <time>2017-02-23T15:09:18Z</time>
      </trkpt>
      <trkpt lat="45.93593" lon="3.5977">
        <ele>596.54372666667</ele>
        <time>2017-02-23T15:09:21Z</time>
      </trkpt>
      <trkpt lat="45.93597" lon="3.59781">
        <ele>597.34386</ele>
        <time>2017-02-23T15:09:26Z</time>
      </trkpt>
      <trkpt lat="45.93602" lon="3.59788">
        <ele>597.04407333333</ele>
        <time>2017-02-23T15:09:34Z</time>
      </trkpt>
      <trkpt lat="45.93606" lon="3.59794">
        <ele>597.04425333333</ele>
        <time>2017-02-23T15:09:41Z</time>
      </trkpt>
      <trkpt lat="45.93614" lon="3.59804">
        <ele>597.04454666667</ele>
        <time>2017-02-23T15:09:41Z</time>
      </trkpt>
      <trkpt lat="45.9362" lon="3.59813">
        <ele>596.24478</ele>
        <time>2017-02-23T15:09:54Z</time>
      </trkpt>
      <trkpt lat="45.93624" lon="3.59824">
        <ele>594.14495333333</ele>
        <time>2017-02-23T15:09:58Z</time>
      </trkpt>
      <trkpt lat="45.93626" lon="3.5983">
        <ele>593.64503333333</ele>
        <time>2017-02-23T15:10:01Z</time>
      </trkpt>
      <trkpt lat="45.93627" lon="3.59839">
        <ele>592.84509333333</ele>
        <time>2017-02-23T15:10:07Z</time>
      </trkpt>
      <trkpt lat="45.93633" lon="3.5986">
        <ele>592.14530666667</ele>
        <time>2017-02-23T15:10:20Z</time>
      </trkpt>
      <trkpt lat="45.93634" lon="3.5987">
        <ele>591.24534</ele>
        <time>2017-02-23T15:10:26Z</time>
      </trkpt>
      <trkpt lat="45.93637" lon="3.5988">
        <ele>590.34546</ele>
        <time>2017-02-23T15:10:32Z</time>
      </trkpt>
      <trkpt lat="45.93637" lon="3.59883">
        <ele>589.94548666667</ele>
        <time>2017-02-23T15:10:34Z</time>
      </trkpt>
      <trkpt lat="45.93646" lon="3.59895">
        <ele>589.44582</ele>
        <time>2017-02-23T15:10:47Z</time>
      </trkpt>
      <trkpt lat="45.93651" lon="3.59905">
        <ele>589.64604666667</ele>
        <time>2017-02-23T15:10:53Z</time>
      </trkpt>
      <trkpt lat="45.93658" lon="3.59912">
        <ele>592.04632</ele>
        <time>2017-02-23T15:11:06Z</time>
      </trkpt>
      <trkpt lat="45.93665" lon="3.59914">
        <ele>597.34658666667</ele>
        <time>2017-02-23T15:11:29Z</time>
      </trkpt>
      <trkpt lat="45.93672" lon="3.59921">
        <ele>598.04688</ele>
        <time>2017-02-23T15:11:37Z</time>
      </trkpt>
      <trkpt lat="45.93679" lon="3.59929">
        <ele>599.44715333333</ele>
        <time>2017-02-23T15:11:51Z</time>
      </trkpt>
      <trkpt lat="45.93686" lon="3.59939">
        <ele>600.74744</ele>
        <time>2017-02-23T15:11:51Z</time>
      </trkpt>
      <trkpt lat="45.93696" lon="3.59955">
        <ele>601.94785333333</ele>
        <time>2017-02-23T15:11:59Z</time>
      </trkpt>
      <trkpt lat="45.93699" lon="3.59961">
        <ele>602.24795333333</ele>
        <time>2017-02-23T15:12:01Z</time>
      </trkpt>
      <trkpt lat="45.93694" lon="3.60002">
        <ele>602.14777333333</ele>
        <time>2017-02-23T15:12:09Z</time>
      </trkpt>
      <trkpt lat="45.93689" lon="3.60021">
        <ele>602.24757333333</ele>
        <time>2017-02-23T15:12:13Z</time>
      </trkpt>
      <trkpt lat="45.93685" lon="3.60031">
        <ele>602.34740666667</ele>
        <time>2017-02-23T15:12:15Z</time>
      </trkpt>
      <trkpt lat="45.93679" lon="3.60055">
        <ele>602.34714</ele>
        <time>2017-02-23T15:12:29Z</time>
      </trkpt>
      <trkpt lat="45.93663" lon="3.60177">
        <ele>601.74652</ele>
        <time>2017-02-23T15:12:31Z</time>
      </trkpt>
      <trkpt lat="45.93667" lon="3.60242">
        <ele>600.34666</ele>
        <time>2017-02-23T15:12:38Z</time>
      </trkpt>
      <trkpt lat="45.93674" lon="3.60254">
        <ele>597.94696</ele>
        <time>2017-02-23T15:12:41Z</time>
      </trkpt>
      <trkpt lat="45.93675" lon="3.6026">
        <ele>597.14701333333</ele>
        <time>2017-02-23T15:12:50Z</time>
      </trkpt>
      <trkpt lat="45.93674" lon="3.6027">
        <ele>597.94694</ele>
        <time>2017-02-23T15:18:13Z</time>
      </trkpt>
      <trkpt lat="45.93683" lon="3.60272">
        <ele>609.34732666667</ele>
        <time>2017-02-23T15:18:18Z</time>
      </trkpt>
      <trkpt lat="45.93679" lon="3.60275">
        <ele>609.84716666667</ele>
        <time>2017-02-23T15:18:45Z</time>
      </trkpt>
      <trkpt lat="45.93686" lon="3.60289">
        <ele>610.34742666667</ele>
        <time>2017-02-23T15:18:50Z</time>
      </trkpt>
      <trkpt lat="45.937" lon="3.60309">
        <ele>610.54798</ele>
        <time>2017-02-23T15:18:55Z</time>
      </trkpt>
      <trkpt lat="45.93717" lon="3.60328">
        <ele>610.34867333333</ele>
        <time>2017-02-23T15:18:58Z</time>
      </trkpt>
      <trkpt lat="45.93736" lon="3.60351">
        <ele>610.04943333333</ele>
        <time>2017-02-23T15:19:02Z</time>
      </trkpt>
      <trkpt lat="45.93746" lon="3.60359">
        <ele>609.84984</ele>
        <time>2017-02-23T15:19:06Z</time>
      </trkpt>
      <trkpt lat="45.93763" lon="3.60368">
        <ele>608.95051333333</ele>
        <time>2017-02-23T15:19:09Z</time>
      </trkpt>
      <trkpt lat="45.93769" lon="3.60368">
        <ele>607.15074</ele>
        <time>2017-02-23T15:19:19Z</time>
      </trkpt>
      <trkpt lat="45.93758" lon="3.60383">
        <ele>605.75032</ele>
        <time>2017-02-23T15:19:29Z</time>
      </trkpt>
      <trkpt lat="45.9375" lon="3.60379">
        <ele>605.05000666667</ele>
        <time>2017-02-23T15:19:35Z</time>
      </trkpt>
      <trkpt lat="45.93745" lon="3.60372">
        <ele>604.64978</ele>
        <time>2017-02-23T15:19:38Z</time>
      </trkpt>
      <trkpt lat="45.93746" lon="3.6037">
        <ele>608.54982</ele>
        <time>2017-02-23T15:21:58Z</time>
      </trkpt>
      <trkpt lat="45.93744" lon="3.60385">
        <ele>612.34974666667</ele>
        <time>2017-02-23T15:22:00Z</time>
      </trkpt>
      <trkpt lat="45.93744" lon="3.60386">
        <ele>612.44974666667</ele>
        <time>2017-02-23T15:23:08Z</time>
      </trkpt>
      <trkpt lat="45.93752" lon="3.60379">
        <ele>612.15009333333</ele>
        <time>2017-02-23T15:23:10Z</time>
      </trkpt>
      <trkpt lat="45.93753" lon="3.60378">
        <ele>612.25010666667</ele>
        <time>2017-02-23T15:24:07Z</time>
      </trkpt>
      <trkpt lat="45.93749" lon="3.60367">
        <ele>610.44994666667</ele>
        <time>2017-02-23T15:24:20Z</time>
      </trkpt>
      <trkpt lat="45.93752" lon="3.60355">
        <ele>609.95008</ele>
        <time>2017-02-23T15:27:23Z</time>
      </trkpt>
      <trkpt lat="45.93756" lon="3.60368">
        <ele>609.65024666667</ele>
        <time>2017-02-23T15:27:30Z</time>
      </trkpt>
      <trkpt lat="45.93748" lon="3.60366">
        <ele>611.64991333333</ele>
        <time>2017-02-23T15:36:39Z</time>
      </trkpt>
      <trkpt lat="45.93743" lon="3.60361">
        <ele>611.14973333333</ele>
        <time>2017-02-23T15:36:41Z</time>
      </trkpt>
      <trkpt lat="45.93736" lon="3.60353">
        <ele>611.44944</ele>
        <time>2017-02-23T15:36:48Z</time>
      </trkpt>
      <trkpt lat="45.9374" lon="3.60364">
        <ele>612.74958666667</ele>
        <time>2017-02-23T15:38:31Z</time>
      </trkpt>
      <trkpt lat="45.93741" lon="3.60399">
        <ele>612.14964666667</ele>
        <time>2017-02-23T15:38:36Z</time>
      </trkpt>
      <trkpt lat="45.93729" lon="3.60428">
        <ele>611.44917333333</ele>
        <time>2017-02-23T15:38:40Z</time>
      </trkpt>
      <trkpt lat="45.93714" lon="3.6045">
        <ele>610.94857333333</ele>
        <time>2017-02-23T15:38:44Z</time>
      </trkpt>
      <trkpt lat="45.93696" lon="3.60485">
        <ele>610.34784666667</ele>
        <time>2017-02-23T15:38:48Z</time>
      </trkpt>
      <trkpt lat="45.93681" lon="3.60523">
        <ele>610.14723333333</ele>
        <time>2017-02-23T15:38:52Z</time>
      </trkpt>
      <trkpt lat="45.93661" lon="3.60589">
        <ele>608.94643333333</ele>
        <time>2017-02-23T15:38:57Z</time>
      </trkpt>
      <trkpt lat="45.93625" lon="3.60624">
        <ele>608.14501333333</ele>
        <time>2017-02-23T15:39:01Z</time>
      </trkpt>
      <trkpt lat="45.93577" lon="3.60643">
        <ele>607.24309333333</ele>
        <time>2017-02-23T15:39:06Z</time>
      </trkpt>
      <trkpt lat="45.93542" lon="3.60674">
        <ele>606.74168</ele>
        <time>2017-02-23T15:39:10Z</time>
      </trkpt>
      <trkpt lat="45.93507" lon="3.60708">
        <ele>606.14026</ele>
        <time>2017-02-23T15:39:14Z</time>
      </trkpt>
      <trkpt lat="45.93466" lon="3.60716">
        <ele>605.03862</ele>
        <time>2017-02-23T15:39:18Z</time>
      </trkpt>
      <trkpt lat="45.93425" lon="3.60719">
        <ele>604.437</ele>
        <time>2017-02-23T15:39:22Z</time>
      </trkpt>
      <trkpt lat="45.93391" lon="3.60768">
        <ele>603.93564666667</ele>
        <time>2017-02-23T15:39:27Z</time>
      </trkpt>
      <trkpt lat="45.93364" lon="3.60834">
        <ele>604.23457333333</ele>
        <time>2017-02-23T15:39:31Z</time>
      </trkpt>
      <trkpt lat="45.93349" lon="3.60903">
        <ele>603.93397333333</ele>
        <time>2017-02-23T15:39:35Z</time>
      </trkpt>
      <trkpt lat="45.93329" lon="3.60925">
        <ele>602.13314</ele>
        <time>2017-02-23T15:39:40Z</time>
      </trkpt>
      <trkpt lat="45.93326" lon="3.60908">
        <ele>600.53302</ele>
        <time>2017-02-23T15:39:45Z</time>
      </trkpt>
      <trkpt lat="45.93315" lon="3.60881">
        <ele>598.23258666667</ele>
        <time>2017-02-23T15:39:49Z</time>
      </trkpt>
      <trkpt lat="45.93305" lon="3.60856">
        <ele>597.53219333333</ele>
        <time>2017-02-23T15:39:54Z</time>
      </trkpt>
      <trkpt lat="45.93296" lon="3.60841">
        <ele>596.43182</ele>
        <time>2017-02-23T15:39:58Z</time>
      </trkpt>
      <trkpt lat="45.93291" lon="3.60832">
        <ele>596.03162</ele>
        <time>2017-02-23T15:40:01Z</time>
      </trkpt>
      <trkpt lat="45.93288" lon="3.60827">
        <ele>595.6315</ele>
        <time>2017-02-23T15:40:06Z</time>
      </trkpt>
      <trkpt lat="45.93275" lon="3.60807">
        <ele>593.831</ele>
        <time>2017-02-23T15:40:10Z</time>
      </trkpt>
      <trkpt lat="45.93271" lon="3.60798">
        <ele>592.83082666667</ele>
        <time>2017-02-23T15:40:16Z</time>
      </trkpt>
      <trkpt lat="45.93267" lon="3.6079">
        <ele>592.33068</ele>
        <time>2017-02-23T15:40:22Z</time>
      </trkpt>
      <trkpt lat="45.93259" lon="3.60785">
        <ele>591.63035333333</ele>
        <time>2017-02-23T15:40:27Z</time>
      </trkpt>
      <trkpt lat="45.93252" lon="3.6078">
        <ele>591.43008666667</ele>
        <time>2017-02-23T15:40:31Z</time>
      </trkpt>
      <trkpt lat="45.93245" lon="3.60777">
        <ele>591.42978</ele>
        <time>2017-02-23T15:40:35Z</time>
      </trkpt>
      <trkpt lat="45.93237" lon="3.6077">
        <ele>591.82946666667</ele>
        <time>2017-02-23T15:40:39Z</time>
      </trkpt>
      <trkpt lat="45.93229" lon="3.60766">
        <ele>591.92917333333</ele>
        <time>2017-02-23T15:40:44Z</time>
      </trkpt>
      <trkpt lat="45.93222" lon="3.60766">
        <ele>591.92886666667</ele>
        <time>2017-02-23T15:40:50Z</time>
      </trkpt>
      <trkpt lat="45.93213" lon="3.60765">
        <ele>592.1285</ele>
        <time>2017-02-23T15:40:54Z</time>
      </trkpt>
      <trkpt lat="45.93204" lon="3.6077">
        <ele>592.42814</ele>
        <time>2017-02-23T15:41:00Z</time>
      </trkpt>
      <trkpt lat="45.93195" lon="3.60773">
        <ele>592.52781333333</ele>
        <time>2017-02-23T15:41:07Z</time>
      </trkpt>
      <trkpt lat="45.9319" lon="3.60778">
        <ele>591.32761333333</ele>
        <time>2017-02-23T15:41:33Z</time>
      </trkpt>
      <trkpt lat="45.93193" lon="3.60795">
        <ele>590.32772</ele>
        <time>2017-02-23T15:41:38Z</time>
      </trkpt>
      <trkpt lat="45.93168" lon="3.60859">
        <ele>588.2267</ele>
        <time>2017-02-23T15:41:43Z</time>
      </trkpt>
      <trkpt lat="45.93145" lon="3.60905">
        <ele>587.32578666667</ele>
        <time>2017-02-23T15:41:47Z</time>
      </trkpt>
      <trkpt lat="45.9312" lon="3.60958">
        <ele>586.32478</ele>
        <time>2017-02-23T15:41:51Z</time>
      </trkpt>
      <trkpt lat="45.93111" lon="3.60987">
        <ele>585.62443333333</ele>
        <time>2017-02-23T15:41:55Z</time>
      </trkpt>
      <trkpt lat="45.93109" lon="3.61006">
        <ele>585.02434666667</ele>
        <time>2017-02-23T15:41:58Z</time>
      </trkpt>
      <trkpt lat="45.93101" lon="3.61022">
        <ele>584.62405333333</ele>
        <time>2017-02-23T15:42:02Z</time>
      </trkpt>
      <trkpt lat="45.93096" lon="3.61032">
        <ele>584.42382666667</ele>
        <time>2017-02-23T15:42:06Z</time>
      </trkpt>
      <trkpt lat="45.93086" lon="3.6104">
        <ele>584.12345333333</ele>
        <time>2017-02-23T15:42:09Z</time>
      </trkpt>
      <trkpt lat="45.93067" lon="3.61056">
        <ele>583.12266666667</ele>
        <time>2017-02-23T15:42:18Z</time>
      </trkpt>
      <trkpt lat="45.93057" lon="3.61076">
        <ele>583.22227333333</ele>
        <time>2017-02-23T15:42:22Z</time>
      </trkpt>
      <trkpt lat="45.93052" lon="3.61085">
        <ele>583.02208</ele>
        <time>2017-02-23T15:42:27Z</time>
      </trkpt>
      <trkpt lat="45.93045" lon="3.61099">
        <ele>582.62180666667</ele>
        <time>2017-02-23T15:42:32Z</time>
      </trkpt>
      <trkpt lat="45.93045" lon="3.61104">
        <ele>582.82179333333</ele>
        <time>2017-02-23T15:42:33Z</time>
      </trkpt>
      <trkpt lat="45.93042" lon="3.61113">
        <ele>583.02168666667</ele>
        <time>2017-02-23T15:42:38Z</time>
      </trkpt>
      <trkpt lat="45.93034" lon="3.61142">
        <ele>582.22135333333</ele>
        <time>2017-02-23T15:42:47Z</time>
      </trkpt>
      <trkpt lat="45.93033" lon="3.61153">
        <ele>582.22132666667</ele>
        <time>2017-02-23T15:42:51Z</time>
      </trkpt>
      <trkpt lat="45.93034" lon="3.61156">
        <ele>582.12136</ele>
        <time>2017-02-23T15:42:53Z</time>
      </trkpt>
      <trkpt lat="45.93039" lon="3.61171">
        <ele>582.02155333333</ele>
        <time>2017-02-23T15:43:00Z</time>
      </trkpt>
      <trkpt lat="45.93039" lon="3.61181">
        <ele>582.02156</ele>
        <time>2017-02-23T15:43:05Z</time>
      </trkpt>
      <trkpt lat="45.93044" lon="3.61186">
        <ele>582.22174666667</ele>
        <time>2017-02-23T15:43:07Z</time>
      </trkpt>
      <trkpt lat="45.93043" lon="3.61208">
        <ele>581.82173333333</ele>
        <time>2017-02-23T15:43:14Z</time>
      </trkpt>
      <trkpt lat="45.93041" lon="3.61229">
        <ele>582.42165333333</ele>
        <time>2017-02-23T15:43:20Z</time>
      </trkpt>
      <trkpt lat="45.93037" lon="3.61237">
        <ele>582.42148</ele>
        <time>2017-02-23T15:43:23Z</time>
      </trkpt>
      <trkpt lat="45.93027" lon="3.61259">
        <ele>582.62106</ele>
        <time>2017-02-23T15:43:27Z</time>
      </trkpt>
      <trkpt lat="45.93019" lon="3.61274">
        <ele>582.82076666667</ele>
        <time>2017-02-23T15:43:32Z</time>
      </trkpt>
      <trkpt lat="45.93011" lon="3.61292">
        <ele>582.12042666667</ele>
        <time>2017-02-23T15:43:36Z</time>
      </trkpt>
      <trkpt lat="45.93" lon="3.61302">
        <ele>581.11998</ele>
        <time>2017-02-23T15:43:40Z</time>
      </trkpt>
      <trkpt lat="45.92992" lon="3.61317">
        <ele>580.41968666667</ele>
        <time>2017-02-23T15:43:44Z</time>
      </trkpt>
      <trkpt lat="45.92988" lon="3.61325">
        <ele>580.11951333333</ele>
        <time>2017-02-23T15:43:51Z</time>
      </trkpt>
      <trkpt lat="45.92966" lon="3.61336">
        <ele>579.51862</ele>
        <time>2017-02-23T15:43:55Z</time>
      </trkpt>
      <trkpt lat="45.92956" lon="3.61338">
        <ele>578.71822666667</ele>
        <time>2017-02-23T15:44:00Z</time>
      </trkpt>
      <trkpt lat="45.92922" lon="3.6136">
        <ele>577.91686666667</ele>
        <time>2017-02-23T15:44:05Z</time>
      </trkpt>
      <trkpt lat="45.92915" lon="3.61361">
        <ele>577.81659333333</ele>
        <time>2017-02-23T15:44:12Z</time>
      </trkpt>
      <trkpt lat="45.9288" lon="3.61364">
        <ele>577.11520666667</ele>
        <time>2017-02-23T15:44:17Z</time>
      </trkpt>
      <trkpt lat="45.9287" lon="3.61369">
        <ele>576.91478</ele>
        <time>2017-02-23T15:44:21Z</time>
      </trkpt>
      <trkpt lat="45.9286" lon="3.61375">
        <ele>576.81438666667</ele>
        <time>2017-02-23T15:44:25Z</time>
      </trkpt>
      <trkpt lat="45.92847" lon="3.61381">
        <ele>576.31388</ele>
        <time>2017-02-23T15:44:30Z</time>
      </trkpt>
      <trkpt lat="45.92833" lon="3.61385">
        <ele>577.41331333333</ele>
        <time>2017-02-23T15:44:35Z</time>
      </trkpt>
      <trkpt lat="45.92824" lon="3.61391">
        <ele>578.91295333333</ele>
        <time>2017-02-23T15:44:48Z</time>
      </trkpt>
      <trkpt lat="45.92789" lon="3.61408">
        <ele>580.81154</ele>
        <time>2017-02-23T15:44:53Z</time>
      </trkpt>
      <trkpt lat="45.92779" lon="3.61416">
        <ele>581.31114</ele>
        <time>2017-02-23T15:44:56Z</time>
      </trkpt>
      <trkpt lat="45.92771" lon="3.61422">
        <ele>581.21084</ele>
        <time>2017-02-23T15:45:00Z</time>
      </trkpt>
      <trkpt lat="45.92762" lon="3.61429">
        <ele>581.31046666667</ele>
        <time>2017-02-23T15:45:04Z</time>
      </trkpt>
      <trkpt lat="45.92758" lon="3.61436">
        <ele>581.51032</ele>
        <time>2017-02-23T15:45:12Z</time>
      </trkpt>
      <trkpt lat="45.92751" lon="3.61445">
        <ele>581.31002666667</ele>
        <time>2017-02-23T15:45:12Z</time>
      </trkpt>
      <trkpt lat="45.92728" lon="3.6147">
        <ele>579.80913333333</ele>
        <time>2017-02-23T15:45:21Z</time>
      </trkpt>
      <trkpt lat="45.92723" lon="3.61473">
        <ele>579.4089</ele>
        <time>2017-02-23T15:45:23Z</time>
      </trkpt>
      <trkpt lat="45.92693" lon="3.6151">
        <ele>580.00772</ele>
        <time>2017-02-23T15:45:35Z</time>
      </trkpt>
      <trkpt lat="45.92685" lon="3.61519">
        <ele>580.00741333333</ele>
        <time>2017-02-23T15:45:39Z</time>
      </trkpt>
      <trkpt lat="45.92676" lon="3.61528">
        <ele>580.10704666667</ele>
        <time>2017-02-23T15:45:46Z</time>
      </trkpt>
      <trkpt lat="45.92659" lon="3.61533">
        <ele>579.60635333333</ele>
        <time>2017-02-23T15:45:49Z</time>
      </trkpt>
      <trkpt lat="45.9265" lon="3.61537">
        <ele>579.60600666667</ele>
        <time>2017-02-23T15:45:52Z</time>
      </trkpt>
      <trkpt lat="45.92637" lon="3.61544">
        <ele>579.30549333333</ele>
        <time>2017-02-23T15:45:57Z</time>
      </trkpt>
      <trkpt lat="45.9263" lon="3.61551">
        <ele>579.60518666667</ele>
        <time>2017-02-23T15:46:02Z</time>
      </trkpt>
      <trkpt lat="45.92614" lon="3.6157">
        <ele>578.60455333333</ele>
        <time>2017-02-23T15:46:07Z</time>
      </trkpt>
      <trkpt lat="45.92612" lon="3.61572">
        <ele>578.70446</ele>
        <time>2017-02-23T15:46:17Z</time>
      </trkpt>
      <trkpt lat="45.92582" lon="3.61599">
        <ele>579.10327333333</ele>
        <time>2017-02-23T15:46:22Z</time>
      </trkpt>
      <trkpt lat="45.92581" lon="3.61605">
        <ele>579.00322666667</ele>
        <time>2017-02-23T15:46:29Z</time>
      </trkpt>
      <trkpt lat="45.9258" lon="3.61632">
        <ele>580.70321333333</ele>
        <time>2017-02-23T15:46:34Z</time>
      </trkpt>
      <trkpt lat="45.92579" lon="3.61642">
        <ele>580.70316</ele>
        <time>2017-02-23T15:46:36Z</time>
      </trkpt>
      <trkpt lat="45.92576" lon="3.6165">
        <ele>581.10303333333</ele>
        <time>2017-02-23T15:46:45Z</time>
      </trkpt>
      <trkpt lat="45.92554" lon="3.61702">
        <ele>582.60214</ele>
        <time>2017-02-23T15:46:50Z</time>
      </trkpt>
      <trkpt lat="45.92549" lon="3.61715">
        <ele>582.10194666667</ele>
        <time>2017-02-23T15:46:54Z</time>
      </trkpt>
      <trkpt lat="45.92545" lon="3.61728">
        <ele>581.90181333333</ele>
        <time>2017-02-23T15:46:59Z</time>
      </trkpt>
      <trkpt lat="45.92538" lon="3.61749">
        <ele>582.20152666667</ele>
        <time>2017-02-23T15:47:04Z</time>
      </trkpt>
      <trkpt lat="45.92536" lon="3.61756">
        <ele>581.80144666667</ele>
        <time>2017-02-23T15:47:11Z</time>
      </trkpt>
      <trkpt lat="45.92528" lon="3.61777">
        <ele>580.40110666667</ele>
        <time>2017-02-23T15:47:14Z</time>
      </trkpt>
      <trkpt lat="45.92526" lon="3.6179">
        <ele>580.40105333333</ele>
        <time>2017-02-23T15:47:19Z</time>
      </trkpt>
      <trkpt lat="45.92522" lon="3.61807">
        <ele>580.30088666667</ele>
        <time>2017-02-23T15:47:23Z</time>
      </trkpt>
      <trkpt lat="45.92508" lon="3.61846">
        <ele>582.00032666667</ele>
        <time>2017-02-23T15:47:36Z</time>
      </trkpt>
      <trkpt lat="45.92503" lon="3.61854">
        <ele>582.40012</ele>
        <time>2017-02-23T15:47:46Z</time>
      </trkpt>
      <trkpt lat="45.92493" lon="3.61876">
        <ele>581.5997</ele>
        <time>2017-02-23T15:47:48Z</time>
      </trkpt>
      <trkpt lat="45.92484" lon="3.61892">
        <ele>582.19934666667</ele>
        <time>2017-02-23T15:47:53Z</time>
      </trkpt>
      <trkpt lat="45.92475" lon="3.61903">
        <ele>584.099</ele>
        <time>2017-02-23T15:47:57Z</time>
      </trkpt>
      <trkpt lat="45.9247" lon="3.6191">
        <ele>584.79879333333</ele>
        <time>2017-02-23T15:48:00Z</time>
      </trkpt>
      <trkpt lat="45.92458" lon="3.61923">
        <ele>586.39831333333</ele>
        <time>2017-02-23T15:48:11Z</time>
      </trkpt>
      <trkpt lat="45.92453" lon="3.61931">
        <ele>587.79812666667</ele>
        <time>2017-02-23T15:48:14Z</time>
      </trkpt>
      <trkpt lat="45.9245" lon="3.61934">
        <ele>588.698</ele>
        <time>2017-02-23T15:48:21Z</time>
      </trkpt>
      <trkpt lat="45.92435" lon="3.61954">
        <ele>592.09741333333</ele>
        <time>2017-02-23T15:48:26Z</time>
      </trkpt>
      <trkpt lat="45.92438" lon="3.61966">
        <ele>592.4975</ele>
        <time>2017-02-23T15:48:35Z</time>
      </trkpt>
      <trkpt lat="45.92445" lon="3.61966">
        <ele>591.5978</ele>
        <time>2017-02-23T15:48:43Z</time>
      </trkpt>
      <trkpt lat="45.92453" lon="3.61961">
        <ele>590.9981</ele>
        <time>2017-02-23T15:48:49Z</time>
      </trkpt>
      <trkpt lat="45.9246" lon="3.61953">
        <ele>590.69838</ele>
        <time>2017-02-23T15:48:55Z</time>
      </trkpt>
      <trkpt lat="45.92463" lon="3.61946">
        <ele>590.69852666667</ele>
        <time>2017-02-23T15:49:00Z</time>
      </trkpt>
      <trkpt lat="45.92467" lon="3.61941">
        <ele>591.09868</ele>
        <time>2017-02-23T15:49:05Z</time>
      </trkpt>
      <trkpt lat="45.92474" lon="3.61936">
        <ele>591.59896666667</ele>
        <time>2017-02-23T15:49:08Z</time>
      </trkpt>
      <trkpt lat="45.92482" lon="3.61931">
        <ele>592.59927333333</ele>
        <time>2017-02-23T15:49:14Z</time>
      </trkpt>
      <trkpt lat="45.92487" lon="3.61924">
        <ele>593.09948666667</ele>
        <time>2017-02-23T15:49:22Z</time>
      </trkpt>
      <trkpt lat="45.92497" lon="3.61916">
        <ele>593.39989333333</ele>
        <time>2017-02-23T15:49:23Z</time>
      </trkpt>
      <trkpt lat="45.92505" lon="3.61909">
        <ele>593.50019333333</ele>
        <time>2017-02-23T15:49:30Z</time>
      </trkpt>
      <trkpt lat="45.9251" lon="3.61905">
        <ele>593.20040666667</ele>
        <time>2017-02-23T15:49:34Z</time>
      </trkpt>
      <trkpt lat="45.92516" lon="3.61902">
        <ele>593.60065333333</ele>
        <time>2017-02-23T15:49:38Z</time>
      </trkpt>
      <trkpt lat="45.92526" lon="3.61899">
        <ele>594.20103333333</ele>
        <time>2017-02-23T15:49:44Z</time>
      </trkpt>
      <trkpt lat="45.92539" lon="3.61893">
        <ele>593.80154666667</ele>
        <time>2017-02-23T15:49:48Z</time>
      </trkpt>
      <trkpt lat="45.92545" lon="3.61885">
        <ele>594.70180666667</ele>
        <time>2017-02-23T15:49:52Z</time>
      </trkpt>
      <trkpt lat="45.92548" lon="3.6188">
        <ele>595.40192</ele>
        <time>2017-02-23T15:50:00Z</time>
      </trkpt>
      <trkpt lat="45.92549" lon="3.61863">
        <ele>598.10195333333</ele>
        <time>2017-02-23T15:50:04Z</time>
      </trkpt>
      <trkpt lat="45.92548" lon="3.6185">
        <ele>599.30192666667</ele>
        <time>2017-02-23T15:50:12Z</time>
      </trkpt>
      <trkpt lat="45.92551" lon="3.61839">
        <ele>600.10204</ele>
        <time>2017-02-23T15:50:16Z</time>
      </trkpt>
      <trkpt lat="45.92554" lon="3.61828">
        <ele>600.70217333333</ele>
        <time>2017-02-23T15:50:21Z</time>
      </trkpt>
      <trkpt lat="45.92559" lon="3.61817">
        <ele>601.50234666667</ele>
        <time>2017-02-23T15:50:28Z</time>
      </trkpt>
      <trkpt lat="45.92563" lon="3.61805">
        <ele>602.1025</ele>
        <time>2017-02-23T15:50:34Z</time>
      </trkpt>
      <trkpt lat="45.92564" lon="3.61802">
        <ele>602.10254666667</ele>
        <time>2017-02-23T15:50:44Z</time>
      </trkpt>
      <trkpt lat="45.92575" lon="3.61784">
        <ele>602.30298</ele>
        <time>2017-02-23T15:50:49Z</time>
      </trkpt>
      <trkpt lat="45.92578" lon="3.61776">
        <ele>602.20312666667</ele>
        <time>2017-02-23T15:50:54Z</time>
      </trkpt>
      <trkpt lat="45.92582" lon="3.61767">
        <ele>602.50329333333</ele>
        <time>2017-02-23T15:51:00Z</time>
      </trkpt>
      <trkpt lat="45.92585" lon="3.61764">
        <ele>602.50338</ele>
        <time>2017-02-23T15:51:13Z</time>
      </trkpt>
      <trkpt lat="45.92595" lon="3.61747">
        <ele>603.30378666667</ele>
        <time>2017-02-23T15:51:18Z</time>
      </trkpt>
      <trkpt lat="45.92596" lon="3.61741">
        <ele>603.80385333333</ele>
        <time>2017-02-23T15:51:25Z</time>
      </trkpt>
      <trkpt lat="45.92607" lon="3.61723">
        <ele>605.20428</ele>
        <time>2017-02-23T15:51:38Z</time>
      </trkpt>
      <trkpt lat="45.92611" lon="3.61717">
        <ele>606.20445333333</ele>
        <time>2017-02-23T15:51:47Z</time>
      </trkpt>
      <trkpt lat="45.92619" lon="3.6171">
        <ele>607.00474666667</ele>
        <time>2017-02-23T15:51:54Z</time>
      </trkpt>
      <trkpt lat="45.92624" lon="3.61704">
        <ele>607.70494666667</ele>
        <time>2017-02-23T15:52:00Z</time>
      </trkpt>
      <trkpt lat="45.92632" lon="3.61701">
        <ele>608.30527333333</ele>
        <time>2017-02-23T15:52:08Z</time>
      </trkpt>
      <trkpt lat="45.92635" lon="3.61697">
        <ele>608.80539333333</ele>
        <time>2017-02-23T15:52:14Z</time>
      </trkpt>
      <trkpt lat="45.92641" lon="3.61691">
        <ele>610.20565333333</ele>
        <time>2017-02-23T15:52:22Z</time>
      </trkpt>
      <trkpt lat="45.9265" lon="3.61687">
        <ele>611.206</ele>
        <time>2017-02-23T15:52:24Z</time>
      </trkpt>
      <trkpt lat="45.9266" lon="3.6168">
        <ele>612.4064</ele>
        <time>2017-02-23T15:52:33Z</time>
      </trkpt>
      <trkpt lat="45.92667" lon="3.61676">
        <ele>613.70669333333</ele>
        <time>2017-02-23T15:52:39Z</time>
      </trkpt>
      <trkpt lat="45.92671" lon="3.61676">
        <ele>614.40683333333</ele>
        <time>2017-02-23T15:52:51Z</time>
      </trkpt>
      <trkpt lat="45.92687" lon="3.61675">
        <ele>616.20746</ele>
        <time>2017-02-23T15:52:55Z</time>
      </trkpt>
      <trkpt lat="45.92693" lon="3.61676">
        <ele>617.30772666667</ele>
        <time>2017-02-23T15:53:00Z</time>
      </trkpt>
      <trkpt lat="45.92699" lon="3.61684">
        <ele>618.10795333333</ele>
        <time>2017-02-23T15:53:07Z</time>
      </trkpt>
      <trkpt lat="45.92698" lon="3.61687">
        <ele>618.40792</ele>
        <time>2017-02-23T15:53:17Z</time>
      </trkpt>
      <trkpt lat="45.92695" lon="3.61706">
        <ele>619.80778666667</ele>
        <time>2017-02-23T15:53:19Z</time>
      </trkpt>
      <trkpt lat="45.9269" lon="3.61718">
        <ele>620.7076</ele>
        <time>2017-02-23T15:53:23Z</time>
      </trkpt>
      <trkpt lat="45.92688" lon="3.61728">
        <ele>621.20752666667</ele>
        <time>2017-02-23T15:53:28Z</time>
      </trkpt>
      <trkpt lat="45.92687" lon="3.61735">
        <ele>621.40747333333</ele>
        <time>2017-02-23T15:53:35Z</time>
      </trkpt>
      <trkpt lat="45.92682" lon="3.61761">
        <ele>622.70726</ele>
        <time>2017-02-23T15:53:38Z</time>
      </trkpt>
      <trkpt lat="45.9268" lon="3.61768">
        <ele>623.1072</ele>
        <time>2017-02-23T15:53:48Z</time>
      </trkpt>
      <trkpt lat="45.92672" lon="3.61811">
        <ele>625.00687333333</ele>
        <time>2017-02-23T15:53:52Z</time>
      </trkpt>
      <trkpt lat="45.92671" lon="3.61824">
        <ele>625.90682</ele>
        <time>2017-02-23T15:53:57Z</time>
      </trkpt>
      <trkpt lat="45.92671" lon="3.61838">
        <ele>626.60682666667</ele>
        <time>2017-02-23T15:54:02Z</time>
      </trkpt>
      <trkpt lat="45.92672" lon="3.6185">
        <ele>626.80688666667</ele>
        <time>2017-02-23T15:54:07Z</time>
      </trkpt>
      <trkpt lat="45.92673" lon="3.61857">
        <ele>627.40692666667</ele>
        <time>2017-02-23T15:54:14Z</time>
      </trkpt>
      <trkpt lat="45.92676" lon="3.61881">
        <ele>628.30702666667</ele>
        <time>2017-02-23T15:54:17Z</time>
      </trkpt>
      <trkpt lat="45.92676" lon="3.61898">
        <ele>629.50704666667</ele>
        <time>2017-02-23T15:54:22Z</time>
      </trkpt>
      <trkpt lat="45.92676" lon="3.6191">
        <ele>630.40704</ele>
        <time>2017-02-23T15:54:25Z</time>
      </trkpt>
      <trkpt lat="45.92678" lon="3.61921">
        <ele>631.30710666667</ele>
        <time>2017-02-23T15:54:32Z</time>
      </trkpt>
      <trkpt lat="45.92682" lon="3.61944">
        <ele>631.60727333333</ele>
        <time>2017-02-23T15:54:37Z</time>
      </trkpt>
      <trkpt lat="45.92685" lon="3.6196">
        <ele>631.10739333333</ele>
        <time>2017-02-23T15:54:41Z</time>
      </trkpt>
      <trkpt lat="45.92685" lon="3.61963">
        <ele>631.00741333333</ele>
        <time>2017-02-23T15:54:46Z</time>
      </trkpt>
      <trkpt lat="45.92688" lon="3.61977">
        <ele>630.90752</ele>
        <time>2017-02-23T15:54:46Z</time>
      </trkpt>
      <trkpt lat="45.92689" lon="3.61986">
        <ele>630.30757333333</ele>
        <time>2017-02-23T15:54:51Z</time>
      </trkpt>
      <trkpt lat="45.9269" lon="3.61995">
        <ele>630.1076</ele>
        <time>2017-02-23T15:54:55Z</time>
      </trkpt>
      <trkpt lat="45.92692" lon="3.62006">
        <ele>631.20766666667</ele>
        <time>2017-02-23T15:55:00Z</time>
      </trkpt>
      <trkpt lat="45.92694" lon="3.62017">
        <ele>632.10774</ele>
        <time>2017-02-23T15:55:05Z</time>
      </trkpt>
      <trkpt lat="45.92694" lon="3.62023">
        <ele>632.30775333333</ele>
        <time>2017-02-23T15:55:07Z</time>
      </trkpt>
      <trkpt lat="45.92697" lon="3.62048">
        <ele>633.00786</ele>
        <time>2017-02-23T15:55:21Z</time>
      </trkpt>
      <trkpt lat="45.927" lon="3.62067">
        <ele>635.00798</ele>
        <time>2017-02-23T15:55:26Z</time>
      </trkpt>
      <trkpt lat="45.92704" lon="3.62078">
        <ele>636.10815333333</ele>
        <time>2017-02-23T15:55:31Z</time>
      </trkpt>
      <trkpt lat="45.92706" lon="3.62087">
        <ele>636.60824666667</ele>
        <time>2017-02-23T15:55:38Z</time>
      </trkpt>
      <trkpt lat="45.92707" lon="3.62097">
        <ele>637.00828666667</ele>
        <time>2017-02-23T15:55:42Z</time>
      </trkpt>
      <trkpt lat="45.92708" lon="3.62104">
        <ele>637.40832666667</ele>
        <time>2017-02-23T15:55:48Z</time>
      </trkpt>
      <trkpt lat="45.92712" lon="3.62117">
        <ele>638.00847333333</ele>
        <time>2017-02-23T15:55:52Z</time>
      </trkpt>
      <trkpt lat="45.92715" lon="3.62126">
        <ele>638.70858666667</ele>
        <time>2017-02-23T15:55:58Z</time>
      </trkpt>
      <trkpt lat="45.92718" lon="3.62139">
        <ele>639.40872</ele>
        <time>2017-02-23T15:56:02Z</time>
      </trkpt>
      <trkpt lat="45.92719" lon="3.62144">
        <ele>639.50876666667</ele>
        <time>2017-02-23T15:56:05Z</time>
      </trkpt>
      <trkpt lat="45.92724" lon="3.62175">
        <ele>640.20896</ele>
        <time>2017-02-23T15:56:18Z</time>
      </trkpt>
      <trkpt lat="45.92721" lon="3.62186">
        <ele>640.10884</ele>
        <time>2017-02-23T15:56:26Z</time>
      </trkpt>
      <trkpt lat="45.92719" lon="3.62188">
        <ele>640.30877333333</ele>
        <time>2017-02-23T15:56:39Z</time>
      </trkpt>
      <trkpt lat="45.92702" lon="3.62208">
        <ele>640.90807333333</ele>
        <time>2017-02-23T15:56:43Z</time>
      </trkpt>
      <trkpt lat="45.92696" lon="3.62214">
        <ele>641.40783333333</ele>
        <time>2017-02-23T15:56:48Z</time>
      </trkpt>
      <trkpt lat="45.9269" lon="3.62223">
        <ele>641.60758666667</ele>
        <time>2017-02-23T15:56:53Z</time>
      </trkpt>
      <trkpt lat="45.92687" lon="3.62229">
        <ele>642.00746666667</ele>
        <time>2017-02-23T15:57:00Z</time>
      </trkpt>
      <trkpt lat="45.92681" lon="3.62237">
        <ele>642.20724666667</ele>
        <time>2017-02-23T15:57:03Z</time>
      </trkpt>
      <trkpt lat="45.92677" lon="3.62248">
        <ele>641.90706666667</ele>
        <time>2017-02-23T15:57:11Z</time>
      </trkpt>
      <trkpt lat="45.9267" lon="3.62255">
        <ele>642.70680666667</ele>
        <time>2017-02-23T15:57:16Z</time>
      </trkpt>
      <trkpt lat="45.92665" lon="3.6226">
        <ele>643.10659333333</ele>
        <time>2017-02-23T15:57:22Z</time>
      </trkpt>
      <trkpt lat="45.92659" lon="3.62264">
        <ele>643.60636</ele>
        <time>2017-02-23T15:57:33Z</time>
      </trkpt>
      <trkpt lat="45.92644" lon="3.62275">
        <ele>644.80575333333</ele>
        <time>2017-02-23T15:57:38Z</time>
      </trkpt>
      <trkpt lat="45.92639" lon="3.62278">
        <ele>645.00554666667</ele>
        <time>2017-02-23T15:57:44Z</time>
      </trkpt>
      <trkpt lat="45.92628" lon="3.62286">
        <ele>647.00511333333</ele>
        <time>2017-02-23T15:57:52Z</time>
      </trkpt>
      <trkpt lat="45.92621" lon="3.62291">
        <ele>648.40485333333</ele>
        <time>2017-02-23T15:58:00Z</time>
      </trkpt>
      <trkpt lat="45.92616" lon="3.62297">
        <ele>649.10462</ele>
        <time>2017-02-23T15:58:06Z</time>
      </trkpt>
      <trkpt lat="45.92612" lon="3.62306">
        <ele>650.00446</ele>
        <time>2017-02-23T15:58:12Z</time>
      </trkpt>
      <trkpt lat="45.92607" lon="3.62315">
        <ele>650.70426666667</ele>
        <time>2017-02-23T15:58:18Z</time>
      </trkpt>
      <trkpt lat="45.92601" lon="3.62325">
        <ele>651.80404666667</ele>
        <time>2017-02-23T15:58:25Z</time>
      </trkpt>
      <trkpt lat="45.92598" lon="3.62334">
        <ele>653.4039</ele>
        <time>2017-02-23T15:58:32Z</time>
      </trkpt>
      <trkpt lat="45.92595" lon="3.62342">
        <ele>654.9038</ele>
        <time>2017-02-23T15:59:58Z</time>
      </trkpt>
      <trkpt lat="45.92593" lon="3.62359">
        <ele>661.0037</ele>
        <time>2017-02-23T16:00:00Z</time>
      </trkpt>
      <trkpt lat="45.92594" lon="3.6237">
        <ele>661.80376666667</ele>
        <time>2017-02-23T16:00:11Z</time>
      </trkpt>
      <trkpt lat="45.92596" lon="3.62381">
        <ele>662.90382666667</ele>
        <time>2017-02-23T16:00:17Z</time>
      </trkpt>
      <trkpt lat="45.92599" lon="3.62389">
        <ele>663.70396666667</ele>
        <time>2017-02-23T16:00:22Z</time>
      </trkpt>
      <trkpt lat="45.92604" lon="3.62398">
        <ele>664.40416</ele>
        <time>2017-02-23T16:00:30Z</time>
      </trkpt>
      <trkpt lat="45.92608" lon="3.62403">
        <ele>665.1043</ele>
        <time>2017-02-23T16:00:38Z</time>
      </trkpt>
      <trkpt lat="45.92615" lon="3.62411">
        <ele>665.90461333333</ele>
        <time>2017-02-23T16:00:41Z</time>
      </trkpt>
      <trkpt lat="45.92621" lon="3.6242">
        <ele>667.70485333333</ele>
        <time>2017-02-23T16:00:50Z</time>
      </trkpt>
      <trkpt lat="45.92627" lon="3.62425">
        <ele>668.80508666667</ele>
        <time>2017-02-23T16:00:56Z</time>
      </trkpt>
      <trkpt lat="45.92633" lon="3.62427">
        <ele>670.30532666667</ele>
        <time>2017-02-23T16:01:00Z</time>
      </trkpt>
      <trkpt lat="45.92644" lon="3.62431">
        <ele>672.90576</ele>
        <time>2017-02-23T16:01:09Z</time>
      </trkpt>
      <trkpt lat="45.92646" lon="3.62432">
        <ele>673.50583333333</ele>
        <time>2017-02-23T16:01:22Z</time>
      </trkpt>
      <trkpt lat="45.92663" lon="3.6244">
        <ele>676.80650666667</ele>
        <time>2017-02-23T16:01:24Z</time>
      </trkpt>
      <trkpt lat="45.9267" lon="3.62442">
        <ele>679.4068</ele>
        <time>2017-02-23T16:01:31Z</time>
      </trkpt>
      <trkpt lat="45.92678" lon="3.62441">
        <ele>680.8071</ele>
        <time>2017-02-23T16:01:36Z</time>
      </trkpt>
      <trkpt lat="45.92686" lon="3.6244">
        <ele>682.30742666667</ele>
        <time>2017-02-23T16:01:41Z</time>
      </trkpt>
      <trkpt lat="45.92697" lon="3.6244">
        <ele>684.40788</ele>
        <time>2017-02-23T16:01:45Z</time>
      </trkpt>
      <trkpt lat="45.92704" lon="3.62442">
        <ele>685.20817333333</ele>
        <time>2017-02-23T16:01:49Z</time>
      </trkpt>
      <trkpt lat="45.92714" lon="3.62442">
        <ele>685.20854</ele>
        <time>2017-02-23T16:01:54Z</time>
      </trkpt>
      <trkpt lat="45.92727" lon="3.62443">
        <ele>686.30906666667</ele>
        <time>2017-02-23T16:02:00Z</time>
      </trkpt>
      <trkpt lat="45.92737" lon="3.62443">
        <ele>688.70946</ele>
        <time>2017-02-23T16:02:04Z</time>
      </trkpt>
      <trkpt lat="45.92746" lon="3.62442">
        <ele>689.50983333333</ele>
        <time>2017-02-23T16:02:09Z</time>
      </trkpt>
      <trkpt lat="45.92764" lon="3.6244">
        <ele>692.81054</ele>
        <time>2017-02-23T16:02:18Z</time>
      </trkpt>
      <trkpt lat="45.92776" lon="3.62442">
        <ele>692.01104666667</ele>
        <time>2017-02-23T16:02:22Z</time>
      </trkpt>
      <trkpt lat="45.92786" lon="3.62444">
        <ele>691.81143333333</ele>
        <time>2017-02-23T16:02:26Z</time>
      </trkpt>
      <trkpt lat="45.92791" lon="3.62444">
        <ele>692.61163333333</ele>
        <time>2017-02-23T16:02:28Z</time>
      </trkpt>
      <trkpt lat="45.92819" lon="3.62445">
        <ele>695.11274</ele>
        <time>2017-02-23T16:02:40Z</time>
      </trkpt>
      <trkpt lat="45.92842" lon="3.62458">
        <ele>693.41368</ele>
        <time>2017-02-23T16:02:50Z</time>
      </trkpt>
      <trkpt lat="45.92846" lon="3.62464">
        <ele>693.41382</ele>
        <time>2017-02-23T16:02:54Z</time>
      </trkpt>
      <trkpt lat="45.92852" lon="3.62471">
        <ele>694.01409333333</ele>
        <time>2017-02-23T16:02:59Z</time>
      </trkpt>
      <trkpt lat="45.92858" lon="3.6248">
        <ele>694.71432666667</ele>
        <time>2017-02-23T16:03:04Z</time>
      </trkpt>
      <trkpt lat="45.92864" lon="3.62484">
        <ele>692.61457333333</ele>
        <time>2017-02-23T16:03:07Z</time>
      </trkpt>
      <trkpt lat="45.92868" lon="3.62487">
        <ele>692.81471333333</ele>
        <time>2017-02-23T16:03:16Z</time>
      </trkpt>
      <trkpt lat="45.92897" lon="3.62491">
        <ele>691.81589333333</ele>
        <time>2017-02-23T16:03:21Z</time>
      </trkpt>
      <trkpt lat="45.92909" lon="3.6249">
        <ele>691.11636</ele>
        <time>2017-02-23T16:03:26Z</time>
      </trkpt>
      <trkpt lat="45.92914" lon="3.62489">
        <ele>691.51657333333</ele>
        <time>2017-02-23T16:03:39Z</time>
      </trkpt>
      <trkpt lat="45.92949" lon="3.62469">
        <ele>692.91796666667</ele>
        <time>2017-02-23T16:03:44Z</time>
      </trkpt>
      <trkpt lat="45.92955" lon="3.6246">
        <ele>693.21821333333</ele>
        <time>2017-02-23T16:03:47Z</time>
      </trkpt>
      <trkpt lat="45.92962" lon="3.62449">
        <ele>694.11847333333</ele>
        <time>2017-02-23T16:03:52Z</time>
      </trkpt>
      <trkpt lat="45.92966" lon="3.62441">
        <ele>693.81864666667</ele>
        <time>2017-02-23T16:04:00Z</time>
      </trkpt>
      <trkpt lat="45.92976" lon="3.62428">
        <ele>692.51904666667</ele>
        <time>2017-02-23T16:04:02Z</time>
      </trkpt>
      <trkpt lat="45.93" lon="3.62403">
        <ele>688.12000666667</ele>
        <time>2017-02-23T16:04:15Z</time>
      </trkpt>
      <trkpt lat="45.93013" lon="3.62388">
        <ele>686.02052666667</ele>
        <time>2017-02-23T16:04:22Z</time>
      </trkpt>
      <trkpt lat="45.93019" lon="3.6238">
        <ele>685.22077333333</ele>
        <time>2017-02-23T16:04:28Z</time>
      </trkpt>
      <trkpt lat="45.93025" lon="3.62374">
        <ele>685.021</ele>
        <time>2017-02-23T16:04:29Z</time>
      </trkpt>
      <trkpt lat="45.93033" lon="3.62366">
        <ele>684.8213</ele>
        <time>2017-02-23T16:04:33Z</time>
      </trkpt>
      <trkpt lat="45.93038" lon="3.62361">
        <ele>684.72151333333</ele>
        <time>2017-02-23T16:04:37Z</time>
      </trkpt>
      <trkpt lat="45.93048" lon="3.62351">
        <ele>683.5219</ele>
        <time>2017-02-23T16:04:42Z</time>
      </trkpt>
      <trkpt lat="45.93055" lon="3.62343">
        <ele>682.22218</ele>
        <time>2017-02-23T16:04:48Z</time>
      </trkpt>
      <trkpt lat="45.93071" lon="3.62332">
        <ele>683.42282</ele>
        <time>2017-02-23T16:04:51Z</time>
      </trkpt>
      <trkpt lat="45.93077" lon="3.62325">
        <ele>685.02307333333</ele>
        <time>2017-02-23T16:04:55Z</time>
      </trkpt>
      <trkpt lat="45.93084" lon="3.62319">
        <ele>686.72336666667</ele>
        <time>2017-02-23T16:04:58Z</time>
      </trkpt>
      <trkpt lat="45.93091" lon="3.62313">
        <ele>687.92362666667</ele>
        <time>2017-02-23T16:05:03Z</time>
      </trkpt>
      <trkpt lat="45.93101" lon="3.62303">
        <ele>688.42404</ele>
        <time>2017-02-23T16:05:08Z</time>
      </trkpt>
      <trkpt lat="45.93103" lon="3.62301">
        <ele>688.62410666667</ele>
        <time>2017-02-23T16:05:09Z</time>
      </trkpt>
      <trkpt lat="45.93111" lon="3.62293">
        <ele>689.52445333333</ele>
        <time>2017-02-23T16:05:16Z</time>
      </trkpt>
      <trkpt lat="45.93122" lon="3.6228">
        <ele>692.92488666667</ele>
        <time>2017-02-23T16:05:20Z</time>
      </trkpt>
      <trkpt lat="45.9313" lon="3.62277">
        <ele>694.02520666667</ele>
        <time>2017-02-23T16:05:24Z</time>
      </trkpt>
      <trkpt lat="45.93138" lon="3.62271">
        <ele>697.12552</ele>
        <time>2017-02-23T16:05:28Z</time>
      </trkpt>
      <trkpt lat="45.93148" lon="3.62266">
        <ele>698.12591333333</ele>
        <time>2017-02-23T16:05:32Z</time>
      </trkpt>
      <trkpt lat="45.93158" lon="3.62262">
        <ele>698.42632666667</ele>
        <time>2017-02-23T16:05:36Z</time>
      </trkpt>
      <trkpt lat="45.93183" lon="3.62277">
        <ele>700.02730666667</ele>
        <time>2017-02-23T16:05:50Z</time>
      </trkpt>
      <trkpt lat="45.93187" lon="3.62286">
        <ele>701.32747333333</ele>
        <time>2017-02-23T16:05:59Z</time>
      </trkpt>
      <trkpt lat="45.93186" lon="3.62299">
        <ele>699.52742666667</ele>
        <time>2017-02-23T16:06:11Z</time>
      </trkpt>
      <trkpt lat="45.93186" lon="3.6231">
        <ele>699.02743333333</ele>
        <time>2017-02-23T16:06:20Z</time>
      </trkpt>
      <trkpt lat="45.93184" lon="3.6232">
        <ele>697.72734666667</ele>
        <time>2017-02-23T16:06:25Z</time>
      </trkpt>
      <trkpt lat="45.93182" lon="3.62332">
        <ele>697.62728</ele>
        <time>2017-02-23T16:06:34Z</time>
      </trkpt>
      <trkpt lat="45.93181" lon="3.62334">
        <ele>697.72723333333</ele>
        <time>2017-02-23T16:06:47Z</time>
      </trkpt>
      <trkpt lat="45.93174" lon="3.62354">
        <ele>697.62696</ele>
        <time>2017-02-23T16:06:52Z</time>
      </trkpt>
      <trkpt lat="45.93172" lon="3.62359">
        <ele>697.52689333333</ele>
        <time>2017-02-23T16:06:54Z</time>
      </trkpt>
      <trkpt lat="45.93171" lon="3.6237">
        <ele>697.12684666667</ele>
        <time>2017-02-23T16:07:00Z</time>
      </trkpt>
      <trkpt lat="45.93169" lon="3.62382">
        <ele>697.12676</ele>
        <time>2017-02-23T16:07:05Z</time>
      </trkpt>
      <trkpt lat="45.93165" lon="3.62393">
        <ele>697.72659333333</ele>
        <time>2017-02-23T16:07:12Z</time>
      </trkpt>
      <trkpt lat="45.93163" lon="3.62401">
        <ele>697.82650666667</ele>
        <time>2017-02-23T16:07:22Z</time>
      </trkpt>
      <trkpt lat="45.93156" lon="3.62412">
        <ele>698.12623333333</ele>
        <time>2017-02-23T16:07:27Z</time>
      </trkpt>
      <trkpt lat="45.9315" lon="3.62421">
        <ele>698.52598666667</ele>
        <time>2017-02-23T16:07:54Z</time>
      </trkpt>
      <trkpt lat="45.93146" lon="3.62431">
        <ele>700.42584666667</ele>
        <time>2017-02-23T16:07:59Z</time>
      </trkpt>
      <trkpt lat="45.93142" lon="3.62442">
        <ele>700.92568666667</ele>
        <time>2017-02-23T16:08:08Z</time>
      </trkpt>
      <trkpt lat="45.93137" lon="3.62453">
        <ele>701.32548</ele>
        <time>2017-02-23T16:08:12Z</time>
      </trkpt>
      <trkpt lat="45.93131" lon="3.62463">
        <ele>702.02525333333</ele>
        <time>2017-02-23T16:08:21Z</time>
      </trkpt>
      <trkpt lat="45.93128" lon="3.62473">
        <ele>702.5251</ele>
        <time>2017-02-23T16:08:25Z</time>
      </trkpt>
      <trkpt lat="45.93126" lon="3.62476">
        <ele>702.62503333333</ele>
        <time>2017-02-23T16:08:29Z</time>
      </trkpt>
      <trkpt lat="45.93121" lon="3.62487">
        <ele>703.12483333333</ele>
        <time>2017-02-23T16:08:35Z</time>
      </trkpt>
      <trkpt lat="45.93112" lon="3.62505">
        <ele>703.02449333333</ele>
        <time>2017-02-23T16:08:48Z</time>
      </trkpt>
      <trkpt lat="45.93107" lon="3.62516">
        <ele>703.12426666667</ele>
        <time>2017-02-23T16:08:52Z</time>
      </trkpt>
      <trkpt lat="45.93102" lon="3.62523">
        <ele>703.22408666667</ele>
        <time>2017-02-23T16:09:00Z</time>
      </trkpt>
      <trkpt lat="45.93089" lon="3.62546">
        <ele>703.12354666667</ele>
        <time>2017-02-23T16:09:04Z</time>
      </trkpt>
      <trkpt lat="45.93082" lon="3.62555">
        <ele>703.12327333333</ele>
        <time>2017-02-23T16:09:08Z</time>
      </trkpt>
      <trkpt lat="45.93078" lon="3.62563">
        <ele>703.0231</ele>
        <time>2017-02-23T16:09:11Z</time>
      </trkpt>
      <trkpt lat="45.93072" lon="3.62569">
        <ele>703.02288666667</ele>
        <time>2017-02-23T16:09:14Z</time>
      </trkpt>
      <trkpt lat="45.93067" lon="3.62576">
        <ele>703.12269333333</ele>
        <time>2017-02-23T16:09:17Z</time>
      </trkpt>
      <trkpt lat="45.93059" lon="3.62586">
        <ele>702.62237333333</ele>
        <time>2017-02-23T16:09:22Z</time>
      </trkpt>
      <trkpt lat="45.93055" lon="3.62592">
        <ele>702.22218</ele>
        <time>2017-02-23T16:09:26Z</time>
      </trkpt>
      <trkpt lat="45.93051" lon="3.62596">
        <ele>702.12205333333</ele>
        <time>2017-02-23T16:09:28Z</time>
      </trkpt>
      <trkpt lat="45.93045" lon="3.626">
        <ele>702.32180666667</ele>
        <time>2017-02-23T16:09:31Z</time>
      </trkpt>
      <trkpt lat="45.93042" lon="3.62605">
        <ele>701.72168</ele>
        <time>2017-02-23T16:09:44Z</time>
      </trkpt>
      <trkpt lat="45.93024" lon="3.62623">
        <ele>698.82097333333</ele>
        <time>2017-02-23T16:09:44Z</time>
      </trkpt>
      <trkpt lat="45.93023" lon="3.62624">
        <ele>698.62091333333</ele>
        <time>2017-02-23T16:09:57Z</time>
      </trkpt>
      <trkpt lat="45.92991" lon="3.62649">
        <ele>697.01962666667</ele>
        <time>2017-02-23T16:10:02Z</time>
      </trkpt>
      <trkpt lat="45.92984" lon="3.62654">
        <ele>696.21935333333</ele>
        <time>2017-02-23T16:10:08Z</time>
      </trkpt>
      <trkpt lat="45.92974" lon="3.62662">
        <ele>695.51896666667</ele>
        <time>2017-02-23T16:10:12Z</time>
      </trkpt>
      <trkpt lat="45.92964" lon="3.62686">
        <ele>695.11856</ele>
        <time>2017-02-23T16:10:17Z</time>
      </trkpt>
      <trkpt lat="45.92961" lon="3.62698">
        <ele>695.91845333333</ele>
        <time>2017-02-23T16:10:19Z</time>
      </trkpt>
      <trkpt lat="45.9296" lon="3.62714">
        <ele>695.21841333333</ele>
        <time>2017-02-23T16:10:26Z</time>
      </trkpt>
      <trkpt lat="45.92957" lon="3.62773">
        <ele>692.61827333333</ele>
        <time>2017-02-23T16:10:29Z</time>
      </trkpt>
      <trkpt lat="45.92951" lon="3.62795">
        <ele>691.31802</ele>
        <time>2017-02-23T16:10:33Z</time>
      </trkpt>
      <trkpt lat="45.9294" lon="3.62827">
        <ele>689.7176</ele>
        <time>2017-02-23T16:10:42Z</time>
      </trkpt>
      <trkpt lat="45.92926" lon="3.62857">
        <ele>688.11702666667</ele>
        <time>2017-02-23T16:10:50Z</time>
      </trkpt>
      <trkpt lat="45.92917" lon="3.62872">
        <ele>686.71668</ele>
        <time>2017-02-23T16:10:55Z</time>
      </trkpt>
      <trkpt lat="45.9291" lon="3.62886">
        <ele>686.11639333333</ele>
        <time>2017-02-23T16:10:59Z</time>
      </trkpt>
      <trkpt lat="45.92909" lon="3.62888">
        <ele>685.71635333333</ele>
        <time>2017-02-23T16:11:00Z</time>
      </trkpt>
      <trkpt lat="45.92903" lon="3.62901">
        <ele>684.41611333333</ele>
        <time>2017-02-23T16:11:13Z</time>
      </trkpt>
      <trkpt lat="45.92885" lon="3.62932">
        <ele>679.9154</ele>
        <time>2017-02-23T16:11:17Z</time>
      </trkpt>
      <trkpt lat="45.92879" lon="3.62946">
        <ele>678.21514666667</ele>
        <time>2017-02-23T16:11:21Z</time>
      </trkpt>
      <trkpt lat="45.92872" lon="3.62958">
        <ele>676.51488666667</ele>
        <time>2017-02-23T16:11:25Z</time>
      </trkpt>
      <trkpt lat="45.92866" lon="3.62961">
        <ele>674.01462</ele>
        <time>2017-02-23T16:11:30Z</time>
      </trkpt>
      <trkpt lat="45.9286" lon="3.6297">
        <ele>672.21438666667</ele>
        <time>2017-02-23T16:11:36Z</time>
      </trkpt>
      <trkpt lat="45.92851" lon="3.62982">
        <ele>670.31402</ele>
        <time>2017-02-23T16:11:40Z</time>
      </trkpt>
      <trkpt lat="45.92847" lon="3.62992">
        <ele>669.51388</ele>
        <time>2017-02-23T16:11:45Z</time>
      </trkpt>
      <trkpt lat="45.92846" lon="3.62996">
        <ele>669.11384666667</ele>
        <time>2017-02-23T16:11:45Z</time>
      </trkpt>
      <trkpt lat="45.92827" lon="3.63037">
        <ele>666.51309333333</ele>
        <time>2017-02-23T16:11:50Z</time>
      </trkpt>
      <trkpt lat="45.92812" lon="3.6305">
        <ele>663.41246666667</ele>
        <time>2017-02-23T16:11:56Z</time>
      </trkpt>
      <trkpt lat="45.92805" lon="3.63055">
        <ele>661.91220666667</ele>
        <time>2017-02-23T16:11:59Z</time>
      </trkpt>
      <trkpt lat="45.92792" lon="3.63066">
        <ele>658.71168</ele>
        <time>2017-02-23T16:12:12Z</time>
      </trkpt>
      <trkpt lat="45.9276" lon="3.63093">
        <ele>653.1104</ele>
        <time>2017-02-23T16:12:25Z</time>
      </trkpt>
      <trkpt lat="45.92749" lon="3.631">
        <ele>651.70996666667</ele>
        <time>2017-02-23T16:12:27Z</time>
      </trkpt>
      <trkpt lat="45.92722" lon="3.6312">
        <ele>649.50886666667</ele>
        <time>2017-02-23T16:12:34Z</time>
      </trkpt>
      <trkpt lat="45.92711" lon="3.63128">
        <ele>647.80844</ele>
        <time>2017-02-23T16:12:47Z</time>
      </trkpt>
      <trkpt lat="45.92679" lon="3.63135">
        <ele>640.80714666667</ele>
        <time>2017-02-23T16:12:52Z</time>
      </trkpt>
      <trkpt lat="45.92671" lon="3.63138">
        <ele>638.90682</ele>
        <time>2017-02-23T16:12:56Z</time>
      </trkpt>
      <trkpt lat="45.9266" lon="3.63137">
        <ele>637.20638666667</ele>
        <time>2017-02-23T16:13:00Z</time>
      </trkpt>
      <trkpt lat="45.92648" lon="3.63136">
        <ele>635.80592</ele>
        <time>2017-02-23T16:13:04Z</time>
      </trkpt>
      <trkpt lat="45.92616" lon="3.63138">
        <ele>637.00465333333</ele>
        <time>2017-02-23T16:13:17Z</time>
      </trkpt>
      <trkpt lat="45.92614" lon="3.63141">
        <ele>637.00454</ele>
        <time>2017-02-23T16:13:26Z</time>
      </trkpt>
      <trkpt lat="45.92601" lon="3.63176">
        <ele>636.40404</ele>
        <time>2017-02-23T16:13:30Z</time>
      </trkpt>
      <trkpt lat="45.92597" lon="3.63195">
        <ele>636.70388666667</ele>
        <time>2017-02-23T16:13:33Z</time>
      </trkpt>
      <trkpt lat="45.92593" lon="3.63206">
        <ele>637.60372</ele>
        <time>2017-02-23T16:13:46Z</time>
      </trkpt>
      <trkpt lat="45.92578" lon="3.63258">
        <ele>639.90311333333</ele>
        <time>2017-02-23T16:13:48Z</time>
      </trkpt>
      <trkpt lat="45.92572" lon="3.63266">
        <ele>640.10286</ele>
        <time>2017-02-23T16:13:53Z</time>
      </trkpt>
      <trkpt lat="45.92565" lon="3.63274">
        <ele>640.30261333333</ele>
        <time>2017-02-23T16:13:57Z</time>
      </trkpt>
      <trkpt lat="45.92565" lon="3.63294">
        <ele>641.30260666667</ele>
        <time>2017-02-23T16:14:02Z</time>
      </trkpt>
      <trkpt lat="45.92567" lon="3.63308">
        <ele>642.50268666667</ele>
        <time>2017-02-23T16:14:06Z</time>
      </trkpt>
      <trkpt lat="45.92568" lon="3.63318">
        <ele>643.10272666667</ele>
        <time>2017-02-23T16:14:11Z</time>
      </trkpt>
      <trkpt lat="45.92571" lon="3.6333">
        <ele>643.00284</ele>
        <time>2017-02-23T16:14:15Z</time>
      </trkpt>
      <trkpt lat="45.92574" lon="3.63339">
        <ele>642.60297333333</ele>
        <time>2017-02-23T16:14:21Z</time>
      </trkpt>
      <trkpt lat="45.92577" lon="3.63351">
        <ele>643.50308</ele>
        <time>2017-02-23T16:14:27Z</time>
      </trkpt>
      <trkpt lat="45.92577" lon="3.63355">
        <ele>644.00306</ele>
        <time>2017-02-23T16:14:39Z</time>
      </trkpt>
      <trkpt lat="45.92578" lon="3.6338">
        <ele>646.00311333333</ele>
        <time>2017-02-23T16:14:39Z</time>
      </trkpt>
      <trkpt lat="45.92581" lon="3.63391">
        <ele>646.50322666667</ele>
        <time>2017-02-23T16:14:50Z</time>
      </trkpt>
      <trkpt lat="45.92592" lon="3.63405">
        <ele>646.30368666667</ele>
        <time>2017-02-23T16:14:54Z</time>
      </trkpt>
      <trkpt lat="45.92596" lon="3.63412">
        <ele>646.20384</ele>
        <time>2017-02-23T16:14:58Z</time>
      </trkpt>
      <trkpt lat="45.92601" lon="3.63416">
        <ele>646.20405333333</ele>
        <time>2017-02-23T16:15:04Z</time>
      </trkpt>
      <trkpt lat="45.92607" lon="3.63421">
        <ele>646.90428666667</ele>
        <time>2017-02-23T16:15:08Z</time>
      </trkpt>
      <trkpt lat="45.92614" lon="3.63425">
        <ele>646.90456666667</ele>
        <time>2017-02-23T16:15:19Z</time>
      </trkpt>
      <trkpt lat="45.92628" lon="3.63428">
        <ele>645.90512</ele>
        <time>2017-02-23T16:15:23Z</time>
      </trkpt>
      <trkpt lat="45.92634" lon="3.63435">
        <ele>645.20536</ele>
        <time>2017-02-23T16:15:33Z</time>
      </trkpt>
      <trkpt lat="45.92638" lon="3.63438">
        <ele>644.40552</ele>
        <time>2017-02-23T16:15:33Z</time>
      </trkpt>
      <trkpt lat="45.92651" lon="3.63448">
        <ele>640.20603333333</ele>
        <time>2017-02-23T16:15:46Z</time>
      </trkpt>
      <trkpt lat="45.92654" lon="3.6346">
        <ele>639.80616666667</ele>
        <time>2017-02-23T16:16:03Z</time>
      </trkpt>
      <trkpt lat="45.92658" lon="3.63465">
        <ele>639.30632666667</ele>
        <time>2017-02-23T16:16:08Z</time>
      </trkpt>
      <trkpt lat="45.92669" lon="3.63481">
        <ele>636.70674</ele>
        <time>2017-02-23T16:16:20Z</time>
      </trkpt>
      <trkpt lat="45.92677" lon="3.63493">
        <ele>634.90708</ele>
        <time>2017-02-23T16:16:26Z</time>
      </trkpt>
      <trkpt lat="45.92682" lon="3.63503">
        <ele>634.00728666667</ele>
        <time>2017-02-23T16:16:29Z</time>
      </trkpt>
      <trkpt lat="45.92693" lon="3.63531">
        <ele>629.00771333333</ele>
        <time>2017-02-23T16:16:42Z</time>
      </trkpt>
      <trkpt lat="45.9271" lon="3.63541">
        <ele>627.40841333333</ele>
        <time>2017-02-23T16:16:47Z</time>
      </trkpt>
      <trkpt lat="45.92724" lon="3.63547">
        <ele>625.50896</ele>
        <time>2017-02-23T16:16:51Z</time>
      </trkpt>
      <trkpt lat="45.92736" lon="3.63551">
        <ele>624.00944</ele>
        <time>2017-02-23T16:16:56Z</time>
      </trkpt>
      <trkpt lat="45.92753" lon="3.63554">
        <ele>622.5101</ele>
        <time>2017-02-23T16:17:00Z</time>
      </trkpt>
      <trkpt lat="45.92761" lon="3.63555">
        <ele>621.61044</ele>
        <time>2017-02-23T16:17:02Z</time>
      </trkpt>
      <trkpt lat="45.92769" lon="3.63556">
        <ele>620.51076</ele>
        <time>2017-02-23T16:17:08Z</time>
      </trkpt>
      <trkpt lat="45.92799" lon="3.63575">
        <ele>616.51196</ele>
        <time>2017-02-23T16:17:13Z</time>
      </trkpt>
      <trkpt lat="45.92813" lon="3.63586">
        <ele>613.81251333333</ele>
        <time>2017-02-23T16:17:17Z</time>
      </trkpt>
      <trkpt lat="45.9282" lon="3.63592">
        <ele>612.41280666667</ele>
        <time>2017-02-23T16:17:21Z</time>
      </trkpt>
      <trkpt lat="45.92833" lon="3.63602">
        <ele>610.6133</ele>
        <time>2017-02-23T16:17:26Z</time>
      </trkpt>
      <trkpt lat="45.92848" lon="3.63604">
        <ele>608.8139</ele>
        <time>2017-02-23T16:17:30Z</time>
      </trkpt>
      <trkpt lat="45.92909" lon="3.63594">
        <ele>611.21636666667</ele>
        <time>2017-02-23T16:17:43Z</time>
      </trkpt>
      <trkpt lat="45.92992" lon="3.63558">
        <ele>617.31968</ele>
        <time>2017-02-23T16:17:56Z</time>
      </trkpt>
      <trkpt lat="45.9302" lon="3.6356">
        <ele>616.2208</ele>
        <time>2017-02-23T16:18:01Z</time>
      </trkpt>
      <trkpt lat="45.93042" lon="3.63557">
        <ele>614.92168</ele>
        <time>2017-02-23T16:18:05Z</time>
      </trkpt>
      <trkpt lat="45.93057" lon="3.63551">
        <ele>614.12226</ele>
        <time>2017-02-23T16:18:09Z</time>
      </trkpt>
      <trkpt lat="45.93072" lon="3.63545">
        <ele>613.22287333333</ele>
        <time>2017-02-23T16:18:10Z</time>
      </trkpt>
      <trkpt lat="45.93079" lon="3.63543">
        <ele>612.82314666667</ele>
        <time>2017-02-23T16:18:15Z</time>
      </trkpt>
      <trkpt lat="45.93116" lon="3.63523">
        <ele>610.82462666667</ele>
        <time>2017-02-23T16:18:17Z</time>
      </trkpt>
      <trkpt lat="45.93176" lon="3.63478">
        <ele>607.92703333333</ele>
        <time>2017-02-23T16:18:25Z</time>
      </trkpt>
      <trkpt lat="45.93206" lon="3.63457">
        <ele>606.12823333333</ele>
        <time>2017-02-23T16:18:30Z</time>
      </trkpt>
      <trkpt lat="45.93219" lon="3.6345">
        <ele>605.42875333333</ele>
        <time>2017-02-23T16:18:32Z</time>
      </trkpt>
      <trkpt lat="45.9328" lon="3.63409">
        <ele>601.63118666667</ele>
        <time>2017-02-23T16:18:42Z</time>
      </trkpt>
      <trkpt lat="45.93285" lon="3.63404">
        <ele>601.33141333333</ele>
        <time>2017-02-23T16:18:50Z</time>
      </trkpt>
      <trkpt lat="45.93386" lon="3.6338">
        <ele>594.73545333333</ele>
        <time>2017-02-23T16:18:55Z</time>
      </trkpt>
      <trkpt lat="45.9341" lon="3.6339">
        <ele>593.13639333333</ele>
        <time>2017-02-23T16:19:00Z</time>
      </trkpt>
      <trkpt lat="45.93457" lon="3.63424">
        <ele>588.73827333333</ele>
        <time>2017-02-23T16:19:08Z</time>
      </trkpt>
      <trkpt lat="45.93497" lon="3.63387">
        <ele>589.93987333333</ele>
        <time>2017-02-23T16:19:21Z</time>
      </trkpt>
      <trkpt lat="45.935" lon="3.63381">
        <ele>591.24001333333</ele>
        <time>2017-02-23T16:19:26Z</time>
      </trkpt>
      <trkpt lat="45.93512" lon="3.63359">
        <ele>596.24047333333</ele>
        <time>2017-02-23T16:19:30Z</time>
      </trkpt>
      <trkpt lat="45.93524" lon="3.63347">
        <ele>598.94095333333</ele>
        <time>2017-02-23T16:19:35Z</time>
      </trkpt>
      <trkpt lat="45.93535" lon="3.63339">
        <ele>599.54138</ele>
        <time>2017-02-23T16:19:39Z</time>
      </trkpt>
      <trkpt lat="45.93543" lon="3.63332">
        <ele>601.14170666667</ele>
        <time>2017-02-23T16:19:44Z</time>
      </trkpt>
      <trkpt lat="45.93545" lon="3.63331">
        <ele>600.44178666667</ele>
        <time>2017-02-23T16:19:57Z</time>
      </trkpt>
      <trkpt lat="45.93594" lon="3.63314">
        <ele>604.54377333333</ele>
        <time>2017-02-23T16:20:02Z</time>
      </trkpt>
      <trkpt lat="45.93601" lon="3.63312">
        <ele>604.24402666667</ele>
        <time>2017-02-23T16:20:05Z</time>
      </trkpt>
      <trkpt lat="45.93618" lon="3.63299">
        <ele>602.74472666667</ele>
        <time>2017-02-23T16:20:10Z</time>
      </trkpt>
      <trkpt lat="45.93621" lon="3.63296">
        <ele>603.04482</ele>
        <time>2017-02-23T16:20:11Z</time>
      </trkpt>
      <trkpt lat="45.9363" lon="3.63283">
        <ele>605.04518</ele>
        <time>2017-02-23T16:20:15Z</time>
      </trkpt>
      <trkpt lat="45.93665" lon="3.63257">
        <ele>607.74659333333</ele>
        <time>2017-02-23T16:20:26Z</time>
      </trkpt>
      <trkpt lat="45.93674" lon="3.63251">
        <ele>607.04696</ele>
        <time>2017-02-23T16:20:27Z</time>
      </trkpt>
      <trkpt lat="45.93737" lon="3.63207">
        <ele>603.94946666667</ele>
        <time>2017-02-23T16:20:39Z</time>
      </trkpt>
      <trkpt lat="45.93767" lon="3.63184">
        <ele>603.35066</ele>
        <time>2017-02-23T16:20:44Z</time>
      </trkpt>
      <trkpt lat="45.93791" lon="3.63159">
        <ele>607.85164666667</ele>
        <time>2017-02-23T16:20:51Z</time>
      </trkpt>
      <trkpt lat="45.93802" lon="3.63147">
        <ele>612.45208</ele>
        <time>2017-02-23T16:20:56Z</time>
      </trkpt>
      <trkpt lat="45.93801" lon="3.63142">
        <ele>613.15203333333</ele>
        <time>2017-02-23T16:21:17Z</time>
      </trkpt>
      <trkpt lat="45.93801" lon="3.63142">
        <ele>613.15203333333</ele>
        <time>2017-02-23T16:21:18Z</time>
      </trkpt>
    </trkseg>
  </trk>
</gpx>